GFSSGP_850_spd_000.txt.gz
Wind_Speed
2 2 4 1 2 3 4 5 3 14 6 19 22 16 11 13 2 6 20 17 17 20 20 17 16 15 14 13 12 11 11 10 10 9 8 8 8 9 9 9 10 11 12 11 11 10 10 9 9
7 6 4 2 3 2 3 1 17 15 15 21 25 23 21 7 19 24 24 17 17 21 20 18 16 15 14 13 12 10 10 9 9 7 7 7 8 9 9 10 11 11 11 10 11 12 12 11 10
10 7 3 3 2 5 2 3 19 20 14 6 8 15 8 14 18 15 22 16 21 21 20 18 17 15 14 12 11 10 9 8 7 6 6 7 8 8 9 10 11 10 10 10 12 13 13 12 11
6 4 1 1 6 7 8 6 19 25 25 19 18 9 12 16 23 23 22 19 19 22 20 18 16 14 12 11 10 9 7 6 6 6 6 7 7 7 9 10 11 10 10 10 11 12 12 12 11
5 4 3 2 6 4 3 8 12 9 13 20 24 5 11 19 23 23 21 17 19 22 19 17 14 12 11 9 8 7 6 5 5 5 5 6 7 8 9 11 11 10 9 10 10 10 11 10 9
1 3 2 3 1 6 5 14 17 22 31 26 28 19 12 26 24 22 18 19 21 22 19 16 12 9 8 7 6 5 4 3 4 5 5 6 8 9 10 10 10 10 10 10 11 11 11 10 9
5 3 4 3 3 3 3 16 6 15 13 7 19 6 19 25 23 24 19 21 19 18 16 13 11 9 7 6 5 4 4 4 4 5 4 6 8 8 9 9 10 10 11 12 12 14 11 10 9
2 2 2 2 9 5 4 17 24 19 8 24 22 7 18 27 24 22 17 18 18 16 13 12 10 9 8 9 8 5 7 7 7 6 5 8 8 10 10 11 11 12 13 14 16 17 17 13 10
5 3 2 3 4 7 5 14 17 23 22 11 6 33 33 29 24 21 19 20 17 13 11 10 10 10 11 9 9 7 8 7 7 7 6 8 10 10 12 13 13 14 14 16 16 17 19 18 15
7 3 5 7 6 6 5 17 13 9 19 17 23 29 34 32 27 24 23 24 18 16 11 8 6 9 11 10 9 10 9 6 7 5 6 6 8 9 10 11 12 13 14 15 16 17 20 22 19
3 4 5 6 20 17 10 11 9 20 3 25 34 37 35 33 27 24 24 23 21 18 15 10 7 7 10 7 5 5 6 6 6 6 6 3 5 8 9 10 12 14 14 16 18 21 23 25 23
2 6 6 8 8 15 12 13 7 9 9 24 29 35 35 30 26 26 25 25 24 22 14 11 6 7 10 7 6 3 2 3 4 4 5 3 3 5 6 9 11 13 13 15 18 21 24 25 25
7 5 10 13 12 9 14 8 7 8 19 27 31 33 29 26 23 22 24 25 26 21 17 14 11 11 10 7 5 7 6 3 3 1 2 4 4 3 5 7 7 8 9 13 15 17 21 25 24
9 16 10 9 7 5 7 1 7 10 30 34 34 31 26 24 22 22 25 28 28 24 24 20 15 12 11 12 11 7 7 8 7 3 4 8 8 7 5 8 8 9 11 13 15 20 23 25 25
23 6 4 3 5 3 6 2 3 17 29 35 33 31 30 26 24 24 25 31 31 30 27 25 20 7 7 11 8 9 9 8 6 5 7 9 7 7 9 8 10 13 16 17 20 22 25 25 24
5 6 3 4 6 2 5 6 6 18 24 32 35 35 32 29 26 23 22 19 30 32 31 27 27 11 9 10 8 11 10 9 10 9 12 12 11 11 9 13 19 23 29 28 28 28 28 25 25
7 3 3 3 11 3 3 3 7 23 22 25 22 11 15 22 21 22 22 19 24 18 29 30 22 14 13 13 13 14 13 9 11 9 10 11 10 13 17 19 29 33 30 30 26 28 26 26 26
5 4 5 7 6 4 5 4 5 2 13 20 19 20 25 21 14 12 11 10 10 18 27 21 13 9 10 17 17 17 13 12 10 6 8 13 15 16 20 26 32 26 19 21 26 22 24 27 31
3 3 7 3 5 5 8 8 6 18 31 26 31 38 36 34 27 20 17 15 17 20 17 15 12 12 20 19 18 14 12 6 5 8 11 12 15 19 26 28 25 20 17 17 19 24 28 29 31
3 7 5 5 7 7 10 10 7 14 18 29 33 34 32 31 27 24 22 17 13 14 12 12 12 18 18 15 6 3 4 5 9 12 12 17 20 26 23 19 17 14 15 17 20 22 26 27 30
5 7 3 3 2 9 17 9 9 8 20 24 28 30 28 27 25 22 19 18 17 15 12 9 6 4 2 4 5 7 9 12 13 16 19 19 20 18 17 15 14 16 18 21 22 24 26 31 32
2 3 4 3 3 6 1 4 4 5 11 18 24 29 28 26 22 18 15 12 10 11 8 7 6 4 4 8 14 15 16 17 19 20 15 15 17 16 15 19 22 24 24 24 26 28 30 29 29
3 2 2 2 3 3 2 7 5 5 7 7 15 25 22 18 15 11 8 7 9 8 7 10 11 12 15 17 21 22 21 21 21 18 18 14 12 14 20 26 26 24 23 24 26 26 22 22 21
1 1 6 4 3 3 4 5 6 4 7 5 13 23 18 12 7 2 1 6 7 9 12 12 14 14 16 17 20 19 20 20 18 13 11 13 16 23 26 26 23 20 21 29 27 24 20 18 16
8 5 3 4 4 4 3 7 2 4 5 13 17 19 16 13 9 8 5 2 6 9 9 12 13 15 14 13 13 16 18 15 9 9 15 20 23 20 19 20 17 21 26 30 25 24 26 27 28
3 5 5 4 2 2 5 3 2 5 23 23 18 16 16 16 12 12 8 4 3 6 7 6 8 12 12 15 15 14 10 8 11 26 30 39 24 21 18 16 21 26 26 24 25 23 19 19 20
3 4 4 6 4 3 1 4 3 5 6 15 9 16 16 15 14 17 12 8 5 7 9 10 10 11 11 9 10 15 22 27 28 29 27 19 21 20 16 19 24 27 25 23 23 21 21 21 20
6 2 4 4 2 1 3 3 4 5 4 6 8 12 15 19 18 15 12 10 11 10 10 12 12 11 13 15 19 26 30 32 37 34 30 23 23 19 18 25 26 23 21 21 19 21 20 22 24
5 3 5 4 3 4 2 5 5 7 7 10 16 25 23 19 17 16 13 11 10 12 15 10 10 12 15 19 22 25 29 32 33 28 20 24 22 24 25 23 25 19 18 17 18 21 22 24 26
2 3 4 4 2 2 4 4 3 5 18 25 22 22 22 20 15 12 9 10 12 12 10 10 12 13 17 21 24 23 25 28 32 28 28 32 27 22 17 21 22 19 17 20 21 24 26 26 25

GFSSGP_850_spd_003.txt.gz
Wind_Speed
5 4 8 7 2 3 3 5 1 1 5 14 8 7 9 9 2 3 24 21 26 22 22 19 16 14 13 13 12 12 10 9 9 9 9 9 9 9 9 9 8 9 9 9 11 13 13 12 10
4 8 8 4 3 1 3 5 8 8 18 23 13 9 8 5 9 20 24 27 25 22 22 19 16 15 14 13 13 11 10 9 8 8 8 8 9 9 10 10 11 11 10 10 11 12 12 11 10
8 8 2 4 3 4 3 4 10 22 21 13 5 9 2 13 22 21 20 25 23 23 20 18 16 15 14 13 11 10 8 8 8 7 7 7 9 9 11 12 12 11 10 10 11 12 11 9 9
8 4 1 4 6 7 4 4 8 6 14 16 7 3 8 4 20 19 24 24 22 21 20 18 16 15 13 12 10 8 7 7 7 7 7 7 9 10 10 10 11 11 10 10 11 11 10 10 9
8 3 2 2 5 5 5 8 13 6 5 7 14 7 4 10 18 22 23 24 22 22 20 17 15 13 12 9 7 6 6 6 6 5 7 8 9 8 9 10 11 10 11 11 11 11 11 10 10
2 2 4 2 4 5 5 12 16 8 10 16 16 12 5 16 21 21 21 21 21 21 18 16 13 10 9 8 7 6 5 5 4 5 8 8 8 8 8 10 11 12 12 12 13 13 12 11 10
4 3 3 3 5 6 4 13 12 17 15 7 22 5 16 23 19 19 18 20 20 18 16 14 12 9 9 8 7 6 5 4 5 8 8 9 9 9 11 11 11 12 13 13 14 16 15 13 11
2 4 1 3 4 5 6 6 14 17 4 21 20 7 12 28 22 21 22 20 18 16 13 11 9 8 8 9 8 7 7 7 7 8 9 8 9 9 10 10 11 12 13 13 13 17 19 16 14
1 4 1 3 8 7 9 5 14 8 21 4 1 21 32 31 28 28 24 22 18 15 11 10 10 11 11 11 11 9 9 8 8 9 8 8 8 8 9 10 11 11 12 12 14 17 19 20 19
4 4 8 5 9 7 8 20 15 8 9 6 20 25 35 34 30 27 25 24 19 14 12 10 10 12 13 12 12 10 8 7 7 5 6 6 5 6 8 9 10 10 11 13 16 18 20 20 22
4 4 3 3 20 17 15 10 5 19 3 20 29 36 36 33 29 25 24 21 18 13 13 11 11 13 13 12 12 10 8 7 5 4 3 3 3 5 6 8 9 10 11 13 15 17 20 22 23
3 10 2 6 13 12 12 10 9 8 11 24 25 36 38 34 31 27 24 21 21 17 13 13 13 14 14 12 11 10 8 6 6 4 2 1 4 6 5 6 8 9 9 11 13 14 16 21 22
4 3 3 12 12 13 11 7 7 5 17 27 28 36 35 33 31 25 21 20 20 20 16 16 15 15 14 13 12 10 8 6 6 2 0 2 5 7 6 6 7 8 10 13 14 16 18 21 23
8 3 8 10 13 10 7 3 1 3 28 31 34 36 34 34 30 27 27 25 27 23 20 19 17 14 13 12 10 10 9 7 6 2 1 2 4 6 6 7 9 11 16 19 22 27 23 21 25
15 5 4 2 4 3 7 2 4 15 30 33 35 35 33 31 28 25 28 28 26 24 21 20 16 15 13 13 12 9 10 8 6 5 6 9 9 10 11 11 11 14 18 26 30 27 24 24 27
5 5 3 5 3 2 4 7 3 18 30 30 32 25 24 27 27 25 25 27 27 25 24 24 22 21 12 13 9 12 10 9 9 11 13 11 10 12 10 13 16 20 25 31 31 27 25 27 23
6 3 2 3 7 2 3 3 8 14 22 13 13 14 13 15 13 14 20 21 26 30 29 27 19 17 12 12 6 10 10 9 9 8 7 8 9 13 15 18 21 25 31 29 24 24 24 22 23
3 3 3 6 5 5 1 5 8 13 17 17 17 12 13 13 8 8 14 16 12 26 28 27 23 18 10 14 15 13 11 8 5 5 7 10 13 15 17 19 25 29 26 22 20 21 22 23 24
2 3 6 4 3 9 5 10 10 12 25 23 24 29 27 23 17 9 7 9 11 17 23 19 19 8 7 10 12 12 7 2 4 9 12 14 16 20 23 25 25 22 19 17 19 21 23 24 27
5 4 2 8 10 12 13 13 8 13 10 17 25 31 32 29 27 21 17 12 8 9 8 8 6 4 5 9 4 4 10 12 13 13 15 21 22 21 21 24 21 19 18 19 21 23 25 26 28
4 1 3 8 10 8 14 9 7 8 14 20 22 25 26 24 18 15 13 12 10 8 6 8 7 2 4 7 10 12 10 11 14 18 21 21 19 19 18 16 17 20 21 22 22 23 24 27 25
3 2 4 10 6 5 4 3 1 3 4 6 17 22 23 22 21 18 18 17 14 12 9 7 6 6 8 10 12 14 13 17 16 18 17 16 17 16 16 19 23 29 27 23 22 26 26 24 21
3 2 2 4 4 5 4 5 3 5 3 4 10 20 23 16 17 18 15 12 10 10 7 8 9 11 13 14 15 17 17 17 17 12 11 9 12 17 20 25 33 31 21 23 26 31 25 20 17
3 4 6 4 3 3 2 5 5 8 7 5 9 17 20 18 18 15 12 9 8 5 4 4 5 7 10 13 15 17 17 16 13 13 10 13 23 29 33 36 26 24 25 29 28 30 24 22 22
5 5 3 3 3 4 2 2 6 13 10 10 18 21 18 15 12 11 9 6 3 1 1 3 4 8 12 15 18 20 19 18 16 15 26 32 27 28 28 24 21 23 21 23 22 21 22 21 17
3 4 5 5 3 2 4 0 3 5 20 26 23 20 16 14 14 12 9 4 5 4 4 4 6 9 11 12 12 13 15 19 21 21 25 26 28 24 22 20 20 18 21 21 20 20 20 20 17
1 4 3 6 3 3 3 3 5 5 7 16 19 16 15 14 14 14 10 9 6 4 4 6 9 9 7 8 10 15 19 23 25 27 29 31 30 25 17 13 17 19 19 18 17 18 16 16 18
5 4 4 4 3 1 2 3 4 8 10 5 6 19 20 21 20 17 14 9 4 4 7 8 5 4 6 9 12 16 17 18 22 26 28 29 23 23 22 24 21 12 16 19 18 16 16 20 22
4 2 6 5 3 4 2 5 5 10 8 7 14 25 27 23 20 16 10 5 4 6 5 2 2 5 9 13 20 23 24 28 31 31 30 26 22 18 17 15 10 19 14 15 18 19 20 23 24
1 3 4 4 3 1 4 5 4 7 16 23 20 26 23 20 16 11 6 2 3 1 1 4 7 11 16 22 27 28 31 33 33 30 23 17 16 17 18 25 20 11 14 16 17 21 23 24 25

GFSSGP_850_spd_006.txt.gz
Wind_Speed
5 6 5 1 3 5 2 5 1 3 4 7 15 10 7 1 1 1 23 26 22 25 24 22 20 18 17 15 13 11 10 10 10 9 9 10 10 10 11 10 11 11 11 12 13 12 12 11 11
5 6 2 2 4 2 4 3 4 9 15 18 20 18 14 3 6 13 22 23 25 25 23 21 19 17 16 14 12 11 10 10 9 9 9 10 10 10 11 12 12 12 12 12 11 11 11 10 9
7 5 1 4 3 4 4 3 14 12 13 17 8 12 3 3 12 22 18 26 26 23 20 19 18 16 14 13 12 11 10 10 9 9 9 9 9 10 12 13 12 11 10 10 9 10 10 9 9
7 4 2 4 5 6 4 7 13 5 3 9 15 7 3 2 13 13 22 25 22 21 20 18 16 15 14 13 11 11 10 9 9 8 8 8 8 10 12 12 11 10 11 10 10 10 9 8 9
8 2 3 1 5 5 4 17 13 5 2 24 15 7 3 7 6 17 24 22 21 21 19 17 15 14 13 12 10 10 9 9 8 7 9 8 9 11 11 11 12 12 12 13 13 14 14 13 12
3 2 3 2 4 4 3 17 14 7 7 9 7 7 4 9 16 19 21 21 20 19 18 15 14 13 12 10 10 9 8 8 7 8 9 10 10 10 11 12 12 13 13 15 16 16 15 15 14
4 4 3 3 2 4 3 15 10 9 12 2 18 4 11 20 19 20 20 21 20 17 16 16 14 12 10 9 9 8 8 8 8 10 10 10 10 11 12 12 12 13 13 14 16 18 17 16 16
1 4 3 3 3 3 3 6 5 12 4 18 5 6 10 24 20 20 19 19 19 18 17 14 11 11 11 11 10 9 9 9 10 10 10 11 11 11 10 10 11 11 12 12 14 15 16 18 18
2 4 0 4 3 3 7 4 6 6 14 4 1 10 27 25 22 23 23 22 21 17 14 12 11 12 12 13 12 11 11 11 11 11 10 10 9 8 9 8 9 9 9 10 12 14 16 17 18
4 3 8 5 4 9 15 8 11 6 8 3 8 14 30 28 26 28 28 25 20 16 14 13 12 12 13 12 11 11 11 11 9 10 9 9 7 6 6 6 7 7 8 8 11 12 14 16 18
4 4 6 3 9 18 12 6 6 17 2 10 26 33 32 31 30 27 24 19 17 14 14 13 12 11 11 12 12 11 9 9 7 8 7 6 4 3 4 4 4 6 8 10 12 13 16 17 21
1 8 7 17 24 10 13 9 7 6 3 19 22 30 34 33 32 27 23 21 20 15 12 12 11 11 11 12 11 8 8 8 5 5 4 3 2 2 1 2 5 8 11 12 14 15 19 22 23
4 3 2 9 9 14 17 7 7 4 7 20 27 30 32 31 29 26 19 16 17 14 12 11 9 10 11 10 9 8 6 5 5 2 3 2 0 2 5 7 9 9 10 10 12 18 22 23 22
9 4 4 3 14 11 10 4 3 3 16 23 28 30 28 27 25 23 22 17 15 14 12 10 8 10 12 9 9 8 7 6 7 6 5 5 4 5 7 9 8 8 10 13 18 24 24 20 20
9 5 5 6 4 4 15 4 1 6 21 26 31 30 28 27 24 23 21 18 14 13 15 15 15 14 15 13 10 11 6 11 15 11 9 9 8 9 10 9 9 12 16 19 24 26 19 18 18
6 6 4 3 3 3 5 4 8 10 25 22 23 21 22 18 21 24 22 21 20 22 21 22 20 20 13 9 10 9 18 16 18 14 12 9 9 8 8 11 16 19 21 24 25 21 18 18 18
6 3 2 1 3 3 5 2 12 5 17 12 11 12 12 16 15 20 20 22 22 22 25 25 22 18 18 17 19 19 13 10 10 9 7 9 9 11 13 16 20 23 24 24 21 18 18 19 19
5 3 1 4 1 12 8 5 7 10 10 9 10 9 9 10 9 9 14 14 14 22 22 21 16 15 13 10 8 10 9 7 1 8 8 10 13 15 19 22 20 24 26 24 21 20 21 23 25
4 4 3 3 4 8 5 6 8 15 15 14 14 15 13 10 9 5 5 3 5 9 11 13 15 12 6 2 11 10 2 10 14 8 13 14 17 20 19 22 25 25 22 20 20 20 22 24 27
5 6 4 3 4 9 8 9 6 13 7 11 21 23 25 25 22 16 13 11 9 8 9 12 13 13 10 9 4 4 9 9 9 12 15 16 18 18 20 21 22 18 18 22 24 25 24 25 27
4 5 3 5 10 6 6 6 6 6 10 14 20 24 21 19 19 18 17 16 15 16 17 17 16 14 10 8 7 9 8 8 11 14 16 19 19 18 19 18 17 21 30 32 31 28 27 28 26
3 1 5 8 4 4 2 2 1 1 2 2 11 16 16 20 20 20 18 17 15 17 14 12 11 7 5 5 7 9 11 11 13 16 18 18 17 18 20 23 29 34 33 28 23 27 28 28 27
3 6 6 3 5 5 4 5 3 4 4 6 9 13 17 19 19 21 18 14 14 13 10 7 5 4 5 7 9 14 15 14 15 16 18 17 20 26 29 29 29 26 23 25 23 24 25 25 21
4 6 6 4 3 2 4 5 4 7 8 5 10 16 18 18 18 20 15 11 8 8 6 3 1 4 7 9 10 12 12 12 12 14 17 22 24 24 30 29 28 25 18 18 20 22 22 21 19
6 5 3 3 3 4 1 3 6 11 7 12 17 20 18 17 19 18 15 12 8 6 3 1 0 3 4 7 10 9 10 12 14 16 19 23 25 26 26 24 25 18 15 12 14 19 22 18 16
3 5 5 6 3 3 3 4 5 6 19 26 25 19 18 18 17 15 13 12 9 8 7 3 2 6 9 8 8 9 11 14 18 20 23 27 28 27 25 22 23 23 24 27 14 14 17 15 16
2 3 3 7 3 3 3 4 3 4 5 15 20 17 18 17 18 18 15 13 11 8 3 3 8 10 8 10 11 13 18 21 21 24 29 32 32 28 24 19 20 22 22 9 12 15 15 15 15
2 5 3 3 3 2 3 4 4 5 9 7 10 18 19 21 21 19 16 12 8 3 4 9 11 10 10 12 15 20 24 25 27 31 33 32 29 21 19 16 25 18 19 13 10 12 14 16 17
2 2 6 5 3 4 1 5 5 9 11 10 15 22 25 25 23 18 13 9 4 0 4 13 7 6 11 16 20 23 24 28 28 30 33 31 21 17 20 21 25 17 16 8 11 14 15 19 20
1 3 4 4 3 1 3 5 4 8 13 19 20 22 24 24 19 14 9 5 3 2 4 4 4 10 14 19 21 22 26 28 30 32 31 27 18 17 17 18 25 19 10 9 12 17 18 22 24

GFSSGP_850_spd_009.txt.gz
Wind_Speed
5 4 5 3 3 1 1 3 2 7 5 11 8 11 8 11 4 2 16 19 22 22 23 22 20 20 19 16 14 14 12 12 12 11 11 11 10 9 10 11 10 10 10 10 10 10 11 11 11
6 5 6 1 3 2 1 2 9 12 17 12 13 10 11 4 10 4 20 22 22 23 23 22 20 18 17 15 14 12 11 11 11 11 11 11 10 11 12 11 10 9 9 9 9 9 10 10 10
6 7 2 2 2 4 1 6 18 23 14 11 5 4 4 2 4 9 11 23 26 23 23 22 20 18 16 14 13 11 11 11 11 11 11 10 10 11 12 11 9 8 8 8 9 9 9 10 11
9 5 1 2 4 4 4 15 18 16 7 5 14 4 10 9 3 16 18 22 23 23 22 20 18 17 15 13 11 11 11 11 11 11 10 10 11 12 11 10 8 10 11 12 13 13 13 13 13
8 2 2 2 2 2 3 20 12 5 8 7 6 9 7 12 14 16 22 24 22 21 20 19 17 15 14 12 11 11 12 12 10 11 10 10 11 11 11 11 11 12 15 16 16 16 16 16 15
3 2 1 2 2 1 3 13 13 11 11 2 5 7 4 12 12 20 22 21 21 21 20 18 15 14 12 11 11 11 12 11 10 12 10 12 12 12 12 11 12 13 15 16 16 16 16 16 16
2 2 3 2 0 4 3 17 13 12 14 7 14 3 8 13 18 22 21 20 19 18 19 17 16 13 12 12 11 11 11 11 12 12 12 12 12 12 11 11 11 12 12 12 14 15 15 15 14
2 2 4 1 7 6 5 13 12 7 1 19 11 5 7 20 20 23 23 21 20 18 16 16 15 15 13 12 11 10 10 11 12 11 11 12 11 11 10 9 9 9 9 9 10 11 12 13 15
2 1 3 6 7 2 6 11 6 4 14 6 3 10 20 26 24 24 24 21 19 17 15 14 13 13 13 12 11 10 10 10 10 11 11 10 10 8 8 6 6 6 6 8 9 10 10 13 16
3 2 6 1 20 7 4 9 7 5 8 4 8 14 29 25 24 25 24 23 20 18 15 13 13 13 12 12 10 10 10 10 9 9 9 9 7 6 5 4 3 4 6 8 10 11 13 15 18
4 2 5 8 13 20 21 7 6 13 4 4 16 29 26 25 24 23 22 20 18 17 14 13 11 11 11 9 9 8 8 8 5 6 6 5 3 3 3 1 2 4 5 7 8 9 12 17 20
2 6 2 2 7 10 9 12 6 7 1 3 19 29 28 26 24 21 19 17 16 14 12 11 10 10 10 9 7 5 4 4 1 3 5 5 3 3 2 2 4 5 6 7 8 10 14 18 20
4 4 5 5 8 15 14 8 6 2 6 13 22 27 26 24 22 19 17 15 14 12 12 11 11 10 10 9 8 7 5 4 3 3 4 5 5 5 4 6 7 7 9 10 12 15 19 21 20
4 6 6 5 13 16 9 5 6 3 14 19 23 25 23 22 21 20 16 15 14 10 10 12 11 11 12 11 10 7 2 2 8 9 13 10 10 8 8 9 9 11 12 15 17 20 23 22 18
8 6 6 6 5 4 13 5 5 5 14 20 19 20 20 19 19 18 16 16 13 12 13 12 13 13 12 11 6 2 8 17 14 18 18 12 17 12 10 12 14 15 16 19 21 24 23 21 19
3 4 4 1 3 4 2 3 7 4 9 12 16 19 19 16 16 15 16 15 15 15 15 14 13 15 16 13 9 3 17 16 22 21 15 4 5 9 9 12 14 17 19 22 23 22 19 17 17
7 4 3 4 11 3 7 1 10 5 10 10 11 12 14 14 12 13 12 15 13 15 17 18 18 15 16 16 16 10 18 14 6 3 4 8 8 10 13 16 18 19 23 25 22 19 17 17 18
4 5 2 5 5 11 11 5 8 8 8 9 10 10 12 12 10 10 12 14 11 14 15 12 12 11 10 9 7 3 4 6 2 9 12 9 12 13 16 16 17 21 22 21 19 19 20 22 24
5 4 6 3 1 7 6 5 7 7 8 7 8 10 10 9 8 6 6 5 4 4 3 5 4 3 3 6 9 10 8 5 10 9 9 10 12 14 16 15 19 20 20 20 20 22 24 26 27
4 6 4 5 2 5 6 9 6 7 4 3 9 11 13 15 12 10 10 12 12 10 12 16 15 14 13 12 8 5 6 4 5 8 11 12 13 14 15 17 17 19 23 26 27 25 22 22 26
3 6 4 5 6 6 6 4 3 5 7 8 10 15 18 22 25 24 22 22 23 23 20 19 18 16 13 10 6 2 1 4 8 11 12 14 15 15 17 18 21 25 26 24 20 18 18 16 22
4 3 9 13 2 3 2 3 2 3 4 6 9 11 16 21 22 23 24 25 23 21 19 18 17 13 9 5 1 2 5 7 10 12 13 12 14 18 21 24 26 25 24 20 19 19 19 18 14
3 8 10 3 4 4 1 1 3 6 8 9 11 10 16 22 23 22 20 19 20 20 17 14 10 7 4 1 3 5 6 7 7 8 10 14 19 22 25 27 30 29 23 20 19 18 13 16 19
10 6 6 3 2 1 2 3 5 9 15 14 13 12 17 21 21 21 20 19 18 16 14 11 8 6 3 2 3 6 6 6 8 11 15 20 24 27 29 31 29 26 25 23 20 19 22 19 19
4 4 2 1 1 3 1 3 6 13 11 19 21 20 22 22 21 18 17 16 15 15 12 9 6 2 2 5 9 10 11 12 15 19 24 26 29 31 32 28 25 24 23 18 17 20 14 12 13
2 4 4 5 3 2 1 5 3 3 15 22 24 21 22 22 20 16 14 14 15 14 12 9 4 2 5 8 11 12 10 14 18 21 24 27 30 31 29 26 23 21 20 17 24 14 10 12 12
3 2 2 6 2 1 2 3 5 1 8 14 19 21 22 23 20 17 16 16 15 13 10 5 6 7 7 9 9 12 17 20 22 25 27 29 29 28 24 20 17 18 18 25 13 9 9 11 14
1 6 3 2 3 3 2 5 6 5 12 12 16 21 22 22 20 20 19 16 13 11 8 6 6 8 10 10 13 18 21 24 25 26 28 29 29 26 20 17 19 14 20 15 7 7 9 13 15
3 2 6 4 1 2 2 4 4 8 14 16 22 21 23 23 24 23 18 15 12 9 5 6 9 13 10 11 16 19 23 24 24 27 29 28 26 21 14 16 16 20 20 13 10 9 11 14 17
1 3 4 3 4 1 0 5 0 6 9 13 14 19 22 24 25 21 17 14 11 6 3 7 10 10 10 12 17 19 22 22 25 28 29 27 25 17 12 15 18 21 23 13 10 11 13 17 21

GFSSGP_850_spd_012.txt.gz
Wind_Speed
7 4 4 3 6 6 9 5 3 10 10 13 11 11 14 14 7 2 15 15 21 22 23 24 21 19 17 15 12 11 10 10 10 10 9 9 8 8 9 10 10 9 8 8 8 9 10 10 11
7 4 3 3 7 9 7 2 9 13 19 14 15 13 12 10 9 13 15 17 20 22 23 22 21 19 17 15 12 11 11 10 10 10 10 10 10 11 11 11 9 8 7 7 8 9 10 10 12
6 8 6 4 7 11 4 5 14 19 14 13 6 9 4 4 4 12 16 23 19 19 22 21 21 19 17 14 12 12 12 11 11 11 11 10 11 11 10 10 8 8 9 10 10 11 11 12 14
6 5 5 8 10 1 2 12 18 14 11 6 19 7 5 10 3 11 13 15 21 20 21 21 21 19 16 14 12 12 11 11 10 10 9 10 10 11 10 9 10 11 13 13 14 14 13 14 16
7 5 7 10 6 2 5 16 15 5 11 9 10 12 10 9 14 12 14 26 20 21 20 19 18 15 14 13 12 11 10 10 9 10 9 10 10 10 10 10 12 13 14 14 14 14 14 15 16
9 5 6 12 4 3 2 15 8 4 11 7 6 15 10 8 12 12 17 18 16 17 18 17 16 15 14 12 11 11 10 10 8 8 8 9 9 9 10 11 12 12 13 14 13 13 12 14 17
10 7 8 2 3 7 8 13 8 10 15 3 8 8 5 10 12 17 22 18 18 18 18 18 16 15 13 11 10 9 9 7 8 6 7 8 9 8 9 10 10 10 10 10 10 10 10 12 15
6 5 5 3 7 14 14 14 17 12 17 4 5 5 7 14 18 20 18 18 18 17 16 16 14 13 12 10 9 8 8 6 6 5 7 7 8 7 7 7 6 7 6 6 6 6 7 9 12
4 6 7 9 13 13 17 6 7 6 11 8 4 4 13 23 19 19 18 18 18 16 14 14 13 11 11 9 9 8 7 7 6 5 6 7 4 4 3 4 5 4 3 3 3 4 6 10 14
8 6 3 9 16 12 0 4 16 9 15 6 6 12 22 21 21 20 19 18 18 18 18 15 13 13 11 8 7 7 7 4 4 3 5 2 3 2 3 1 2 1 1 1 3 5 8 12 11
7 5 8 13 11 15 16 18 10 13 11 6 16 25 21 21 18 17 16 14 14 14 14 12 12 12 11 8 7 6 5 5 5 5 4 2 2 4 4 3 3 4 4 4 5 6 7 14 17
8 3 3 15 14 13 13 8 8 5 9 5 19 26 23 19 17 16 15 13 13 11 10 12 11 12 11 9 7 8 7 7 4 2 4 5 3 5 6 5 6 6 6 8 8 8 16 17 20
11 2 3 6 13 15 11 6 9 10 9 16 22 21 20 18 16 13 13 12 11 11 10 10 10 11 11 12 11 10 7 6 4 4 5 7 5 7 10 10 10 11 10 10 11 11 13 14 14
2 4 1 2 8 9 10 7 8 10 7 16 21 18 17 15 14 12 10 10 10 10 10 11 11 11 11 11 9 7 6 2 7 11 11 10 13 19 19 14 13 11 12 13 13 18 20 15 16
10 9 10 8 11 6 16 9 7 3 7 15 17 15 13 12 11 10 8 8 10 10 12 13 13 11 12 12 9 10 10 5 20 19 17 12 14 15 11 12 15 13 16 17 14 17 14 14 14
7 7 8 5 10 5 6 12 8 2 10 14 15 13 12 10 10 9 7 7 9 9 11 13 14 14 15 15 13 11 27 21 24 22 9 8 2 6 9 10 13 15 17 18 13 12 14 15 15
7 8 11 9 4 8 7 11 7 4 11 12 12 13 12 10 8 6 9 8 9 11 13 14 15 15 18 18 17 17 17 13 11 1 2 5 6 6 7 10 14 15 14 13 12 12 15 16 17
9 8 13 13 4 7 7 7 6 6 11 12 12 12 11 10 7 8 10 10 9 10 12 12 12 12 13 12 14 11 6 7 4 3 6 4 6 8 9 13 14 12 9 11 12 15 16 17 17
5 7 12 8 4 5 5 7 5 6 10 12 12 12 12 11 7 7 9 9 9 8 9 10 8 8 8 8 10 9 8 7 4 5 4 7 9 10 11 8 10 12 12 16 19 19 20 20 19
6 10 8 6 3 4 9 7 6 5 6 8 11 12 12 10 10 9 10 10 11 12 12 13 13 15 13 11 10 8 7 5 4 5 7 9 11 11 12 15 13 14 16 17 17 17 17 17 17
3 6 10 5 7 2 10 7 8 4 6 7 8 9 10 11 13 15 14 14 15 17 18 17 17 16 13 11 8 6 4 3 2 5 4 9 12 12 14 17 20 20 18 19 16 14 13 15 16
6 3 9 12 13 8 8 8 10 8 7 9 12 13 15 17 17 16 17 18 18 18 17 17 15 13 14 12 8 7 3 2 4 4 4 6 14 18 21 20 25 23 20 17 14 12 12 11 16
3 7 10 8 7 5 11 8 9 9 11 14 15 16 17 17 17 18 17 17 16 19 17 17 16 14 12 9 5 3 1 1 2 4 8 12 14 16 18 18 19 20 18 15 13 11 10 12 15
11 12 8 4 3 6 3 8 8 10 17 16 19 18 19 19 19 17 16 15 15 14 16 14 13 12 9 5 3 1 4 4 5 9 12 14 17 18 19 20 20 18 15 12 10 9 11 13 13
7 10 5 6 5 7 1 6 12 4 5 19 22 22 22 21 20 18 18 16 15 14 14 13 11 10 7 3 4 6 8 11 9 13 14 18 18 19 20 22 19 16 13 11 10 9 18 10 9
9 7 4 5 6 6 3 7 3 1 7 16 24 25 24 22 20 18 17 15 15 15 14 13 10 8 5 5 7 10 10 10 10 13 16 15 17 19 21 19 16 12 10 10 17 11 11 10 10
5 7 3 2 0 4 6 6 10 4 8 16 25 25 25 24 21 18 17 16 16 17 15 13 10 7 5 6 9 10 12 16 17 16 17 17 19 19 19 17 12 9 11 11 11 13 12 10 11
3 8 3 3 3 5 3 7 6 7 11 16 23 26 26 24 21 19 17 17 16 16 15 10 9 5 7 9 7 9 12 16 18 19 19 21 22 20 18 15 13 13 16 10 14 15 11 11 12
4 4 1 1 2 3 3 1 3 1 9 16 24 27 27 25 23 20 18 17 17 16 13 8 4 4 6 2 5 8 13 18 20 16 17 20 22 19 17 15 14 17 14 17 20 15 13 13 14
3 4 7 4 4 0 2 4 3 1 3 12 20 25 24 23 22 21 20 20 19 18 14 11 2 3 2 6 6 11 16 18 13 13 17 19 19 18 17 14 14 16 19 22 18 11 14 16 18

GFSSGP_850_spd_015.txt.gz
Wind_Speed
8 7 4 8 7 8 16 18 2 9 7 10 7 6 10 19 9 5 17 16 21 25 26 27 23 21 18 15 13 11 10 9 8 7 6 6 6 6 7 8 8 8 9 9 10 11 12 13 13
4 8 8 12 8 13 14 16 5 14 16 14 13 11 13 13 10 13 16 17 24 25 27 26 23 19 17 15 13 11 10 10 8 7 7 7 7 8 8 8 8 8 8 9 10 11 13 15 16
9 9 14 7 12 14 12 7 16 15 14 10 8 11 7 6 7 11 13 19 20 23 24 24 21 18 16 14 12 10 10 9 8 8 7 7 8 9 8 8 8 9 10 11 12 13 15 17 18
8 9 13 10 18 12 7 13 12 13 12 10 11 8 6 2 4 6 14 18 18 22 22 19 20 17 15 13 12 11 9 9 8 8 6 7 8 8 8 8 9 11 12 13 12 14 16 18 20
12 15 11 14 17 9 2 11 20 18 12 17 11 9 9 7 7 9 13 14 15 20 19 20 20 16 13 12 10 11 10 8 8 7 6 7 7 7 7 9 11 12 12 13 12 14 15 17 19
14 17 13 14 18 6 5 17 13 14 9 4 4 15 10 8 8 9 13 20 15 19 17 20 15 16 12 11 11 10 9 8 6 5 5 7 7 7 8 9 10 11 10 10 11 11 11 13 15
18 11 16 17 2 7 7 14 13 14 10 7 8 12 5 7 7 8 11 18 22 25 24 17 17 17 14 11 11 9 8 6 5 5 6 6 7 7 6 7 6 7 7 6 7 7 7 10 13
20 12 19 10 4 7 12 6 8 8 15 4 5 2 7 11 9 13 14 15 12 14 21 18 17 16 13 12 11 9 8 5 5 5 6 7 6 6 4 3 1 2 2 3 4 4 7 9 15
12 10 15 10 13 12 18 14 11 5 2 13 3 1 14 17 15 13 15 16 16 15 16 17 16 14 10 5 8 7 7 6 5 5 6 10 6 4 6 6 3 3 4 4 6 6 8 12 15
12 13 13 10 9 16 11 6 9 4 1 11 7 10 17 18 16 14 13 13 14 15 15 14 15 15 15 7 10 7 10 6 6 4 4 5 2 1 1 5 7 8 8 8 10 10 11 13 11
17 14 1 13 9 15 13 8 14 5 7 12 13 21 20 18 16 15 14 13 14 11 12 11 13 15 10 8 8 8 6 6 4 4 5 2 0 3 3 4 7 7 11 8 11 11 10 11 12
12 9 7 7 13 13 14 14 22 17 20 36 20 23 20 19 16 15 16 14 12 10 10 10 11 15 10 9 9 9 7 7 6 1 3 3 2 3 2 4 7 10 9 11 11 12 13 13 14
10 7 2 2 5 10 14 20 7 14 13 20 25 21 20 18 17 15 14 14 13 13 11 11 12 13 13 12 11 11 9 8 4 1 7 7 6 8 4 10 9 12 12 12 13 15 13 15 16
11 7 6 7 7 5 10 9 13 9 16 22 22 21 19 18 16 15 14 14 13 14 13 14 14 13 14 13 14 14 12 7 6 14 10 14 13 15 20 18 11 15 14 15 13 14 16 16 16
6 8 11 11 13 8 12 8 11 10 17 20 19 19 17 17 16 15 14 14 14 14 14 15 15 14 15 16 13 13 11 13 10 15 18 16 14 13 11 14 12 15 18 13 13 15 14 16 18
10 11 13 13 12 6 14 14 9 11 18 19 20 18 17 15 15 14 13 13 13 13 14 14 14 14 15 15 16 12 14 21 21 14 15 4 1 4 6 7 6 8 8 11 13 14 15 16 17
8 7 9 10 13 11 15 17 12 13 14 17 17 18 16 16 14 13 12 11 13 13 14 13 14 15 15 16 13 12 10 11 11 6 3 4 4 3 1 4 5 9 10 12 14 13 17 19 21
7 12 14 13 10 12 10 15 11 15 16 17 19 18 17 16 13 11 10 11 11 12 14 13 14 17 15 14 13 12 13 7 5 3 1 2 3 3 1 6 9 12 11 14 15 17 18 21 23
13 9 12 14 6 10 9 11 13 14 16 17 17 17 17 15 11 9 10 10 11 12 14 16 16 15 8 7 6 7 9 8 5 3 2 1 2 4 8 6 9 12 13 15 17 20 21 20 19
5 6 12 7 9 9 9 10 10 13 16 16 17 16 17 15 12 11 10 10 11 12 13 11 12 13 10 10 9 8 8 6 6 4 2 2 5 5 6 10 12 13 16 18 19 19 20 18 17
5 9 11 12 12 14 11 13 12 10 11 11 15 17 16 16 15 13 12 11 12 13 13 13 13 13 12 12 10 8 7 5 3 1 2 5 5 7 9 12 14 16 17 19 19 18 16 18 18
10 3 10 3 9 14 16 13 21 17 16 14 16 14 15 16 15 15 16 16 17 16 16 17 16 14 12 10 8 7 4 4 4 1 4 4 9 10 13 15 17 17 18 19 18 15 15 16 17
12 7 6 7 12 5 15 9 15 13 15 15 16 17 17 18 20 20 20 20 19 18 18 16 14 12 11 9 8 6 4 3 1 1 5 7 9 11 13 15 16 18 18 17 16 16 14 15 17
4 5 6 7 10 7 16 12 14 15 15 16 18 19 20 21 21 22 21 20 18 18 16 15 14 12 11 10 10 8 6 3 0 3 6 7 10 11 12 15 17 18 17 16 15 15 15 16 16
9 9 8 8 8 10 3 6 12 7 7 14 20 23 22 22 23 23 22 20 18 17 16 15 15 13 12 11 9 8 6 5 3 7 6 8 9 11 13 17 17 17 15 15 14 16 19 18 11
9 13 9 6 6 10 7 7 3 10 3 6 22 22 23 24 24 23 21 19 18 17 17 16 15 14 13 11 9 3 2 9 4 5 6 7 9 12 15 15 16 15 13 14 16 16 14 12 13
7 8 7 5 3 7 12 16 11 6 5 9 20 23 25 25 24 23 21 19 18 18 18 18 16 15 13 10 2 6 6 5 2 4 6 8 10 13 14 15 15 14 16 17 18 16 13 15 13
8 3 4 5 4 9 5 5 5 6 6 10 17 23 25 25 24 23 21 20 20 20 19 19 18 15 12 4 4 0 1 1 2 5 7 10 11 13 14 15 15 15 18 16 15 15 18 17 14
7 10 7 4 2 4 4 2 7 3 2 9 15 22 24 25 25 23 21 21 21 21 21 20 18 15 9 6 1 5 4 3 5 7 8 10 13 13 15 15 14 14 15 18 18 21 22 19 16
10 8 10 5 6 2 3 7 3 4 3 8 11 18 21 24 25 23 22 22 23 24 23 21 18 14 11 5 8 7 6 7 8 9 10 12 13 14 15 15 14 15 17 19 19 18 15 13 15

GFSSGP_850_spd_018.txt.gz
Wind_Speed
8 8 4 10 7 8 15 18 20 3 15 7 7 12 13 14 6 5 11 21 23 25 30 27 25 23 21 19 17 15 14 12 11 8 8 8 9 11 12 12 11 11 13 14 15 17 18 19 20
5 4 10 11 8 12 15 14 11 15 15 15 16 8 11 10 12 18 18 23 23 26 31 27 24 23 20 18 16 14 13 10 10 8 8 8 10 11 11 10 10 12 14 15 17 19 20 22 22
8 7 11 6 12 14 17 8 10 16 11 13 7 12 4 11 14 13 16 24 26 26 26 27 23 21 19 19 14 13 11 9 9 9 8 9 9 10 10 10 12 14 16 16 18 19 21 22 22
6 8 11 8 18 21 19 16 15 6 19 6 13 8 6 4 7 12 19 22 25 25 23 25 22 19 18 17 14 13 10 9 9 9 8 9 10 9 10 12 13 15 16 16 17 18 18 19 21
10 12 10 13 18 22 9 13 18 15 7 9 13 4 6 7 11 15 18 17 22 25 25 26 22 18 16 16 13 11 10 9 8 8 9 9 10 10 11 13 14 14 15 15 15 14 15 16 20
12 14 13 14 22 16 7 24 25 20 17 6 10 9 10 12 13 13 16 17 18 22 27 17 17 19 15 14 13 11 10 8 8 8 9 9 10 10 11 12 12 12 12 11 11 10 12 14 18
16 11 16 20 17 10 12 21 19 15 18 8 6 3 9 13 17 13 15 21 23 29 26 21 20 17 15 15 14 11 9 7 8 8 9 10 10 10 9 9 9 8 8 8 8 8 10 13 15
20 12 21 19 18 4 10 12 14 17 11 12 11 6 6 19 11 12 12 10 18 15 21 20 19 17 14 13 11 10 8 8 8 9 11 12 13 10 9 7 4 5 6 6 7 9 11 11 13
18 12 14 17 12 5 10 1 10 15 9 2 5 3 15 16 12 19 18 29 24 22 16 23 21 17 14 12 12 11 10 10 11 11 15 12 11 9 6 9 7 6 7 9 10 12 12 10 15
14 11 17 15 13 8 3 17 7 3 20 11 12 34 16 19 17 18 27 31 33 25 19 19 18 16 14 13 13 15 17 13 11 9 13 6 5 3 1 5 7 8 10 10 10 14 13 10 13
18 15 15 5 12 20 27 7 19 7 3 19 7 22 19 18 16 17 18 21 25 26 23 21 22 18 16 13 13 15 10 10 6 9 9 3 4 2 4 4 5 9 11 5 10 8 15 17 12
15 20 16 11 11 10 11 23 9 2 9 6 7 15 18 17 18 17 20 20 20 20 20 19 25 19 13 16 16 16 15 11 12 6 7 4 2 4 7 4 5 3 6 6 6 8 11 11 12
14 15 2 13 13 16 26 17 8 7 11 6 13 14 17 14 16 16 18 21 16 11 15 19 24 18 20 17 20 19 17 12 6 1 5 7 6 7 7 6 18 11 9 11 14 14 15 18 17
10 15 5 7 25 9 22 7 17 17 15 15 16 17 16 16 16 16 16 17 17 17 17 21 20 20 20 21 20 15 17 9 8 7 4 6 11 11 13 15 15 9 11 15 17 13 15 14 13
4 5 3 2 6 10 10 20 6 37 28 26 23 19 17 17 17 15 16 15 18 15 16 19 17 19 19 19 17 19 17 8 16 9 13 16 19 8 9 11 10 11 13 10 12 13 12 14 17
7 11 4 4 8 10 14 11 10 22 22 22 22 18 15 15 14 13 14 15 14 19 18 16 15 20 19 16 21 21 10 11 9 14 13 3 3 1 2 5 5 9 9 9 13 13 13 16 18
8 6 9 13 13 4 7 15 14 17 12 24 23 20 21 16 16 17 14 15 14 20 20 19 18 20 21 15 21 14 8 6 5 5 3 2 3 3 4 4 10 10 7 9 12 15 18 23 22
5 5 11 13 11 15 10 14 13 14 27 15 20 17 15 16 13 14 14 13 14 17 18 16 19 22 17 14 16 10 4 7 2 7 1 8 3 2 5 6 12 11 9 10 15 20 18 20 22
8 14 19 12 11 9 10 15 15 18 14 16 21 27 24 18 17 15 13 14 12 18 19 19 20 17 14 12 8 6 7 10 9 7 5 5 1 4 6 7 9 10 12 15 17 19 19 21 20
13 9 8 9 6 7 10 11 15 15 18 20 19 27 23 24 19 15 14 14 14 15 19 18 18 14 13 11 10 10 10 7 9 7 2 4 3 6 3 12 13 13 17 19 16 20 22 19 16
11 5 8 9 7 9 6 11 16 15 19 19 20 19 20 24 21 17 15 15 16 19 18 15 13 17 15 15 14 15 14 12 9 1 2 6 11 9 10 12 14 18 17 17 19 20 16 17 16
8 12 5 7 11 7 5 8 10 7 14 15 18 21 20 23 20 19 17 21 19 18 15 16 15 15 20 16 13 9 8 13 13 10 8 2 7 7 7 11 14 15 17 20 18 15 19 21 16
4 15 10 16 9 5 9 9 10 11 11 15 18 19 19 19 21 20 21 16 19 20 20 22 22 18 16 13 17 15 10 9 9 6 2 3 9 13 15 14 18 18 18 16 19 16 18 16 17
11 10 14 10 10 2 15 10 11 10 19 11 18 16 16 18 19 20 20 22 22 22 24 23 19 17 17 17 19 19 18 16 10 8 8 13 11 12 12 17 19 16 15 14 15 17 16 16 20
8 9 5 8 5 8 8 9 8 20 10 12 19 23 20 19 22 24 26 24 24 24 24 22 20 19 19 20 21 20 15 10 6 10 7 11 10 10 13 18 16 16 15 13 16 18 19 24 21
19 10 3 7 4 9 3 5 2 21 21 42 37 25 24 22 23 26 25 24 23 22 22 22 22 19 17 17 17 13 7 7 8 6 8 5 9 11 14 15 16 13 13 17 21 22 20 22 16
6 7 7 2 14 6 3 13 10 9 9 1 25 24 24 24 24 25 25 24 23 22 23 24 22 21 19 17 15 9 7 6 7 7 6 7 9 11 12 15 15 14 13 20 19 17 14 15 17
6 8 3 2 2 4 8 10 5 5 4 2 10 19 22 23 24 25 24 23 22 21 22 22 22 23 21 20 12 8 7 6 7 5 7 8 11 13 12 14 15 16 12 16 16 17 15 17 19
6 7 7 6 3 1 3 3 6 7 6 4 6 20 22 25 25 25 25 25 22 21 23 24 24 23 23 20 12 9 9 10 6 7 8 10 13 12 13 14 16 14 14 14 19 23 21 20 20
8 10 12 3 5 2 1 6 3 5 4 2 6 12 23 26 26 26 26 23 22 23 24 25 24 24 22 17 12 12 13 9 10 9 9 11 14 12 14 15 14 13 14 15 13 16 20 17 14

GFSSGP_850_spd_021.txt.gz
Wind_Speed
8 6 4 5 2 2 5 10 3 2 4 12 21 20 14 11 4 5 24 16 32 35 28 28 27 26 24 23 20 18 17 16 15 14 14 15 17 17 16 16 16 17 19 22 23 25 25 26 25
5 6 4 5 3 1 6 9 8 8 13 17 16 17 10 5 10 16 25 24 24 32 35 29 27 26 24 22 20 18 16 15 14 15 14 15 17 16 15 16 17 19 21 22 24 24 25 25 22
6 7 4 4 4 6 6 0 8 10 17 12 5 13 8 5 19 14 20 25 30 36 34 30 27 25 23 22 20 18 15 15 14 15 15 16 16 15 16 18 18 20 21 22 22 23 24 24 25
7 4 7 0 10 16 11 3 10 10 19 15 10 6 9 8 10 13 28 27 34 35 33 30 25 23 24 21 19 17 14 14 14 15 15 15 14 15 17 19 19 19 19 19 18 18 20 21 23
5 6 2 3 11 14 5 10 12 6 8 8 13 7 8 10 7 15 22 38 40 36 34 30 24 22 23 20 15 14 14 14 13 14 15 14 15 16 18 18 18 17 16 15 15 15 17 18 20
4 3 2 6 10 1 13 19 9 6 8 8 9 10 10 9 12 14 17 24 38 38 33 30 24 17 22 18 16 14 13 14 14 14 14 14 15 16 16 16 15 14 13 12 12 12 15 16 18
9 2 7 9 14 3 6 11 10 5 3 4 9 5 11 10 7 7 14 28 28 32 28 24 26 25 17 18 17 14 12 13 13 15 15 15 15 14 13 12 11 10 9 9 9 11 12 12 13
19 3 7 10 11 2 2 6 9 4 3 6 5 4 6 15 12 19 22 22 27 24 21 27 28 15 17 17 15 14 13 13 14 16 17 16 14 12 11 7 7 6 7 8 9 12 10 10 11
19 1 8 6 4 3 2 2 3 8 11 6 6 7 17 15 12 23 27 23 17 22 18 21 23 18 17 17 16 14 14 15 18 17 15 14 10 10 10 11 9 9 10 8 10 12 9 5 10
5 2 6 3 5 4 7 18 4 1 16 10 14 15 13 22 28 26 37 29 31 31 30 23 20 18 16 15 15 17 18 19 20 16 13 9 8 7 10 9 8 11 6 6 8 6 8 8 7
13 8 5 4 4 7 1 2 5 3 7 11 16 9 19 23 39 34 27 35 29 25 28 24 23 20 16 17 22 17 16 16 18 13 13 10 9 9 5 3 6 4 5 1 2 2 4 3 5
4 20 10 15 17 8 7 8 6 6 9 29 28 17 18 21 25 37 33 35 31 28 27 27 24 19 20 22 21 20 19 17 17 14 14 11 11 7 7 5 5 3 3 3 4 6 9 10 11
7 4 16 15 23 4 4 3 6 18 16 24 19 20 17 22 25 28 28 29 30 30 30 28 24 19 19 19 24 17 16 14 12 10 9 8 6 2 6 11 9 11 7 9 11 12 12 10 9
5 9 24 18 24 16 9 6 4 6 9 19 23 23 23 22 27 31 29 28 23 26 34 31 27 24 24 26 20 18 16 12 8 6 6 7 4 8 8 10 10 7 6 9 10 10 10 14 17
8 5 2 14 26 9 15 4 6 8 22 20 18 22 24 22 31 32 28 25 19 21 34 28 27 26 23 22 22 19 19 11 3 6 4 7 3 0 2 4 7 6 5 6 10 14 16 17 15
4 3 1 3 20 13 7 5 12 20 23 21 25 20 20 24 25 26 22 21 19 18 30 26 25 27 22 19 20 24 22 3 7 6 6 3 3 5 4 2 3 5 8 12 13 15 13 14 20
2 3 3 3 14 6 6 5 17 22 17 10 19 19 24 24 23 20 18 21 18 17 20 22 23 23 20 18 21 25 14 6 4 1 5 6 6 4 0 2 7 9 10 11 13 15 18 23 25
3 1 7 9 7 8 2 5 16 29 28 20 15 12 20 24 24 20 20 23 24 22 24 22 24 23 19 19 24 23 11 4 4 9 7 5 3 3 4 6 7 9 12 15 16 19 22 22 21
7 6 6 7 9 7 8 9 16 24 29 32 27 14 24 26 24 22 19 19 24 25 25 22 21 21 20 20 25 19 12 12 11 7 5 5 4 5 8 8 12 15 17 19 21 22 21 21 21
7 11 11 6 6 4 5 7 10 25 21 35 28 25 23 21 22 24 22 18 27 29 21 22 20 15 18 16 19 13 16 15 9 8 9 9 7 6 9 12 15 16 18 20 19 19 21 17 16
1 2 5 5 3 1 5 2 4 7 16 28 36 25 32 31 32 31 29 22 24 27 24 18 20 17 19 20 18 20 18 16 14 11 10 8 7 8 13 15 17 18 21 21 22 21 18 17 16
5 2 3 2 2 2 5 2 4 4 4 8 28 34 35 37 34 31 27 27 20 22 21 15 15 22 24 22 22 25 24 22 18 14 12 10 10 13 17 20 19 20 20 20 21 20 19 20 22
5 5 1 3 1 4 4 2 5 3 4 3 6 24 32 44 37 32 27 25 23 19 16 9 25 21 22 29 25 23 22 21 22 22 16 9 11 15 19 20 19 18 19 18 15 15 16 18 16
6 3 3 4 3 1 4 5 4 7 20 5 7 10 13 40 34 29 25 23 23 20 18 21 24 29 30 25 26 25 27 28 24 19 13 11 15 18 16 15 16 17 16 15 14 15 17 19 20
1 4 3 4 5 3 15 0 9 16 12 10 15 23 13 29 31 28 29 26 24 24 24 28 31 28 28 26 27 26 24 21 18 14 14 17 16 13 14 15 16 15 14 15 15 16 20 21 22
3 6 4 5 1 5 7 5 5 15 25 26 29 25 17 28 29 28 27 28 29 28 29 27 27 27 28 28 27 24 21 18 16 15 15 14 11 11 13 14 14 15 12 13 17 19 19 14 15
4 2 6 6 3 2 5 6 5 9 5 11 17 22 24 27 26 26 28 28 27 28 27 24 25 26 27 26 25 23 21 17 14 13 11 10 10 11 11 13 14 14 14 14 14 18 16 15 14
3 3 4 3 5 4 4 3 3 5 7 10 11 18 29 27 27 30 31 29 28 28 25 25 25 26 24 23 18 18 14 12 12 10 9 10 10 11 13 14 15 16 14 10 12 15 14 15 17
1 2 3 3 5 4 1 4 3 5 5 9 17 31 35 34 34 34 32 30 30 28 24 26 25 25 25 23 18 16 12 12 10 9 10 11 13 13 16 15 16 15 11 12 13 16 21 19 16
4 6 5 5 4 2 4 5 3 7 5 9 12 30 37 38 38 36 35 34 33 31 28 27 28 27 27 25 19 16 12 12 11 10 12 13 15 18 20 18 18 11 15 18 20 22 16 12 13

GFSSGP_850_spd_024.txt.gz
Wind_Speed
5 5 7 3 3 5 3 8 4 5 0 5 11 18 9 8 4 2 16 22 37 38 35 33 30 28 25 23 21 20 19 18 18 19 20 22 21 21 20 20 22 23 25 26 27 27 24 22 20
4 5 4 2 4 3 5 5 5 2 5 10 13 10 10 5 4 13 28 22 39 36 34 32 32 29 26 24 22 20 18 18 19 20 21 21 20 21 22 22 22 24 26 26 27 26 25 20 18
4 6 2 4 4 5 6 3 1 2 9 5 6 12 6 5 13 21 14 29 37 38 37 34 32 30 27 24 22 20 19 18 20 21 20 20 20 22 22 22 22 23 24 23 22 23 23 21 17
3 4 3 3 6 5 5 6 2 3 9 8 13 7 9 6 4 14 18 34 38 37 35 34 32 30 26 23 21 19 18 19 19 20 19 19 21 22 22 21 21 21 20 20 19 20 20 20 18
4 2 1 3 3 1 5 8 4 6 5 14 9 6 8 12 4 12 24 33 37 37 36 34 30 29 26 22 20 18 17 19 19 20 19 18 21 22 21 20 20 18 17 17 17 17 17 19 16
1 1 1 3 3 3 5 6 3 2 7 7 10 8 6 11 16 17 23 29 34 37 38 36 34 32 28 21 19 18 16 17 18 19 18 19 21 21 20 18 17 16 15 13 14 14 13 14 13
2 2 2 3 3 3 2 10 1 6 4 4 5 4 7 13 14 21 25 28 34 27 37 33 37 41 27 17 12 12 15 16 18 19 19 19 19 19 17 16 14 12 11 11 12 10 8 10 10
4 3 3 3 5 1 3 4 3 0 6 8 4 5 6 21 23 18 19 15 17 27 34 30 36 34 31 22 18 15 15 16 19 19 19 19 18 16 13 12 11 11 9 10 11 8 7 5 4
8 1 2 4 2 3 4 6 8 5 13 9 5 9 26 25 24 24 25 27 25 20 8 18 35 22 20 20 19 18 17 19 20 20 19 18 17 15 14 14 13 10 9 9 6 4 4 1 5
4 3 5 3 3 1 4 3 3 3 10 11 24 30 30 29 27 18 20 26 29 27 34 32 31 24 22 20 20 19 20 21 20 17 16 16 14 16 14 12 9 8 7 7 3 2 1 0 2
4 5 4 2 6 9 5 1 2 11 1 10 27 27 32 31 25 18 18 29 28 33 33 30 25 23 23 22 22 22 23 22 21 18 14 13 12 12 11 9 5 6 5 4 3 2 2 2 6
3 11 11 9 12 9 6 5 2 9 5 21 26 29 33 32 14 17 26 28 30 26 25 25 25 24 24 22 22 22 22 20 17 17 14 11 10 7 6 9 9 4 4 5 6 7 7 10 11
6 4 16 15 14 8 11 3 6 9 24 29 24 26 27 22 23 25 29 31 27 27 24 24 24 23 25 22 21 22 22 19 16 15 13 13 11 8 9 11 10 7 4 8 11 13 14 11 10
18 14 11 11 14 7 6 8 5 13 22 20 25 23 27 27 32 32 28 26 24 25 26 27 25 27 25 22 20 20 19 18 15 12 12 12 12 10 10 12 12 9 7 9 11 11 11 13 14
3 9 5 5 12 4 8 3 7 23 17 18 21 24 29 26 35 32 27 26 26 26 28 29 25 26 22 23 19 19 19 16 10 9 12 11 12 13 10 8 7 6 5 7 9 11 13 14 15
2 5 5 9 5 6 7 2 3 23 25 21 21 24 30 32 33 28 24 21 25 30 32 28 29 27 24 26 22 20 18 12 5 4 5 8 8 7 6 5 4 3 7 10 13 15 16 16 19
5 2 4 3 13 2 1 4 5 20 26 23 24 26 26 32 31 31 28 26 25 33 34 33 30 28 26 27 25 23 21 9 3 3 7 8 7 7 7 6 4 7 10 12 14 17 19 22 22
4 2 3 2 7 7 4 2 5 22 22 16 20 22 27 36 37 33 30 25 24 30 34 33 32 30 27 25 26 27 24 14 7 6 8 9 9 8 5 5 6 9 12 17 19 20 21 20 20
4 9 6 5 10 5 8 7 10 19 19 21 19 16 30 39 38 30 30 31 29 30 33 31 30 31 30 31 30 28 26 20 13 11 11 11 8 5 6 8 11 15 20 21 20 19 19 19 19
2 10 8 11 8 5 8 6 9 12 20 29 26 22 27 34 37 37 34 36 34 30 30 30 30 31 30 26 25 27 26 20 13 13 11 9 9 10 8 9 14 18 19 19 19 19 20 18 16
6 6 4 3 4 7 6 4 4 7 8 17 24 33 33 38 38 35 36 36 36 34 31 30 29 26 26 24 26 27 21 19 19 17 14 14 15 12 10 14 19 20 19 19 19 20 18 16 16
5 9 3 4 4 1 2 2 7 10 12 11 25 32 33 41 40 36 33 35 38 38 30 25 25 27 27 26 29 31 28 28 25 19 19 19 16 12 13 18 20 17 19 18 18 17 16 16 15
7 2 3 2 4 2 5 3 6 5 11 14 23 32 42 42 42 41 39 36 32 31 29 21 25 26 26 29 30 26 26 23 23 24 21 17 14 13 16 18 17 18 17 17 16 14 13 14 16
5 4 7 4 3 3 5 4 5 5 11 16 20 34 40 40 36 40 35 28 27 24 23 19 22 28 31 30 29 28 27 28 29 26 21 16 15 17 18 18 16 15 16 16 15 13 13 15 19
4 5 3 4 4 5 3 3 8 8 10 8 14 20 36 38 36 40 34 30 28 27 22 17 22 29 29 28 27 27 30 31 27 24 20 19 19 17 14 14 14 14 15 14 13 14 15 18 15
6 7 5 3 3 3 3 6 6 5 16 21 18 15 23 33 39 39 35 32 31 27 27 24 25 26 25 28 28 26 25 23 22 21 19 17 14 13 12 15 14 15 15 14 15 16 15 18 15
7 2 4 7 3 2 4 6 7 5 4 6 8 13 20 30 38 38 35 35 28 27 29 26 25 28 30 27 25 24 24 23 21 19 17 13 11 12 14 12 14 16 16 16 14 15 15 17 18
7 3 2 3 4 3 4 5 4 2 1 3 5 15 23 30 34 36 36 30 28 28 27 27 27 30 29 26 23 22 22 21 18 16 14 13 13 11 13 14 17 16 17 15 13 14 16 17 21
1 2 1 4 4 4 1 5 5 6 6 8 13 22 27 36 38 37 35 33 30 30 28 28 30 30 31 30 28 26 24 22 18 18 16 12 11 16 15 16 18 18 19 17 15 16 18 21 20
4 7 6 5 4 0 4 5 4 8 7 11 17 21 28 37 38 37 35 33 32 32 31 32 32 32 31 31 30 26 24 23 20 18 15 12 13 13 15 19 20 20 20 16 16 21 23 21 18

GFSSGP_850_spd_030.txt.gz
Wind_Speed
3 1 4 3 4 5 3 6 3 5 2 8 10 7 6 11 3 2 2 25 31 36 36 32 29 28 27 25 24 22 21 20 22 24 24 24 26 28 30 29 27 26 26 24 22 21 20 20 19
1 4 5 4 4 2 5 4 3 2 4 0 6 6 7 5 7 3 11 18 29 32 34 32 29 28 28 27 26 24 23 23 25 26 25 26 29 30 30 29 27 25 23 22 21 20 18 16 16
4 5 2 4 4 5 4 3 2 1 3 2 4 9 5 4 6 6 10 18 27 30 31 30 30 30 29 28 25 23 23 25 26 26 26 28 30 31 30 29 27 24 23 21 20 18 16 15 15
5 2 3 4 4 5 5 6 4 2 0 2 8 5 7 6 1 6 18 17 26 29 31 31 28 29 28 26 25 23 25 26 27 26 27 29 30 30 29 27 26 24 21 19 19 17 15 14 15
6 2 3 2 4 4 4 4 4 3 2 3 2 4 5 6 7 10 14 19 26 27 31 31 29 30 26 24 24 23 26 26 26 26 27 29 30 29 26 25 23 22 21 17 17 17 16 14 14
2 2 4 1 3 5 3 1 1 3 2 5 7 5 4 9 5 8 13 21 25 28 30 27 29 25 26 24 22 23 25 25 24 25 26 28 28 26 24 22 20 18 16 15 11 11 13 12 13
5 3 2 2 3 5 1 1 1 5 3 5 6 4 6 9 9 9 15 19 23 28 23 29 31 32 28 23 21 23 23 23 23 24 26 26 26 24 21 18 16 14 12 11 9 7 8 8 9
3 4 1 3 3 5 2 1 3 4 4 6 6 6 5 14 12 9 14 18 15 23 22 21 30 38 29 24 22 22 21 23 22 23 24 25 24 22 19 16 13 11 9 7 6 4 4 5 7
3 4 2 4 2 4 1 2 3 4 9 7 2 9 21 20 9 12 20 22 19 18 21 30 42 34 24 22 21 20 18 16 20 23 24 24 22 19 16 14 11 7 4 3 3 4 3 5 7
3 3 6 5 2 2 2 1 5 4 5 7 15 18 24 17 22 22 26 27 27 26 28 40 41 30 27 25 23 15 15 20 23 23 22 21 19 17 15 12 9 6 3 2 2 3 3 5 7
4 4 5 8 7 3 1 2 2 13 2 5 18 22 20 18 18 21 23 22 24 19 16 22 35 32 30 24 19 18 20 22 22 22 20 19 17 15 12 9 7 5 5 2 1 2 3 6 8
3 12 10 3 7 5 3 5 5 4 0 13 19 27 22 19 19 18 18 22 17 22 40 50 43 33 24 16 17 19 21 23 23 21 18 16 15 12 11 8 7 7 5 3 3 4 5 7 9
4 4 4 7 8 5 8 7 7 6 17 20 21 20 19 19 17 15 15 19 25 45 37 34 31 29 25 24 22 21 23 22 20 18 16 14 11 10 11 9 9 7 5 5 7 7 6 8 9
4 5 3 5 8 5 11 6 4 5 16 21 20 18 17 16 14 20 23 36 40 37 31 29 27 24 21 21 21 23 21 20 19 15 14 12 11 10 9 8 9 9 8 7 5 5 7 10 12
4 3 3 3 5 3 15 2 4 19 22 23 22 18 20 18 16 23 30 35 31 28 27 25 23 22 22 21 22 24 20 16 15 15 11 10 11 11 10 11 11 10 8 5 5 7 10 13 15
2 3 2 4 1 4 4 1 6 23 22 22 20 22 22 23 20 21 28 28 27 23 21 21 21 22 23 23 22 20 19 17 15 13 12 13 13 13 13 13 11 9 5 4 7 9 11 13 14
6 1 3 2 8 4 3 3 12 24 20 18 23 22 24 22 23 25 29 29 27 24 22 21 21 23 25 24 21 18 18 18 16 13 12 13 14 15 14 11 9 7 5 5 8 11 12 13 14
1 3 3 2 3 3 1 3 8 25 21 24 25 25 26 25 27 28 31 30 29 26 25 23 24 25 26 23 21 21 21 20 17 14 11 14 15 13 12 11 9 7 6 7 9 11 14 15 15
2 1 3 4 5 6 9 5 9 19 18 18 25 27 28 29 25 28 29 30 30 29 28 28 27 26 26 25 25 26 26 22 20 16 10 12 13 13 14 12 9 7 6 7 10 14 16 16 16
3 2 6 4 4 6 2 4 4 11 14 26 29 30 30 30 27 30 32 32 32 31 32 32 31 30 30 29 28 27 25 23 20 17 14 13 15 16 14 11 10 9 8 10 14 17 20 20 18
4 3 5 5 3 4 3 4 3 4 8 17 25 30 30 30 30 30 34 35 34 35 35 36 36 33 33 32 30 29 29 25 24 22 19 19 18 15 13 12 12 9 9 13 17 20 22 20 19
3 3 4 4 3 3 1 3 4 5 9 6 20 26 32 34 32 33 34 36 35 35 33 33 32 32 31 30 31 32 32 31 30 25 22 20 18 17 16 14 12 10 11 15 20 26 25 20 17
8 4 1 1 4 3 3 4 5 2 8 15 20 31 34 35 38 38 38 38 36 34 32 32 33 30 32 31 31 32 33 32 28 24 24 23 20 18 17 17 13 10 11 18 30 32 23 18 14
1 2 5 4 3 2 2 3 5 5 13 19 24 29 42 38 36 39 40 40 39 37 35 35 23 34 35 33 33 36 36 33 27 28 26 24 21 20 20 16 13 13 18 24 30 21 19 17 15
3 5 3 4 4 4 1 1 8 8 6 7 12 25 38 40 38 36 39 42 43 41 40 39 36 35 37 37 30 34 34 31 26 26 26 26 24 24 22 19 18 18 19 25 18 17 17 16 14
2 6 5 2 1 3 2 4 6 4 10 15 17 21 20 33 42 39 41 41 41 41 39 40 34 36 35 33 30 32 34 28 27 27 26 27 27 27 25 23 19 20 30 19 15 16 14 14 12
3 2 5 6 3 2 4 7 9 3 5 8 9 8 12 20 26 34 41 39 39 39 36 35 33 25 23 24 21 24 31 25 26 29 30 31 29 27 26 20 19 27 18 13 12 12 13 12 11
2 7 3 3 2 3 4 4 5 8 6 5 6 9 4 10 20 25 35 37 36 35 35 31 24 25 21 21 23 27 25 26 27 28 31 33 31 29 23 19 18 12 10 8 8 12 13 10 9
2 1 5 5 4 4 1 5 7 6 5 4 8 9 7 9 12 17 21 24 31 30 31 30 27 23 21 26 25 24 25 28 28 29 31 31 30 27 21 17 10 9 7 6 17 15 11 11 10
4 7 6 4 4 1 3 6 5 8 7 7 7 7 7 6 9 15 16 19 22 25 30 33 29 26 23 25 27 27 26 28 28 26 29 30 28 24 19 13 11 8 6 10 15 11 11 11 12

GFSSGP_850_spd_033.txt.gz
Wind_Speed
2 1 4 3 2 1 3 3 2 3 2 3 2 4 10 7 2 2 1 21 29 34 33 30 29 30 30 29 28 26 24 24 25 25 26 26 27 27 27 26 27 25 24 23 22 21 19 19 18
0 4 4 2 2 3 3 2 3 2 2 1 1 6 4 6 3 2 9 19 31 35 33 31 29 28 28 27 25 23 23 26 29 28 28 29 29 28 27 26 24 24 23 22 20 19 18 16 16
3 5 2 2 2 4 1 3 1 2 1 2 1 8 4 3 7 2 8 18 31 34 33 30 30 29 28 26 24 24 26 27 29 30 31 32 29 27 27 25 23 23 21 21 20 18 17 16 15
4 1 4 1 4 3 4 2 3 3 2 4 7 7 6 7 2 6 15 18 29 32 32 32 30 29 28 26 25 25 27 29 29 31 33 32 29 28 26 25 24 22 21 20 19 17 17 17 16
3 1 2 1 3 4 4 3 2 0 2 4 1 4 4 6 8 14 16 21 25 30 31 30 29 30 28 27 27 27 29 29 30 32 33 32 30 27 25 23 22 21 20 19 18 17 16 15 15
2 2 1 1 4 3 5 1 2 2 3 4 5 7 4 7 7 14 15 18 22 27 29 28 28 31 30 26 25 27 28 28 30 32 32 32 31 27 23 21 19 18 17 17 15 13 14 13 12
2 1 1 3 4 5 3 1 1 3 3 4 5 5 5 8 10 9 11 19 22 25 25 26 30 29 30 27 22 27 27 27 29 31 31 31 29 25 23 20 17 14 13 12 12 11 10 10 9
1 1 1 2 2 3 4 3 6 5 2 3 3 5 6 13 12 12 12 14 18 20 25 30 33 30 32 30 21 24 26 26 28 30 30 29 26 23 20 17 15 13 10 10 9 8 7 7 7
1 1 2 2 2 3 3 1 3 4 6 3 3 5 12 17 12 11 11 10 13 17 24 34 38 40 33 27 26 22 22 24 27 29 28 27 24 20 17 14 11 9 9 7 6 5 5 5 7
2 1 3 4 1 1 1 1 5 4 4 4 10 13 20 18 13 11 18 18 22 24 30 40 44 43 34 24 26 24 22 23 26 28 27 24 22 18 15 12 9 7 6 4 4 4 3 4 7
4 5 4 5 7 3 1 3 3 7 3 9 19 26 25 21 19 21 21 23 24 34 45 48 49 46 38 28 26 25 17 20 24 24 23 22 19 16 13 11 9 6 4 2 2 2 4 6 8
3 8 7 3 3 3 3 5 3 1 4 1 18 22 22 20 18 23 25 25 32 36 35 41 44 46 35 28 27 13 15 22 24 22 20 18 16 15 13 10 8 6 3 1 1 3 6 8 10
5 6 5 5 5 3 6 3 3 6 8 12 16 19 17 17 16 17 19 18 26 35 43 35 42 41 32 24 25 24 24 23 22 20 18 17 15 13 11 9 8 7 4 3 4 6 7 8 10
3 3 2 3 7 4 6 3 3 6 11 12 16 17 16 16 15 15 16 13 29 34 38 38 40 30 24 19 20 19 22 22 21 20 17 15 14 11 10 9 9 8 5 5 6 6 6 8 12
2 2 3 4 4 3 7 3 3 11 14 12 15 13 17 15 13 19 22 33 38 40 38 35 31 25 22 19 18 21 23 22 19 18 16 15 13 12 10 10 9 7 7 7 6 5 7 11 14
1 3 2 2 3 1 1 0 2 10 14 13 16 15 18 17 20 23 28 39 35 33 29 26 23 20 20 18 19 21 21 20 18 18 17 15 12 11 11 10 10 10 8 7 4 5 9 11 12
6 1 0 2 11 6 3 2 9 12 13 13 11 19 18 18 18 24 28 37 34 29 27 24 22 21 20 19 19 20 19 18 17 18 14 12 12 12 13 13 11 10 10 7 5 7 9 10 11
2 1 2 2 5 3 6 3 12 17 16 18 16 15 18 21 22 22 28 31 31 27 24 22 21 21 20 20 20 21 21 20 21 18 13 14 14 14 15 12 13 13 11 7 7 7 8 8 9
3 2 2 3 1 4 7 7 14 20 16 15 16 17 19 23 21 22 26 32 33 31 28 25 24 24 25 27 27 26 24 26 25 20 17 14 14 14 15 16 15 13 9 9 7 7 7 10 12
2 2 2 2 3 5 4 5 7 18 23 21 18 19 23 22 22 23 26 31 34 33 33 31 29 26 27 29 28 27 26 25 22 20 20 17 16 16 18 18 15 13 12 9 6 7 11 15 17
5 2 2 4 1 2 1 6 5 9 16 17 19 21 23 24 25 26 27 30 32 35 35 33 29 29 29 29 28 29 26 27 25 26 23 21 18 19 20 19 17 15 11 7 5 10 18 20 21
2 4 1 1 2 1 4 2 2 5 13 14 22 23 30 30 31 29 30 31 33 33 33 32 31 31 32 32 32 32 32 30 30 26 25 23 23 22 22 21 17 14 11 6 9 17 22 19 17
4 2 2 1 2 2 2 1 1 3 11 19 24 27 32 34 34 34 36 35 34 33 32 31 32 33 33 33 34 32 33 33 30 28 27 26 25 24 23 20 18 16 13 12 17 15 15 21 16
3 2 4 3 2 2 2 2 3 4 6 8 27 28 35 37 36 36 35 34 37 36 35 34 35 34 35 36 33 35 34 33 33 31 29 28 28 26 22 22 20 17 16 16 12 24 25 12 17
3 2 2 1 1 2 3 2 7 6 9 9 12 23 35 42 41 38 37 36 37 37 38 36 34 26 21 25 34 35 35 34 35 32 28 30 30 29 26 24 23 20 17 13 19 18 11 13 12
4 5 4 3 3 2 2 4 3 4 7 13 16 19 17 27 38 45 44 40 39 39 37 35 34 34 20 24 34 38 36 36 34 33 28 29 29 29 29 25 22 19 13 16 7 15 10 11 14
4 3 2 6 1 2 1 4 8 2 3 3 0 5 11 15 23 29 37 43 40 37 36 36 36 36 30 24 23 32 33 34 29 30 30 29 31 30 29 26 22 19 15 12 16 9 8 18 17
2 7 2 1 2 2 2 3 4 4 3 5 6 5 5 5 10 17 22 31 36 35 33 31 32 30 30 25 22 24 27 24 27 31 29 30 30 32 31 27 23 18 14 11 11 8 19 15 13
3 3 3 3 2 3 2 4 6 6 3 4 6 6 4 4 5 9 14 16 20 24 25 25 25 26 25 25 22 19 20 22 27 28 30 30 32 34 31 27 23 17 17 18 10 11 15 13 12
3 5 5 3 4 0 0 5 4 8 6 7 11 6 3 3 4 5 7 9 11 15 18 21 23 23 22 17 18 20 21 24 25 24 25 27 27 33 30 25 20 17 14 11 6 7 11 13 12

GFSSGP_850_spd_036.txt.gz
Wind_Speed
3 2 3 4 7 6 11 7 4 2 5 2 2 6 4 9 2 1 1 19 25 28 30 33 31 31 32 32 30 27 24 22 24 25 25 25 25 25 26 27 26 24 23 23 22 21 20 19 19
1 2 3 4 8 9 10 3 7 3 4 1 1 3 4 5 3 5 6 18 23 30 29 32 33 33 32 31 29 27 25 26 28 27 27 27 27 27 28 27 25 24 24 23 21 19 19 18 18
2 4 9 4 7 10 1 3 3 3 3 5 2 4 4 5 3 3 6 14 24 29 26 30 35 34 32 30 29 28 28 29 28 28 28 28 28 28 27 26 24 23 23 21 19 18 18 18 18
1 3 5 9 9 4 7 4 6 4 3 3 4 10 7 3 4 1 10 15 29 30 28 33 34 33 32 31 30 29 31 31 29 30 29 29 28 28 26 25 23 22 21 20 19 18 19 17 17
2 5 7 6 5 3 4 5 5 3 2 2 4 7 8 4 7 11 14 21 33 30 30 33 33 33 32 31 29 30 31 30 30 31 31 29 29 27 26 24 23 21 20 20 18 18 17 16 15
6 4 7 4 3 1 4 4 4 2 1 3 3 5 4 4 12 12 16 20 25 29 26 32 30 32 31 29 28 30 31 31 33 32 31 30 28 25 24 23 21 20 18 17 17 16 14 12 12
8 6 4 2 2 4 5 4 3 3 2 4 1 2 4 6 9 13 14 16 22 23 28 32 32 30 27 27 27 32 30 31 34 32 31 29 26 25 23 21 19 17 15 14 12 12 10 10 11
5 4 2 1 6 7 6 1 1 2 3 2 2 4 5 10 11 10 10 13 19 22 26 33 35 35 35 30 27 28 29 30 33 32 30 28 25 22 20 17 16 14 13 12 10 9 9 8 8
4 5 1 2 6 9 3 3 1 1 3 2 1 1 8 15 12 10 9 10 11 23 25 35 36 34 37 38 26 24 26 27 30 31 28 26 22 19 17 15 14 12 10 10 9 8 6 6 7
7 4 2 3 6 8 4 4 3 4 5 3 6 9 15 15 10 10 10 12 16 24 34 41 40 40 42 35 36 24 23 27 30 31 28 19 20 18 16 15 11 9 8 9 7 5 4 6 5
1 4 5 5 6 8 5 3 2 2 5 1 10 16 16 13 11 12 13 14 19 25 37 38 40 46 44 38 36 27 27 29 30 30 26 22 21 17 15 14 11 8 8 8 5 3 2 2 4
7 6 8 8 5 4 3 3 2 4 5 1 16 18 17 15 14 14 16 19 29 32 36 44 44 45 42 37 30 28 27 24 22 21 24 22 18 16 13 11 10 9 8 5 2 0 2 4 6
8 8 9 7 4 1 1 2 3 5 10 14 15 15 16 14 15 16 18 20 29 31 35 38 36 33 37 38 34 34 28 23 24 28 22 17 16 15 13 12 10 9 7 3 2 2 1 5 8
4 7 3 3 2 2 2 2 3 8 11 12 11 10 10 13 17 19 22 24 27 33 41 40 43 42 39 39 34 32 21 24 26 20 17 19 15 14 13 10 9 9 7 5 3 3 2 3 8
4 5 4 5 1 1 4 6 7 14 12 13 13 12 9 9 14 16 17 19 24 29 28 36 42 32 34 24 19 18 19 23 18 16 19 17 16 14 12 11 10 9 8 8 6 2 3 7 9
5 8 4 13 6 3 8 8 10 14 14 13 12 13 11 9 12 14 16 21 26 24 29 34 27 22 20 20 24 21 20 23 17 20 20 17 17 15 13 12 11 11 10 8 6 5 3 4 3
6 2 2 10 9 2 10 4 13 14 14 14 13 14 13 11 12 15 22 24 27 28 29 32 24 18 17 16 17 19 21 22 19 21 19 17 16 13 16 13 13 12 11 11 9 3 2 3 3
4 2 6 6 11 10 8 5 12 16 15 15 13 16 15 16 17 19 22 26 26 25 26 25 23 21 18 17 19 17 20 20 21 21 20 18 16 15 16 16 15 15 14 11 7 5 6 6 8
3 3 4 2 4 7 10 10 10 16 16 16 16 16 17 17 18 20 22 25 25 24 23 23 22 20 21 18 18 17 20 19 22 21 21 20 17 16 18 19 17 17 13 12 11 8 6 7 10
6 5 5 2 1 6 4 7 7 15 18 17 17 19 19 18 19 21 24 27 30 28 26 24 24 22 21 18 18 19 19 19 20 23 23 22 18 18 20 19 18 18 17 16 12 9 6 4 7
8 8 3 6 2 5 5 6 8 11 14 15 17 16 18 20 21 22 25 28 29 30 29 28 25 22 21 21 19 19 18 24 25 26 25 25 22 22 21 21 22 21 19 17 14 12 9 6 8
9 5 3 4 6 3 3 3 7 9 13 16 20 21 22 22 22 23 24 27 29 30 29 28 26 25 24 24 22 24 23 23 27 30 25 28 26 25 25 24 24 22 20 19 17 14 8 11 7
5 4 1 3 4 4 5 7 8 5 10 16 23 25 25 26 26 27 28 27 26 27 29 29 28 27 27 26 26 27 28 24 25 26 28 28 28 28 28 26 25 23 22 22 20 12 9 11 14
7 5 2 3 3 6 4 5 3 8 6 5 14 25 27 28 28 28 27 25 26 27 28 30 30 26 23 23 29 29 31 30 32 27 28 31 30 30 30 27 25 25 25 23 18 13 13 9 9
9 8 6 7 6 7 3 6 10 3 4 7 9 11 25 30 28 28 27 29 29 30 29 30 28 27 27 28 24 34 36 32 34 34 34 33 34 31 29 29 30 29 27 23 18 15 12 14 12
13 11 5 4 5 3 3 5 1 2 6 10 12 14 12 18 28 31 31 30 29 29 29 31 34 34 32 26 31 32 33 33 35 30 33 34 33 29 28 32 32 30 25 22 19 15 14 12 13
7 9 2 1 2 4 5 6 11 3 3 3 4 4 10 14 18 24 28 30 27 27 30 30 31 33 34 23 14 32 32 27 27 31 31 33 31 32 31 32 33 29 26 23 20 16 11 11 12
5 10 6 4 6 7 5 6 4 4 2 0 2 2 2 4 6 11 15 19 25 26 25 24 25 27 30 34 25 25 22 21 22 27 30 31 33 33 33 30 31 32 27 24 18 14 11 10 10
6 7 3 2 3 5 5 5 3 6 3 5 2 4 5 3 1 4 7 11 15 18 20 21 22 22 24 26 34 29 23 20 22 26 25 25 29 31 30 31 32 32 29 22 20 11 10 7 10
9 10 13 7 7 3 3 7 6 8 5 8 6 5 5 5 3 2 5 8 10 13 15 16 17 20 21 22 21 19 19 19 23 23 23 27 29 29 30 31 33 32 24 22 16 14 11 10 13

GFSSGP_850_spd_039.txt.gz
Wind_Speed
3 5 6 10 8 8 17 18 6 4 8 7 8 8 10 5 3 1 13 10 19 25 27 28 26 27 32 32 29 26 22 20 17 19 20 22 23 24 25 25 25 24 23 23 22 21 21 21 22
3 7 8 15 8 13 12 17 4 12 10 13 1 9 4 9 11 5 4 16 20 28 28 28 27 28 32 31 30 27 24 21 22 23 22 24 25 26 26 25 24 24 23 21 20 21 20 20 20
3 8 15 11 12 14 7 8 3 6 1 7 1 1 5 8 7 7 7 16 20 29 27 28 29 28 31 31 29 27 24 23 25 25 24 26 28 28 26 24 24 24 22 20 20 20 20 19 18
6 12 12 9 16 10 8 7 7 8 3 6 9 8 6 4 2 7 13 12 18 30 34 32 32 31 32 31 30 25 23 26 27 27 28 29 29 27 26 25 24 23 21 20 20 19 18 17 17
7 12 10 13 11 6 5 5 4 10 8 3 7 7 14 1 4 10 13 18 17 29 34 33 34 33 33 31 27 25 27 29 29 30 30 30 28 26 25 24 24 23 21 20 19 17 16 15 16
16 5 12 9 6 3 3 4 8 3 0 3 13 5 9 2 5 9 13 15 17 26 33 33 34 34 32 29 27 27 29 29 30 31 31 30 28 26 24 23 22 21 20 18 16 15 13 13 14
13 8 12 5 1 10 4 4 6 9 2 6 8 4 1 4 8 7 10 15 22 21 25 37 28 30 30 29 28 28 30 32 32 32 31 29 27 25 23 22 20 19 17 15 14 11 11 10 12
11 7 8 4 7 2 9 2 3 5 9 5 4 3 5 9 7 6 7 9 19 18 27 39 32 29 29 28 29 30 30 31 32 30 28 28 26 23 22 20 18 16 14 12 10 9 8 9 10
7 10 4 1 4 7 4 4 4 1 3 2 7 8 8 14 8 6 7 6 14 16 28 36 37 36 34 34 25 26 28 30 29 29 26 25 23 18 17 17 16 14 12 10 9 8 8 7 8
11 10 4 6 7 9 6 8 8 4 4 6 6 7 9 12 8 7 8 8 18 22 30 34 36 37 38 37 35 30 27 28 30 29 24 18 16 13 15 16 14 12 10 9 8 7 9 11 8
4 10 6 5 7 11 12 4 0 4 5 18 8 9 10 9 6 6 8 11 17 25 30 38 38 36 39 38 35 33 31 27 31 27 22 24 21 16 14 14 13 12 9 9 8 8 5 5 4
8 5 7 10 8 10 6 6 2 5 5 6 8 11 11 9 8 6 8 14 18 23 25 34 40 46 44 42 35 34 30 32 31 30 24 18 18 13 12 8 10 12 9 9 7 5 2 1 4
8 8 9 7 5 5 3 3 2 8 8 9 11 10 9 11 13 11 11 14 20 28 30 34 39 44 43 40 31 31 35 27 27 22 17 12 15 12 11 12 10 10 10 9 7 3 4 2 3
5 7 4 2 3 4 7 5 10 11 11 11 8 8 7 12 12 13 14 19 25 29 27 31 32 33 34 38 37 29 20 22 25 22 17 18 12 14 13 13 12 9 9 7 6 5 4 3 1
9 11 10 2 4 6 6 12 11 14 12 12 13 13 12 6 10 11 14 16 21 27 26 32 29 29 33 35 33 27 25 21 27 18 22 17 14 18 12 11 11 11 10 11 12 9 6 2 0
13 13 15 2 8 7 18 12 16 15 11 10 16 17 14 11 11 12 17 15 22 26 21 29 29 32 24 29 23 19 18 25 21 17 19 19 17 16 15 12 11 12 10 9 8 8 5 4 3
11 6 14 3 12 7 10 14 17 16 11 12 12 11 12 12 12 13 17 19 23 21 23 28 27 29 30 20 19 14 16 18 17 18 18 19 16 15 14 11 12 14 10 10 10 8 7 5 3
10 8 3 9 15 9 10 8 13 16 15 13 14 15 15 14 15 17 20 22 21 24 30 29 26 28 24 22 18 15 17 18 19 20 19 18 16 17 15 12 15 13 11 10 10 9 7 6 5
9 6 4 6 7 9 6 12 6 15 14 16 17 16 18 18 18 20 21 23 25 25 31 29 22 18 19 19 19 17 16 17 24 19 19 17 14 16 17 14 16 14 12 12 14 11 8 6 7
12 11 11 2 4 7 10 12 11 16 16 17 17 16 18 18 20 22 24 26 26 26 27 27 25 22 22 18 17 17 17 18 17 16 16 16 17 17 17 16 15 15 14 17 14 12 8 6 9
15 15 8 7 4 10 11 14 9 14 17 16 17 19 19 21 23 25 27 29 29 29 29 27 25 24 23 18 17 17 17 19 20 20 18 18 20 19 18 18 17 16 18 16 16 15 12 7 9
16 14 5 7 9 5 10 3 15 14 14 16 20 20 22 22 23 26 28 30 31 31 29 27 25 24 24 21 22 21 21 19 20 20 20 19 25 23 22 23 19 21 17 16 17 16 13 13 7
9 5 7 9 10 5 12 8 11 8 13 14 19 24 24 23 25 26 28 29 30 30 32 31 28 26 24 24 25 22 23 20 19 19 20 19 28 27 27 24 22 23 21 22 19 17 17 16 13
11 7 12 10 11 8 12 9 9 9 10 15 21 23 26 27 27 26 27 27 28 29 31 33 30 29 27 26 26 24 20 24 21 18 22 23 24 25 28 27 27 29 27 24 23 23 20 15 14
10 13 11 10 8 9 5 4 10 2 5 2 5 15 27 28 29 29 29 29 29 30 31 31 30 30 29 29 28 29 22 27 27 31 35 33 26 26 29 32 30 29 27 26 22 24 21 19 16
17 17 10 5 7 5 4 6 6 3 7 5 9 11 13 28 31 31 31 31 30 29 30 30 30 32 33 31 27 25 22 33 33 39 40 38 27 31 29 28 26 28 27 24 28 22 23 20 16
14 17 16 9 7 7 6 7 8 6 5 4 2 5 10 17 22 31 31 31 30 30 31 33 30 31 34 38 31 24 17 32 36 39 36 30 35 30 26 27 27 27 29 31 27 27 23 19 17
13 10 11 8 7 11 13 11 2 7 5 4 4 2 3 4 11 17 23 30 32 30 29 30 30 30 34 35 32 33 30 28 32 31 28 32 30 28 28 29 30 30 31 31 29 24 22 16 9
12 13 9 7 11 6 10 5 4 3 4 3 4 3 0 2 3 6 11 18 21 25 27 28 28 28 29 26 34 37 30 25 21 22 27 30 22 22 27 30 31 32 31 29 27 25 15 11 12
12 21 18 9 13 7 8 12 13 9 8 4 11 5 3 2 2 5 8 10 13 17 21 23 23 26 25 32 28 31 24 22 23 21 25 27 24 22 22 28 29 29 24 22 28 21 13 17 15

GFSSGP_850_spd_042.txt.gz
Wind_Speed
5 6 7 11 7 8 16 20 22 21 2 8 19 13 18 28 12 3 12 12 16 7 18 24 27 32 31 28 27 25 22 20 16 18 21 23 25 26 26 26 26 26 24 24 24 25 24 25 25
7 7 11 16 10 13 13 13 17 6 7 9 9 8 8 5 15 5 8 11 17 20 22 25 25 28 31 28 26 25 22 20 18 22 24 26 27 27 26 26 25 25 25 24 23 23 24 24 26
7 5 12 11 13 14 12 9 13 11 5 4 2 19 7 5 13 1 9 11 22 17 23 23 24 25 29 28 26 23 21 20 22 24 26 28 28 27 26 25 25 24 24 24 22 22 22 23 24
8 14 14 10 14 18 14 1 6 13 22 24 20 9 16 5 7 8 8 5 24 24 24 24 26 26 26 26 25 24 21 21 24 26 28 30 29 27 27 26 24 23 23 23 21 20 20 21 23
11 14 11 15 20 17 8 20 6 10 4 5 29 5 8 7 2 3 5 15 15 20 12 23 23 25 24 26 25 24 23 25 27 28 30 30 29 28 27 26 24 23 22 21 19 19 19 19 20
17 21 12 10 13 18 17 31 23 8 11 18 16 13 13 7 2 5 4 8 12 22 19 28 28 26 32 31 27 24 25 26 27 30 31 30 28 27 26 24 23 22 21 19 18 17 17 17 18
14 12 15 16 6 11 4 20 21 10 15 14 27 17 10 13 6 7 5 8 9 23 23 30 24 31 31 28 26 26 27 27 30 31 30 29 27 26 25 23 22 20 19 17 15 15 14 15 17
15 12 20 10 3 2 10 20 19 11 6 4 8 7 10 7 8 6 4 7 14 17 32 29 19 21 24 26 26 26 28 28 29 29 28 27 26 24 23 22 20 18 16 14 13 13 12 12 16
15 12 11 14 3 6 10 2 13 15 7 18 11 13 10 9 8 6 7 5 8 14 16 19 31 27 25 25 28 28 27 27 29 28 26 25 24 23 21 20 18 15 14 12 11 11 11 15 15
11 12 14 8 10 10 15 10 15 11 3 16 13 8 8 9 7 7 10 11 20 27 24 34 34 30 32 32 31 31 31 30 28 28 26 23 21 18 18 17 15 13 11 11 10 14 13 10 12
17 13 10 12 8 11 16 11 27 9 10 15 13 4 9 6 4 6 9 14 18 32 31 33 32 33 36 35 34 35 32 33 30 27 24 20 18 14 16 13 11 11 9 9 12 10 9 6 7
6 16 9 11 15 11 14 3 15 18 13 15 9 7 8 8 5 6 8 8 16 25 36 37 36 38 35 36 34 32 32 33 33 29 23 19 16 13 10 8 11 12 9 8 8 7 6 6 2
11 14 12 12 8 11 12 10 14 16 17 17 11 11 9 10 12 7 10 14 13 21 28 36 38 36 40 40 35 36 39 32 31 27 20 13 12 10 11 9 8 9 8 8 11 6 5 3 2
9 11 15 10 12 9 3 17 31 12 10 15 12 10 9 13 7 8 12 16 16 21 25 27 34 40 42 40 40 35 36 33 29 22 19 13 11 10 11 12 8 11 13 8 6 5 5 5 3
14 15 15 16 10 1 13 9 6 22 4 15 14 12 12 11 9 7 10 15 18 19 21 29 36 33 38 36 36 37 30 32 31 26 14 14 14 13 12 15 15 13 11 11 12 11 11 7 4
15 18 16 10 15 9 13 4 11 17 25 19 18 18 13 12 14 12 12 16 16 19 20 28 27 35 35 34 33 37 32 30 27 23 16 20 20 14 16 13 15 15 16 17 15 11 7 8 6
16 15 15 7 2 8 6 3 17 17 14 21 20 14 14 16 15 13 11 19 22 20 27 29 30 27 33 34 22 30 23 26 28 22 18 22 21 15 17 17 14 18 17 12 11 13 9 9 8
7 12 11 7 6 10 16 12 11 28 14 14 16 15 15 16 20 14 19 20 21 17 26 26 30 30 38 31 22 19 21 24 26 19 20 25 20 18 19 16 19 21 15 16 16 14 15 12 9
15 9 21 7 6 11 19 22 22 28 22 18 17 22 19 19 18 20 23 18 23 20 26 32 29 25 24 21 25 23 24 23 32 24 22 19 18 21 21 20 23 20 17 17 15 19 18 15 15
14 13 18 5 11 5 9 11 20 18 22 22 21 23 24 23 26 26 27 24 25 31 32 32 30 30 33 25 24 23 26 24 25 29 24 23 19 21 21 20 23 19 19 20 22 20 16 12 14
14 16 16 13 6 9 10 12 4 15 19 22 25 24 27 30 32 30 31 33 31 28 33 32 28 24 24 23 19 23 20 17 22 17 21 22 21 22 23 20 24 22 19 23 25 21 18 13 16
15 14 13 10 13 9 5 11 7 18 15 15 19 22 22 27 33 35 33 34 35 35 31 30 30 29 29 26 28 28 26 27 26 22 20 19 20 24 24 22 24 24 22 25 26 21 20 20 16
13 1 10 13 13 14 14 7 5 10 13 18 17 23 25 26 30 38 39 39 37 38 37 33 31 32 31 29 30 28 26 25 25 27 27 24 24 27 27 27 29 27 26 25 24 23 20 23 20
9 10 14 11 11 11 15 11 6 2 6 9 20 27 25 27 30 31 38 38 40 37 40 40 36 35 36 27 26 24 27 25 23 21 23 27 29 30 27 28 32 29 29 27 30 26 26 23 20
9 11 8 9 9 9 17 11 6 11 17 16 14 21 30 31 28 30 35 40 41 42 41 41 40 38 35 32 29 28 27 29 31 29 25 26 27 31 30 24 29 32 31 29 29 27 27 26 22
12 15 8 4 3 9 14 5 7 17 10 5 1 5 16 32 34 32 32 36 40 42 43 43 42 39 38 35 33 34 27 35 39 32 30 32 30 36 34 31 29 32 31 25 25 27 29 21 23
14 15 15 7 3 5 10 7 7 10 6 4 5 2 8 12 33 37 37 38 37 41 43 43 41 38 38 39 42 42 30 31 39 35 33 31 29 33 33 34 28 27 29 24 29 31 28 26 23
16 12 11 7 5 6 8 10 3 4 5 8 4 7 3 2 10 24 31 31 39 40 42 42 41 40 38 38 43 47 35 34 32 31 31 31 30 33 31 30 30 29 29 28 30 31 29 26 23
10 12 8 13 11 6 4 5 7 5 11 3 5 7 6 5 2 4 7 10 24 38 35 42 43 40 37 41 44 43 39 38 34 26 26 27 29 27 23 28 28 26 28 30 32 33 29 26 18
18 16 17 10 9 5 1 6 8 8 15 4 1 6 5 2 2 6 6 7 11 15 16 33 39 39 31 39 40 33 39 38 34 27 23 24 25 24 27 23 21 23 27 31 33 29 26 20 21

GFSSGP_850_spd_045.txt.gz
Wind_Speed
3 2 6 7 2 2 7 10 12 19 5 5 4 10 9 6 4 7 4 6 16 14 8 24 30 30 28 28 28 26 23 21 22 24 25 27 30 30 30 29 29 29 29 29 30 30 30 32 31
4 3 9 6 2 3 9 15 18 4 2 9 10 10 8 5 8 7 8 3 4 26 27 28 24 29 29 28 27 24 22 21 24 26 27 29 31 31 30 29 29 28 29 28 28 28 30 31 31
4 5 4 3 3 9 6 7 11 8 14 11 7 19 8 6 9 6 4 7 4 11 24 32 34 30 29 28 27 24 23 23 26 29 30 31 31 31 30 29 29 28 27 27 27 28 30 31 28
3 5 7 1 12 18 4 8 7 9 15 32 11 10 6 12 8 10 2 6 10 9 17 23 30 36 33 30 28 25 23 26 28 30 31 31 30 30 29 28 28 27 26 25 26 26 26 27 24
11 7 3 5 9 10 2 7 16 16 8 23 19 4 1 4 11 15 9 13 13 18 14 16 24 32 31 30 27 24 25 27 29 31 32 31 30 29 28 28 27 26 25 24 24 24 24 23 24
9 5 5 10 8 4 3 8 7 17 8 2 10 5 3 4 8 8 14 13 17 26 10 24 20 39 32 32 28 23 26 28 30 32 31 30 30 29 27 26 26 24 23 22 21 22 22 22 20
9 1 7 11 15 4 3 7 7 5 3 4 8 5 10 10 6 6 11 18 21 15 15 19 22 24 19 19 26 26 27 29 31 32 31 30 29 28 26 25 24 22 21 20 20 19 19 20 21
20 3 9 10 13 1 0 3 10 9 5 7 5 5 7 10 6 7 8 15 18 21 19 24 18 21 28 29 30 26 27 28 31 31 30 30 28 27 26 25 22 20 18 17 17 17 18 21 21
19 3 8 14 6 1 9 5 6 18 8 19 8 1 9 12 11 11 13 10 13 21 22 25 7 21 25 26 25 24 25 27 28 29 28 28 28 27 26 24 21 18 16 16 15 18 18 18 15
4 3 11 10 5 6 17 14 8 6 24 2 4 7 9 10 10 12 16 22 18 31 29 13 21 31 26 19 26 29 29 29 29 27 26 26 27 26 25 22 19 16 14 14 16 15 12 13 10
15 6 10 10 9 12 8 10 5 8 2 14 11 11 8 6 9 12 14 17 27 22 20 21 26 28 30 31 32 30 31 29 30 28 27 26 23 22 21 20 16 12 10 12 13 10 11 8 7
5 7 13 11 8 8 9 9 14 14 15 10 10 7 5 5 9 12 15 18 20 26 31 25 32 33 32 37 36 34 32 35 33 31 27 24 20 21 19 15 13 12 13 12 10 8 7 5 4
4 6 13 16 15 0 15 21 11 18 5 5 6 6 13 11 6 11 14 17 23 30 28 29 33 35 34 35 35 34 35 34 28 29 26 22 19 17 13 12 11 11 12 11 7 4 5 7 3
13 10 10 19 21 3 8 8 5 8 11 3 4 6 10 7 6 14 15 18 20 26 33 35 37 35 39 42 44 43 41 37 29 28 24 19 15 12 10 9 8 11 10 9 7 8 7 7 3
23 8 7 15 4 3 11 5 4 11 12 6 6 9 9 6 7 11 13 14 16 24 27 36 44 48 46 45 44 46 49 38 33 27 29 20 13 10 11 11 10 11 11 12 11 6 8 6 5
8 7 4 12 9 4 5 1 3 6 9 17 13 14 12 11 8 7 13 15 16 17 21 25 31 38 40 44 44 49 49 46 36 35 27 29 15 12 11 11 16 16 15 15 14 13 11 11 9
5 10 11 11 8 6 3 5 5 8 15 21 20 17 16 17 14 11 14 16 16 16 19 26 32 38 41 37 38 38 46 43 40 30 36 19 13 17 16 17 19 18 19 19 18 17 14 13 12
9 6 3 1 4 4 4 7 5 9 15 25 27 20 20 21 16 14 17 20 19 21 25 27 32 37 39 38 37 35 28 35 37 39 27 15 18 22 23 19 19 21 20 21 20 16 17 16 14
14 13 8 6 8 7 12 7 12 14 8 23 25 23 25 21 19 18 19 22 22 23 26 29 31 31 34 35 31 35 31 36 38 32 21 21 25 23 27 22 22 21 21 22 20 20 22 21 19
13 10 7 7 2 4 6 15 10 8 10 22 28 27 24 24 25 23 21 24 22 26 28 28 33 38 37 35 33 29 27 26 26 29 27 27 25 23 25 22 24 23 25 24 22 23 24 22 22
13 5 6 3 5 7 6 0 9 11 16 24 30 31 29 30 32 31 26 25 27 30 36 38 40 39 36 29 26 24 24 27 29 35 33 28 26 23 28 25 26 26 23 24 25 24 23 22 22
6 8 5 4 2 4 2 4 11 19 19 19 27 31 34 34 34 36 32 30 31 34 36 37 34 35 33 30 29 32 33 34 31 31 35 30 30 27 28 25 25 28 21 22 26 26 25 22 23
9 6 4 2 6 4 8 2 9 17 15 20 22 32 36 41 44 42 38 33 34 34 38 37 36 34 30 28 31 33 33 31 32 27 27 25 24 24 25 26 25 27 26 25 26 27 30 24 29
7 3 2 3 1 4 7 1 5 12 8 16 23 34 40 42 50 45 39 36 33 36 38 38 38 38 35 35 35 36 33 32 32 29 28 26 25 25 28 26 27 28 29 28 27 29 29 25 28
6 3 1 3 3 6 8 3 7 9 10 21 19 31 41 45 49 49 46 46 42 41 41 41 40 39 39 38 34 35 36 38 36 35 35 33 32 32 26 31 26 28 28 30 31 32 29 29 30
8 7 5 4 2 4 7 4 6 12 13 17 22 38 39 44 44 51 52 49 46 46 42 41 42 41 41 42 39 37 37 40 42 38 36 32 30 29 29 30 27 26 22 27 32 32 33 33 31
5 4 8 7 2 3 3 8 9 13 6 7 9 14 32 37 43 45 52 52 48 47 47 46 43 43 42 48 45 42 40 42 41 37 38 33 33 32 30 30 32 27 24 25 28 32 31 31 31
10 4 3 2 4 2 5 6 6 1 6 2 6 9 6 13 42 45 42 50 46 47 47 47 48 48 47 48 49 47 43 46 43 38 37 37 33 33 33 30 29 27 21 23 27 31 28 30 30
4 7 4 7 5 5 2 4 6 7 3 3 7 16 12 8 9 18 40 35 33 40 42 47 49 44 44 49 50 50 49 46 43 38 31 34 31 31 31 27 24 23 25 27 29 29 29 31 29
12 11 8 5 5 3 5 6 3 8 6 7 14 14 15 13 10 8 14 35 30 34 46 44 55 42 40 54 52 51 48 46 38 35 34 32 26 23 23 22 23 23 25 28 27 28 30 31 31

GFSSGP_850_spd_051.txt.gz
Wind_Speed
3 2 4 4 4 4 4 5 3 8 5 2 3 7 8 5 1 3 8 8 17 27 33 33 32 35 35 30 29 31 21 20 25 28 28 30 31 32 32 32 31 31 30 29 28 27 26 28 27
1 2 2 4 4 2 5 5 5 4 5 6 2 2 3 3 5 4 5 15 21 28 35 35 36 35 34 31 24 23 26 26 27 29 32 34 34 34 33 33 33 33 32 30 27 24 25 27 27
2 1 2 4 3 3 4 5 5 5 7 4 3 3 2 3 2 6 7 12 25 30 34 35 34 33 31 29 30 24 24 29 29 32 34 35 35 35 34 35 34 33 32 29 27 25 27 25 25
2 2 5 3 5 8 7 7 2 3 7 4 2 3 3 5 2 5 8 13 27 30 31 33 31 36 35 35 33 30 31 33 32 33 36 37 36 35 36 35 34 32 33 30 25 22 21 22 22
2 2 3 2 5 5 6 4 3 2 4 5 5 2 2 4 2 6 10 17 26 29 28 24 29 28 26 32 30 29 30 34 33 35 38 39 39 37 35 34 33 33 32 29 22 19 19 18 19
3 2 4 3 5 5 5 1 3 2 2 5 3 2 3 2 3 7 12 17 22 24 30 32 37 25 22 42 37 37 36 36 36 35 38 39 38 37 34 33 33 32 30 27 21 21 21 20 16
6 3 4 3 5 6 3 6 3 3 6 4 3 3 3 1 5 4 9 15 17 19 21 26 39 28 24 35 43 36 39 37 36 36 38 38 38 35 34 33 32 31 29 25 21 21 21 18 15
5 4 1 5 2 5 5 5 6 14 7 6 3 4 2 2 2 3 7 8 12 17 14 13 25 32 27 48 37 32 32 37 35 36 38 37 37 34 33 33 31 29 29 26 21 21 19 15 14
6 3 2 5 2 5 7 3 7 3 3 5 4 7 7 2 4 5 6 11 13 16 14 20 14 17 22 30 38 31 33 37 36 37 38 38 37 34 32 31 30 28 26 25 23 18 17 12 10
4 4 7 7 5 6 5 9 9 3 3 6 5 6 3 2 2 3 4 12 11 12 19 18 12 25 21 29 33 33 31 29 33 37 36 37 36 33 31 29 28 26 24 24 23 18 15 12 9
5 5 4 19 14 14 7 4 5 5 6 6 7 9 4 1 1 3 4 7 12 16 24 25 32 30 30 34 48 43 37 33 30 34 35 37 36 33 30 29 25 23 21 21 22 19 15 13 10
2 11 7 11 8 12 6 6 5 10 5 4 3 5 4 6 6 6 9 11 18 20 22 22 24 26 32 33 35 45 46 44 36 37 36 37 36 33 29 27 23 20 21 19 17 15 13 9 8
5 5 8 16 6 13 11 8 5 7 6 4 6 8 8 7 9 10 9 11 14 17 23 23 30 28 34 44 49 48 44 41 44 38 36 36 36 33 28 24 21 19 19 15 14 13 9 7 6
3 8 16 11 12 12 10 4 1 8 10 9 7 6 8 10 8 9 10 13 16 20 23 21 28 30 37 41 39 44 44 44 41 39 37 36 33 31 28 23 19 18 16 13 11 10 8 8 5
5 5 7 7 9 6 7 1 8 13 15 12 11 9 8 8 8 6 6 11 13 16 18 23 23 34 37 37 39 42 43 41 40 39 37 34 32 29 25 19 19 16 15 12 12 10 8 9 7
5 1 2 3 6 5 10 11 6 17 19 15 12 10 9 7 7 5 6 10 14 14 21 29 29 36 39 39 43 40 42 41 39 37 34 33 29 23 20 20 17 16 16 12 9 7 7 9 9
4 5 4 8 3 3 4 8 5 22 20 18 17 13 10 6 6 5 7 11 14 15 16 24 38 35 36 42 37 39 40 40 39 36 34 33 27 23 20 18 17 16 13 11 9 10 10 9 9
5 4 2 3 5 1 4 13 1 21 20 19 20 16 11 7 6 5 6 10 12 13 14 16 25 37 39 45 44 40 40 38 39 35 35 31 27 24 20 15 14 13 13 14 13 14 14 14 12
2 3 5 6 9 4 13 9 8 14 13 15 21 19 15 11 8 8 10 10 13 15 15 14 24 44 43 42 44 44 41 41 41 39 36 31 23 22 19 16 15 14 15 17 17 18 19 19 17
5 5 11 9 9 7 8 11 5 9 15 23 25 24 21 16 14 13 12 13 14 15 19 20 21 35 40 42 42 47 43 43 39 39 40 36 27 21 20 19 17 17 16 19 22 22 23 21 22
7 7 10 8 8 4 0 8 4 5 8 18 24 27 23 22 20 19 16 16 16 15 15 22 27 31 35 39 41 42 39 41 40 41 43 42 39 26 21 22 20 20 22 23 25 27 28 27 25
7 10 11 8 2 5 5 5 5 3 7 8 19 26 29 29 25 22 20 19 19 17 19 22 25 31 33 36 36 39 43 45 47 41 41 45 43 38 34 27 24 25 26 28 29 29 31 31 28
9 5 9 9 7 3 2 2 7 4 6 11 15 28 34 34 31 27 25 22 19 19 20 22 23 27 30 33 36 40 43 46 45 43 46 42 47 44 35 30 29 23 26 29 29 30 32 33 29
10 4 3 0 4 2 6 5 5 5 7 5 12 26 36 37 36 32 27 27 24 22 23 24 27 28 31 34 36 38 39 45 47 46 49 49 45 45 41 37 32 28 31 32 30 30 35 33 31
5 2 3 3 0 5 5 2 8 8 11 12 12 27 36 39 39 37 37 35 32 30 28 29 31 34 34 36 39 40 40 40 42 39 40 41 43 45 43 39 37 37 36 31 29 31 32 32 30
6 9 5 6 4 4 1 5 6 7 12 13 16 27 33 36 41 42 42 40 38 36 35 34 34 36 39 39 40 39 40 41 41 40 41 43 45 43 40 37 36 37 35 29 27 29 31 24 26
4 5 7 5 3 2 4 6 7 7 10 12 18 17 30 36 41 45 46 45 43 42 42 41 41 40 42 41 41 42 43 44 45 44 44 43 42 42 42 41 36 37 31 33 32 32 27 25 29
7 5 2 2 4 4 3 3 5 8 5 5 6 14 30 35 37 41 44 47 47 46 44 43 44 46 46 47 47 47 47 47 47 46 45 43 41 42 42 41 41 39 32 33 31 30 26 30 29
2 3 2 3 4 6 2 5 7 8 8 5 1 4 16 28 35 38 42 45 47 46 47 47 48 49 48 50 52 51 50 49 49 49 46 45 43 43 45 41 41 43 38 37 32 28 28 30 28
3 6 8 5 4 2 4 8 5 8 6 6 5 3 9 19 31 36 36 40 44 47 49 50 51 52 52 53 53 54 53 51 51 51 50 42 45 40 46 40 45 44 45 38 34 29 29 30 29

GFSSGP_850_spd_054.txt.gz
Wind_Speed
3 2 2 2 4 5 3 5 3 5 3 5 4 1 3 5 1 3 9 14 14 31 34 35 32 34 35 28 23 26 27 26 28 28 26 25 26 28 28 28 29 28 27 29 29 30 30 29 28
2 2 3 3 5 3 5 4 5 5 4 6 5 3 3 4 2 1 10 12 19 30 31 34 34 37 29 30 32 31 30 27 25 25 26 27 29 31 30 31 30 29 28 28 28 30 29 31 29
2 3 2 4 4 3 4 5 5 5 3 3 2 2 2 3 4 3 3 14 24 29 31 34 33 30 31 32 30 29 28 24 29 27 28 29 32 32 32 32 31 30 29 28 29 29 29 29 28
3 2 5 4 3 7 7 7 6 6 2 1 2 5 4 7 4 7 7 10 25 28 34 34 32 32 32 31 31 28 25 26 32 28 30 32 33 33 32 33 32 30 28 30 30 29 28 28 28
4 1 4 2 5 5 5 8 6 3 5 2 1 3 4 7 7 8 9 13 22 27 32 32 34 36 34 33 31 29 26 28 29 29 32 33 34 35 34 33 31 29 28 28 27 27 26 25 25
2 2 4 2 4 5 6 7 5 6 4 4 3 2 5 6 6 8 13 15 20 27 24 33 34 33 31 31 32 32 30 30 30 32 34 35 35 35 33 32 31 28 26 26 25 26 25 23 22
6 3 4 3 3 5 4 4 6 4 1 5 4 2 3 6 6 8 10 15 19 19 23 28 32 27 25 25 28 31 30 32 30 33 36 36 35 33 31 31 31 27 25 24 25 25 23 20 18
5 4 3 4 2 5 4 3 5 4 5 6 4 4 4 3 3 4 8 13 18 17 20 26 28 34 26 27 30 38 39 32 35 37 38 37 33 31 32 32 31 28 24 24 24 23 21 19 17
5 4 2 4 4 5 5 4 6 3 8 7 6 6 5 2 1 2 6 5 12 15 18 15 27 34 24 13 32 45 36 33 37 40 39 37 34 33 33 32 30 26 23 22 22 22 20 18 16
4 4 8 7 5 8 7 12 6 4 5 8 9 9 5 3 4 5 5 11 14 14 15 24 8 17 23 24 35 42 36 35 36 39 39 38 35 33 32 30 28 26 23 21 19 17 15 13 13
7 6 5 7 17 22 7 5 6 3 5 12 6 7 7 5 5 6 6 10 14 17 27 21 10 24 20 37 32 43 38 35 32 37 38 38 37 35 32 31 28 25 22 21 20 17 13 12 12
3 10 7 9 6 5 5 5 3 11 5 5 6 4 6 5 5 6 8 10 18 20 22 19 17 28 33 35 41 48 43 39 36 35 37 38 37 35 33 30 27 26 22 19 18 19 15 12 12
5 4 7 11 18 10 7 6 5 12 13 7 6 4 4 6 4 3 6 10 15 23 22 17 28 31 30 31 44 50 45 41 40 41 39 39 37 34 32 30 26 24 23 20 18 17 14 11 10
5 6 13 9 6 8 5 1 2 9 15 9 8 6 7 7 6 4 7 10 15 18 20 30 25 28 27 33 44 49 52 47 41 41 37 39 37 34 31 28 25 23 20 18 16 14 11 10 9
4 4 6 6 3 4 7 4 10 16 13 12 11 9 8 7 7 7 8 10 13 19 20 23 28 24 31 41 45 51 51 48 46 43 37 37 37 33 30 26 23 21 19 17 15 12 10 9 9
1 3 3 4 5 2 10 10 6 15 18 17 14 12 9 7 8 6 6 9 12 15 24 25 30 28 34 38 46 50 47 44 48 44 39 39 36 32 27 23 21 19 17 14 13 9 9 9 8
5 3 4 7 4 4 3 8 3 4 15 16 16 13 10 9 10 8 9 11 12 13 19 22 30 33 37 39 45 47 47 45 42 39 42 39 36 31 24 21 20 19 17 15 12 11 9 8 9
5 4 4 6 2 2 4 13 10 9 16 18 18 16 15 13 11 8 8 11 15 15 15 17 27 36 42 43 41 39 40 39 40 40 40 40 36 29 22 20 20 19 19 17 14 11 10 9 8
5 4 4 5 4 3 8 10 17 7 15 17 21 19 18 16 11 12 10 10 13 13 14 13 19 31 41 41 36 37 42 40 40 39 40 38 33 26 25 22 21 20 17 13 13 11 12 12 13
4 3 5 8 7 6 8 10 6 5 9 20 21 23 22 18 16 16 14 11 13 13 13 12 14 22 33 35 40 44 47 42 42 36 38 36 38 30 27 22 20 19 16 13 15 15 16 16 18
5 6 4 8 6 4 3 8 5 4 8 9 23 24 23 22 21 18 17 13 12 12 14 17 16 25 32 40 42 43 40 40 45 35 39 38 40 34 27 26 22 17 15 14 14 17 20 20 21
9 11 8 6 1 4 3 5 6 4 7 6 16 26 28 26 23 20 18 17 14 11 14 23 22 25 36 38 41 45 42 49 49 40 36 37 39 36 33 26 20 19 16 17 18 20 22 24 28
8 8 8 5 5 1 3 2 7 2 6 9 10 28 30 28 28 25 21 18 13 13 13 18 25 26 31 38 39 41 41 41 49 47 42 41 43 39 38 29 22 21 20 20 22 24 25 28 33
4 3 3 2 3 3 7 6 5 5 8 7 6 23 30 30 29 28 23 20 19 16 17 19 27 31 33 35 37 40 43 42 45 50 45 41 40 42 42 44 37 29 27 25 23 25 28 31 33
4 4 1 2 1 5 4 5 8 8 10 10 10 18 24 31 30 31 30 27 25 23 21 23 26 30 34 37 37 39 41 42 43 50 49 48 46 46 45 48 50 41 35 30 31 31 34 34 33
6 7 5 6 4 4 1 5 6 8 14 20 19 14 19 24 31 31 32 30 28 26 25 25 27 30 31 35 39 42 44 44 44 46 49 53 54 48 49 47 47 48 39 36 37 39 38 38 27
4 5 6 6 1 2 4 6 9 8 8 10 14 12 19 23 27 32 33 33 32 31 30 28 28 29 31 33 36 41 42 43 44 45 46 47 46 47 45 41 40 42 40 39 39 37 39 34 33
7 6 4 1 5 5 3 3 5 5 10 8 8 12 22 23 24 27 30 35 36 35 33 31 30 32 31 33 35 37 39 40 41 41 42 43 42 40 40 40 41 41 42 41 42 41 36 37 38
3 3 1 4 5 4 2 5 8 9 6 6 8 10 14 21 23 25 27 30 34 38 38 37 36 34 36 36 37 38 38 39 40 42 43 44 42 42 41 40 41 42 44 41 40 37 38 37 36
4 7 8 5 5 3 3 6 5 9 7 5 9 15 7 7 12 19 24 27 29 33 36 42 43 42 40 38 40 41 42 40 43 44 44 45 46 44 42 40 43 42 43 42 39 39 42 40 37

GFSSGP_850_spd_057.txt.gz
Wind_Speed
5 4 1 2 2 1 1 2 2 5 3 3 1 4 4 5 6 4 3 18 17 33 39 44 28 25 29 31 29 28 32 32 32 31 29 28 28 26 24 23 23 22 22 24 25 26 25 26 25
5 4 2 2 2 1 1 2 5 6 5 5 6 5 5 4 7 5 5 12 13 30 39 33 30 34 34 32 27 28 29 29 32 28 29 28 28 27 24 24 24 23 24 27 27 27 27 26 25
5 4 1 3 2 2 3 5 7 5 7 4 3 6 3 3 4 2 7 11 17 27 36 33 33 36 34 33 30 27 31 35 34 33 33 30 30 27 26 27 26 25 29 28 29 29 28 27 26
5 2 4 1 2 4 4 4 4 6 4 10 4 6 6 7 0 4 6 8 19 29 33 34 35 36 35 32 30 33 33 33 33 34 32 32 31 29 29 29 28 29 28 28 30 29 29 28 27
5 2 1 1 3 4 5 6 6 6 3 2 2 3 5 4 9 7 8 8 17 26 31 36 34 34 32 31 36 35 36 36 34 33 32 34 32 31 30 29 29 30 30 31 29 29 28 27 27
3 2 1 3 3 4 5 8 3 6 5 1 3 5 4 6 6 8 11 11 15 21 28 29 34 34 34 35 35 34 34 33 35 33 36 36 34 32 30 29 28 31 32 30 28 27 26 25 24
4 2 2 2 3 4 3 4 4 4 7 4 3 3 3 6 7 7 12 13 15 24 25 24 25 29 32 31 31 32 34 36 37 37 38 38 35 32 30 30 30 29 29 28 27 25 24 23 22
6 2 4 4 3 4 3 5 5 7 6 4 3 4 3 5 9 8 8 11 15 18 18 23 25 29 31 30 28 30 32 32 37 37 40 38 37 34 31 29 28 27 27 27 26 24 22 21 19
7 2 4 4 6 2 4 5 4 5 6 5 6 8 8 9 4 3 5 8 15 18 19 15 24 36 35 31 36 35 31 36 38 40 39 38 36 34 32 30 27 26 27 27 24 21 21 20 18
5 4 8 6 5 5 5 8 4 4 5 6 10 14 11 7 3 4 5 9 12 17 18 16 3 13 21 30 26 29 39 36 36 39 41 38 37 36 33 29 27 25 26 25 24 22 19 17 18
6 7 6 6 14 9 6 4 9 7 8 11 6 6 10 7 4 7 8 11 15 13 14 21 13 16 25 29 33 41 42 38 36 41 39 38 36 36 33 30 27 26 25 26 23 20 17 15 15
4 9 7 5 6 2 4 3 5 13 9 4 4 6 9 7 7 7 10 12 15 14 14 22 10 16 20 23 30 50 48 43 37 38 39 38 38 36 35 32 28 26 25 22 22 21 17 16 14
6 6 7 15 13 11 6 8 6 12 15 12 6 8 8 7 7 7 9 11 13 24 16 18 14 21 21 24 39 42 44 40 36 37 38 38 37 36 33 31 28 27 25 23 22 18 18 16 15
8 10 8 9 12 6 5 4 3 5 14 12 10 11 9 7 8 8 8 12 13 21 18 15 13 22 24 29 37 37 35 40 41 36 38 35 34 35 33 31 29 27 24 23 21 17 14 14 15
3 4 5 7 5 5 8 6 9 9 10 12 12 11 10 8 9 9 9 12 15 18 17 15 17 23 28 32 37 39 39 39 42 35 38 36 32 32 32 30 29 26 23 21 22 19 15 14 15
4 1 5 1 4 1 6 12 3 7 14 13 13 12 10 10 9 9 10 13 17 18 19 16 26 24 27 29 41 44 44 44 42 34 37 36 38 35 31 30 29 26 22 22 21 18 17 15 13
1 6 6 4 4 3 5 7 2 5 13 15 15 13 11 10 9 8 9 11 15 18 24 20 22 22 29 29 42 44 43 44 40 40 40 40 37 34 33 30 28 26 22 21 19 16 16 17 15
8 5 5 7 4 2 4 15 15 10 14 17 17 16 14 13 10 9 9 13 15 18 19 24 26 24 26 27 41 45 45 43 41 42 44 38 36 36 33 29 27 24 22 22 18 16 16 14 12
7 4 4 3 4 3 6 11 15 8 11 14 17 18 18 18 12 10 11 12 16 19 21 23 26 25 34 33 41 45 49 45 42 43 44 39 36 37 33 29 26 24 23 21 18 18 17 15 14
6 5 7 9 6 7 9 13 14 6 7 11 18 19 20 19 19 17 16 16 16 17 18 19 21 22 31 35 40 45 48 47 40 45 44 37 40 40 35 30 27 24 24 24 24 21 18 17 16
13 11 7 9 6 3 4 6 6 3 5 8 12 15 18 23 23 21 21 19 18 20 19 19 24 24 29 38 40 41 39 44 42 42 41 42 42 40 35 32 26 23 26 25 19 20 20 18 17
14 10 7 5 3 5 3 7 7 9 9 8 12 15 18 24 26 24 22 22 20 19 16 22 23 22 30 36 42 41 47 53 50 43 42 38 38 38 34 33 30 29 28 25 18 15 18 19 20
10 8 10 7 6 4 3 5 3 4 9 11 8 13 19 26 29 29 26 22 19 21 18 20 26 25 30 33 38 43 45 49 36 42 45 39 39 40 41 38 37 31 28 26 17 19 20 20 23
7 3 3 3 2 6 7 7 4 5 10 7 7 9 11 20 28 28 24 22 21 21 21 22 28 26 30 34 38 41 43 50 39 42 50 45 43 43 44 41 35 39 33 27 22 20 19 19 23
5 6 3 5 4 7 1 7 11 9 12 11 12 14 7 13 25 30 30 28 26 25 24 24 29 31 34 34 37 36 41 46 47 49 54 46 48 48 47 45 41 43 39 32 29 27 25 25 27
13 12 5 7 6 5 4 5 6 8 11 11 14 16 13 11 20 31 33 32 28 26 26 26 27 29 32 36 37 37 39 44 44 50 54 53 53 50 46 49 48 47 51 45 43 40 37 32 33
6 8 6 2 2 1 2 4 10 10 7 10 10 14 16 14 20 26 32 34 30 30 29 27 27 29 31 33 36 40 42 44 45 45 46 55 56 53 52 50 50 47 49 49 49 49 45 39 38
8 10 5 1 6 8 2 3 6 6 8 6 5 8 8 9 15 20 28 33 34 32 30 29 29 29 29 31 33 35 38 41 44 45 48 50 54 59 56 54 53 54 52 52 50 44 44 42 42
6 8 1 3 3 4 4 4 7 12 10 7 7 6 7 7 14 20 22 27 31 32 35 34 33 32 33 33 34 35 36 38 41 44 47 49 51 55 56 56 55 53 50 44 41 42 44 45 45
2 5 9 4 4 1 1 8 4 9 10 6 11 11 9 6 5 12 18 20 24 28 33 37 37 37 36 33 36 37 38 39 40 40 39 42 44 46 47 46 46 44 43 40 43 47 48 44 42

GFSSGP_850_spd_060.txt.gz
Wind_Speed
7 5 3 3 6 6 3 4 2 4 2 1 1 5 9 10 6 9 4 5 12 17 22 32 33 33 33 27 29 25 33 33 31 30 29 28 26 26 25 23 22 21 22 23 23 23 24 24 24
8 6 3 3 7 8 5 2 5 1 2 2 5 9 10 9 5 6 3 4 12 16 23 29 33 31 30 28 25 28 34 34 33 31 29 28 27 26 25 24 22 21 22 23 23 23 24 24 24
9 7 7 4 6 7 3 4 2 1 3 5 4 6 7 3 3 2 5 7 13 20 25 25 34 28 30 31 30 33 35 35 34 34 31 30 28 27 26 24 22 21 22 24 24 25 25 24 22
7 5 4 8 8 2 6 2 3 6 3 7 6 8 4 6 2 4 7 9 14 19 23 27 33 27 30 30 33 34 36 36 37 35 32 29 28 28 27 25 25 24 24 25 26 26 27 25 23
7 5 7 10 8 4 6 6 6 6 2 3 5 6 5 4 8 8 10 10 13 20 23 26 33 31 29 32 33 35 37 39 37 34 32 30 30 29 28 28 27 25 27 28 27 27 27 25 23
10 5 7 11 8 5 4 5 6 8 5 4 6 10 5 4 3 7 12 12 13 17 22 23 30 31 34 34 34 37 39 39 36 34 33 30 30 31 31 29 29 27 29 28 29 28 27 25 24
15 7 10 6 6 6 3 3 7 7 8 8 4 7 3 3 4 8 11 14 15 16 21 22 23 22 27 29 34 33 40 38 35 34 32 32 32 33 33 32 30 29 30 29 28 27 26 24 23
13 6 7 10 9 8 5 3 6 9 8 2 5 5 6 4 8 11 12 14 12 14 21 24 22 28 25 24 29 31 33 34 35 34 33 35 35 34 33 31 32 33 31 28 27 26 24 22 22
9 8 10 12 11 8 5 8 4 5 10 8 8 10 8 10 9 5 4 10 11 11 16 18 24 25 32 35 23 25 29 35 34 33 35 36 34 34 30 33 33 32 30 28 26 25 23 22 22
14 12 12 6 9 6 7 8 11 7 11 12 11 12 11 10 5 6 7 7 13 9 17 19 16 13 26 33 38 32 31 32 33 37 37 33 31 33 28 33 31 31 29 27 25 24 22 22 21
16 17 9 8 11 9 10 10 6 9 13 11 11 10 10 8 7 6 8 9 13 11 13 19 16 15 12 35 29 26 30 38 38 36 39 34 36 35 34 33 30 32 30 27 24 23 18 18 17
14 20 13 12 9 9 10 10 9 13 16 5 5 6 10 9 8 6 8 9 12 14 11 22 19 16 23 25 33 40 33 38 39 40 40 37 40 37 32 34 29 33 28 25 23 20 17 17 17
19 16 13 16 13 13 12 14 14 17 13 9 6 7 9 9 8 6 7 11 12 12 12 18 16 12 25 27 27 34 39 42 42 42 38 37 42 39 32 32 30 27 24 24 22 18 19 17 17
8 22 17 15 15 13 12 17 5 10 6 10 9 9 9 9 8 7 6 8 8 14 14 16 15 11 20 25 27 31 41 48 45 40 39 42 42 38 33 35 27 24 23 22 20 20 18 17 16
13 12 14 16 16 16 11 16 14 16 7 11 13 12 11 9 9 9 9 9 10 15 20 15 16 13 19 19 20 26 39 49 41 39 40 43 41 38 33 30 27 23 22 22 20 20 17 16 15
14 14 16 15 12 9 12 18 6 4 9 11 13 13 13 11 10 9 11 14 15 15 16 15 14 16 21 21 23 29 38 38 39 35 39 38 36 35 35 32 25 25 22 21 19 19 16 16 16
12 15 18 12 11 6 13 11 3 5 9 11 13 15 14 13 12 10 11 12 18 20 18 18 14 16 22 26 27 31 37 38 39 33 30 37 34 30 27 27 27 27 26 21 21 19 17 16 15
15 16 14 14 9 12 13 16 11 9 11 12 12 15 16 15 14 13 12 12 15 18 22 21 15 21 24 29 32 32 31 39 40 34 31 33 36 28 27 27 28 26 21 20 22 20 19 16 15
13 12 14 10 6 6 13 16 14 6 9 11 13 16 18 17 14 14 13 14 15 20 21 22 26 24 28 32 37 39 37 39 47 42 28 34 28 40 31 26 29 24 20 20 24 21 19 18 16
18 15 14 9 6 8 13 16 14 12 8 9 12 16 19 18 17 16 16 15 16 17 19 22 23 26 28 29 33 38 42 42 45 42 37 32 33 37 37 32 30 29 20 23 23 23 18 16 21
20 20 15 14 3 10 9 15 18 14 8 8 10 13 16 21 22 20 19 18 16 16 20 19 22 22 27 24 27 39 42 40 44 42 45 40 39 37 37 35 33 32 29 27 25 22 21 17 20
19 19 16 12 11 9 3 13 15 9 16 12 13 14 17 21 23 22 21 20 18 17 15 16 21 24 26 32 32 37 45 49 50 46 47 46 43 34 34 37 34 33 31 27 26 24 22 23 18
17 7 13 15 13 12 14 9 14 6 13 13 12 15 17 20 24 24 23 21 18 17 17 17 19 25 30 30 33 35 42 46 46 48 49 39 49 44 37 38 37 35 31 26 23 20 21 22 22
8 7 7 8 10 12 15 12 8 11 10 4 5 9 11 17 23 23 22 21 20 19 18 19 25 26 30 32 33 36 40 45 47 50 49 46 46 43 40 43 41 37 30 30 33 28 22 27 25
15 12 7 8 8 10 4 10 14 11 12 11 10 13 6 13 21 25 26 26 24 24 23 21 26 28 29 35 36 35 42 42 46 56 53 49 44 47 47 48 44 40 36 36 31 35 33 30 26
18 19 7 8 10 9 9 8 7 4 5 7 7 8 7 12 18 26 28 27 27 26 26 25 26 28 31 37 38 37 37 37 44 52 54 52 47 48 48 47 49 51 51 44 41 40 35 31 31
13 19 16 9 1 5 7 7 11 10 10 11 10 10 14 13 18 25 29 29 28 29 30 28 26 27 28 34 40 40 37 34 38 47 56 49 46 50 52 49 49 49 48 44 40 46 43 36 36
10 10 8 10 13 12 9 8 7 4 10 3 4 5 5 8 16 21 28 30 29 28 29 30 28 28 28 30 33 34 37 35 34 38 49 49 48 51 52 53 53 53 51 53 49 50 44 42 40
14 12 9 7 13 11 10 6 5 9 5 3 3 9 6 2 12 17 22 26 27 26 28 31 32 31 31 31 32 33 35 35 35 37 42 44 48 45 48 42 46 45 44 41 41 43 41 40 42
17 16 19 10 10 7 8 9 9 6 10 6 12 14 10 2 4 14 17 21 26 29 30 32 33 34 33 32 33 34 34 35 38 40 40 44 44 53 54 50 50 50 48 49 46 46 46 44 43

GFSSGP_850_spd_063.txt.gz
Wind_Speed
7 6 3 9 7 8 16 1 6 7 7 4 4 6 13 12 11 5 4 4 1 9 12 23 27 25 28 29 29 29 28 28 27 26 24 23 24 24 24 23 21 22 21 21 22 21 20 20 21
5 7 8 14 8 13 6 6 7 2 3 1 5 7 10 8 6 5 4 3 2 7 16 19 29 26 26 28 30 28 29 30 29 28 26 25 25 24 23 21 20 20 21 21 22 21 22 23 23
10 10 14 10 14 14 7 8 4 2 3 5 4 3 7 6 4 3 4 5 6 8 16 18 28 28 26 28 29 30 30 32 32 29 27 26 26 25 23 21 21 21 20 21 23 24 25 24 22
8 10 15 12 18 9 6 3 2 5 7 5 7 10 3 2 3 4 6 6 6 8 15 21 26 25 26 26 28 28 34 35 33 31 30 28 27 25 23 22 22 21 22 24 23 24 24 22 21
13 13 13 18 18 7 4 7 5 7 4 8 4 10 5 5 3 6 6 6 5 8 15 21 24 28 29 27 28 32 37 37 34 33 30 29 26 24 23 22 22 23 23 23 24 25 24 23 22
16 18 14 16 17 7 5 6 7 7 10 9 7 8 9 4 3 6 6 6 6 11 16 21 24 25 29 25 31 33 39 38 36 34 31 29 27 25 23 23 25 24 24 24 25 25 25 24 25
18 14 17 21 15 4 6 5 8 11 9 9 0 9 8 5 5 4 5 6 9 13 14 21 23 27 27 25 27 31 36 38 38 35 32 30 28 25 25 25 24 26 26 26 26 26 25 25 27
22 14 23 21 12 11 11 9 9 9 11 2 7 7 9 5 4 5 6 6 8 11 13 16 24 20 29 22 41 21 28 40 38 34 33 30 30 27 28 26 25 28 28 28 27 26 25 24 25
16 15 16 21 13 12 8 10 15 7 13 11 10 12 7 3 4 6 5 7 8 9 11 15 20 18 19 25 25 20 36 41 37 36 34 31 30 32 29 26 27 29 29 28 26 25 24 24 24
17 15 22 17 9 9 6 10 10 9 14 16 15 11 9 6 7 8 9 8 11 10 12 13 15 17 14 12 28 31 34 36 37 35 34 30 29 29 25 27 30 30 29 27 25 23 24 23 24
23 21 21 13 9 13 13 11 11 10 12 11 12 11 6 8 8 8 8 9 8 10 10 13 14 15 12 13 26 27 23 33 35 34 34 31 32 31 30 30 32 30 28 26 25 24 21 17 17
21 25 25 23 12 16 15 17 13 13 15 13 9 8 6 9 9 9 8 8 8 7 9 14 18 13 14 10 15 35 29 35 34 33 33 31 33 31 30 35 35 32 28 27 25 21 17 16 15
21 22 25 19 19 16 18 18 17 20 18 12 8 8 8 9 9 8 6 5 5 6 11 10 16 13 14 13 19 24 23 27 42 36 36 29 30 28 31 34 32 32 23 25 22 16 17 16 15
23 20 24 25 19 21 18 20 23 17 13 8 10 11 10 10 9 8 6 6 6 9 9 16 19 13 12 22 18 25 25 30 32 36 43 32 33 29 28 30 28 29 23 21 19 17 17 16 16
21 21 17 20 22 20 19 20 21 24 17 10 11 12 11 11 10 10 8 8 8 12 13 13 17 13 12 20 24 23 24 38 36 42 42 36 37 34 28 25 26 26 24 22 19 18 18 17 16
16 20 18 19 19 20 17 20 17 19 12 13 13 13 13 13 12 10 10 10 12 15 13 17 11 9 12 17 18 21 22 37 41 44 36 39 37 35 30 28 24 24 24 23 20 19 18 18 17
18 16 22 20 17 14 14 18 18 7 9 13 13 14 14 14 14 12 11 12 12 16 16 18 15 11 17 15 14 13 21 42 48 44 36 39 39 39 29 28 23 24 24 23 21 20 18 18 17
17 18 19 18 14 15 17 19 18 12 13 13 14 13 14 15 15 14 13 13 14 15 17 22 16 13 22 20 18 16 28 37 43 39 35 37 40 41 34 32 25 23 25 22 20 18 18 17 16
24 19 16 12 12 11 15 19 15 17 17 13 15 14 15 17 14 15 15 14 15 15 18 23 21 18 21 23 23 24 33 35 39 42 33 31 36 34 29 25 27 25 23 21 21 19 18 16 16
26 24 16 15 5 5 15 19 18 16 17 11 15 14 14 15 16 17 17 16 16 17 17 21 23 21 22 24 27 27 37 36 41 43 32 32 34 33 33 23 26 24 21 21 22 21 17 16 16
24 23 19 18 9 8 14 19 18 17 18 16 12 15 13 15 19 20 20 19 17 18 19 18 23 22 23 20 29 27 30 37 46 41 40 39 37 31 34 32 27 28 24 26 25 24 19 17 16
22 18 19 17 15 13 11 14 15 19 22 16 21 19 18 14 17 21 21 21 20 18 18 18 18 25 23 24 30 35 38 42 47 50 46 49 43 38 35 40 33 31 30 26 26 22 24 22 18
24 16 15 16 18 17 18 10 14 14 14 15 14 21 22 17 18 21 23 22 21 19 18 18 19 19 25 29 31 32 38 39 38 51 44 39 44 41 36 44 42 36 32 28 26 25 26 23 22
15 15 16 11 14 15 17 14 13 11 14 14 4 11 17 17 18 20 22 22 21 19 19 18 22 23 26 30 31 34 35 40 41 46 53 49 44 43 42 38 40 43 41 33 33 27 27 24 23
19 12 9 11 12 15 16 14 15 10 0 6 8 8 11 12 17 21 24 25 24 23 21 20 21 24 29 32 33 34 33 38 47 47 50 54 54 45 45 42 40 40 43 37 33 34 32 28 27
19 18 10 12 10 13 18 8 7 8 2 1 2 5 8 14 15 21 26 27 26 26 25 22 22 24 26 30 34 34 35 36 37 44 49 53 56 57 53 49 47 41 43 43 37 35 32 30 33
17 20 21 18 10 7 6 10 14 6 8 7 9 10 11 17 18 20 25 28 27 27 27 26 24 24 26 28 34 37 36 33 35 35 44 50 54 50 45 50 51 46 47 49 44 45 41 44 45
21 10 17 13 11 11 9 13 4 7 5 3 2 3 4 11 17 20 25 29 27 26 25 26 25 25 25 27 29 37 39 35 38 40 39 44 53 44 42 45 54 49 47 53 50 50 50 48 48
17 17 12 15 14 9 13 9 7 2 3 4 5 9 7 1 7 15 22 26 25 24 25 26 26 26 26 26 27 32 38 36 39 37 34 36 43 53 49 50 51 51 51 54 55 52 45 44 43
22 20 18 9 5 13 9 5 3 9 7 9 5 7 10 5 4 12 17 22 25 26 26 27 27 28 28 27 27 29 30 34 39 40 38 38 41 48 45 45 47 51 54 55 55 56 50 47 47

GFSSGP_850_spd_066.txt.gz
Wind_Speed
8 6 2 10 6 8 17 17 7 5 2 6 6 5 11 11 8 4 5 3 6 4 10 11 18 23 22 23 23 23 23 23 22 20 21 21 21 21 20 21 23 25 25 26 23 20 21 22 24
7 6 8 9 8 11 14 7 4 2 11 9 2 7 10 4 10 6 6 3 3 5 9 14 21 23 22 23 24 25 25 25 25 23 23 22 22 21 22 23 24 24 25 24 21 20 21 21 22
10 9 10 5 12 13 16 6 3 5 6 4 3 6 7 3 10 4 2 6 5 4 10 13 16 24 23 25 26 26 27 28 27 25 24 24 23 23 21 22 23 23 23 23 21 21 22 22 23
8 10 10 7 18 22 24 6 5 3 5 8 6 8 3 5 4 4 4 6 5 4 6 15 18 23 25 26 26 27 29 30 31 30 28 26 26 25 24 21 20 21 21 22 22 23 25 24 24
13 13 11 15 20 24 16 2 6 6 6 2 9 5 7 5 4 4 2 6 5 6 10 14 19 20 26 26 24 25 28 34 34 31 30 30 29 27 24 22 20 18 21 22 23 26 25 25 29
15 16 13 14 21 23 8 4 2 7 7 11 12 7 4 7 6 5 6 5 7 9 12 17 19 19 20 24 22 25 38 33 35 34 31 30 29 27 24 22 20 20 20 22 26 25 24 25 29
19 13 18 20 19 22 8 11 3 7 12 7 5 1 5 9 6 5 3 5 7 14 13 16 20 24 24 28 30 28 22 28 37 36 32 29 27 26 24 23 21 21 21 23 26 26 26 28 32
25 13 22 19 16 20 6 10 5 9 9 1 4 4 4 9 9 4 4 8 11 12 12 12 22 23 23 23 30 23 25 25 30 40 34 31 27 26 25 22 21 22 23 25 27 26 27 31 31
26 15 16 21 21 20 14 8 10 15 10 12 10 10 5 7 5 4 6 13 10 8 11 12 17 21 17 20 19 20 22 38 26 38 35 32 30 27 24 23 24 25 26 26 26 26 28 28 29
20 16 24 21 21 13 12 10 10 11 15 17 17 13 12 8 7 8 9 10 10 9 9 11 12 13 13 13 16 12 12 21 35 39 38 35 33 29 28 26 28 28 27 26 25 26 27 28 31
28 22 22 23 27 10 14 14 12 12 10 12 3 6 5 8 7 9 8 9 9 9 9 12 13 12 13 14 9 17 19 18 23 36 38 36 34 32 30 30 30 29 27 27 25 26 27 33 29
25 31 29 30 30 19 10 21 14 17 12 12 16 5 7 7 9 10 8 7 8 9 11 11 11 12 13 10 9 13 17 21 37 35 37 34 36 34 31 33 33 32 29 28 26 27 25 30 21
26 25 31 31 29 23 19 16 17 19 15 17 13 8 8 10 10 9 7 6 8 9 9 10 13 13 11 9 3 6 18 16 39 38 32 35 37 35 32 35 34 32 31 28 27 23 18 19 14
30 29 28 30 29 22 18 19 19 23 20 22 10 8 11 12 11 9 8 6 7 10 8 13 13 14 8 7 6 7 19 23 37 36 29 34 33 31 31 37 35 33 29 29 26 20 19 17 15
31 25 22 23 23 24 22 20 20 25 21 20 17 11 14 13 11 10 8 8 12 12 12 13 18 14 8 10 11 15 15 19 30 41 38 34 35 28 33 37 36 31 27 28 22 21 20 19 16
21 19 20 21 21 21 21 20 19 27 25 24 11 16 16 15 13 11 10 10 11 13 16 15 13 12 9 12 18 15 17 17 32 35 40 36 34 29 29 33 33 29 23 22 20 24 21 20 18
14 16 21 23 22 21 21 21 19 24 8 14 17 18 17 16 15 13 12 12 13 15 16 17 16 13 11 10 13 16 18 24 30 41 38 42 41 31 30 29 27 29 27 25 23 22 22 22 20
15 19 20 20 20 22 19 18 13 22 14 13 15 18 18 19 18 17 15 14 14 16 15 15 16 13 15 12 10 12 15 20 34 40 45 39 39 35 30 25 33 31 24 27 21 22 22 22 20
15 18 24 23 20 16 17 16 16 17 18 18 21 17 15 19 16 18 17 16 17 19 20 18 18 17 18 15 16 12 17 37 39 38 43 48 39 39 35 26 30 29 27 27 24 23 22 18 21
20 19 23 25 16 1 9 13 15 16 12 15 19 20 19 16 20 21 20 19 21 21 19 21 23 20 18 16 16 17 23 34 38 39 41 46 41 45 37 33 33 34 28 27 28 24 23 18 22
19 20 20 23 20 14 10 15 17 19 18 18 21 13 15 21 23 26 23 22 21 22 21 20 23 23 17 19 21 22 25 33 37 36 37 39 44 42 40 33 26 27 28 26 27 27 24 26 25
19 19 23 23 19 12 14 12 15 17 19 17 17 17 17 17 22 30 27 25 25 23 23 18 18 25 22 24 27 25 34 39 43 43 39 39 39 42 40 38 33 31 31 30 26 24 28 25 27
17 12 19 22 17 16 19 11 12 14 15 17 19 20 26 25 20 28 29 27 25 23 25 19 19 22 24 27 30 28 35 35 41 44 44 42 40 41 40 41 39 36 35 29 31 30 31 30 26
18 6 24 21 14 14 18 16 12 14 14 14 9 11 13 27 23 22 27 26 25 25 27 25 24 18 28 28 31 33 34 36 44 51 49 45 44 45 47 37 41 36 36 36 32 31 31 32 33
18 13 8 7 12 11 16 14 12 14 9 3 4 6 8 17 20 20 28 28 28 28 28 22 27 23 25 32 32 31 34 37 41 49 52 50 49 49 50 42 43 40 39 39 36 36 36 34 32
13 16 8 6 4 14 19 9 15 17 15 3 2 3 6 16 18 19 25 27 29 31 29 26 28 27 27 32 36 34 34 34 40 41 48 54 54 57 55 52 50 44 44 41 39 38 39 32 34
18 20 25 17 12 8 9 18 11 5 5 6 8 9 10 11 19 19 21 28 28 31 30 28 28 25 28 31 35 38 36 37 38 40 44 50 54 52 52 54 53 55 48 50 46 48 48 42 38
17 13 12 6 4 6 4 8 2 9 9 7 5 4 4 5 8 25 24 28 30 29 28 29 27 28 27 29 33 37 40 39 38 39 39 45 49 50 54 53 51 56 52 47 46 47 50 47 43
14 15 12 12 11 4 1 5 4 5 7 9 10 7 5 7 5 15 22 26 28 26 27 29 29 26 30 28 28 36 40 40 43 42 41 42 41 48 53 55 52 49 52 51 52 50 47 51 53
14 17 15 6 13 12 9 1 5 5 11 12 8 20 17 11 10 5 9 18 26 24 25 28 28 29 29 28 27 28 36 40 43 41 40 41 41 38 43 53 50 52 53 52 54 54 53 51 54

GFSSGP_850_spd_069.txt.gz
Wind_Speed
8 4 3 4 2 3 4 8 5 3 5 16 14 11 6 8 1 4 7 5 6 2 4 6 9 18 21 21 21 22 22 21 19 18 19 21 20 22 21 22 23 22 22 23 23 23 23 23 21
7 6 5 5 3 2 5 10 15 9 13 13 6 6 0 2 17 15 7 3 5 3 8 6 11 19 23 23 24 24 24 22 21 20 21 20 22 21 21 21 24 24 24 25 25 25 26 26 25
9 9 6 4 4 6 6 1 3 10 16 10 4 4 6 11 12 13 5 4 9 9 9 12 10 19 24 25 26 26 25 25 22 21 22 22 23 23 23 23 24 25 25 24 24 25 28 27 26
6 5 7 0 10 14 13 16 5 7 10 13 6 3 7 8 9 5 2 6 10 6 11 15 12 12 22 24 26 25 26 25 24 23 24 24 24 25 26 26 25 24 23 23 24 27 28 28 34
10 6 3 4 11 17 17 16 8 5 8 13 11 6 11 9 6 8 4 4 7 9 13 15 15 11 16 24 25 26 28 27 27 27 27 26 27 25 25 24 24 24 23 23 27 30 32 36 34
5 6 1 7 14 21 17 26 10 6 4 3 4 8 7 11 11 8 5 7 7 10 11 13 16 14 17 22 25 26 27 25 25 29 32 30 30 27 26 23 23 23 24 24 30 32 34 36 32
7 3 6 8 16 21 16 10 7 6 4 3 8 6 12 16 12 9 8 11 8 11 11 11 18 18 20 20 25 29 31 29 22 26 33 33 33 29 26 25 23 23 22 28 31 32 35 37 33
19 3 9 11 13 20 14 5 14 12 5 12 6 4 7 18 16 11 10 11 7 9 11 12 16 19 20 21 25 27 24 26 28 21 25 36 32 29 26 22 21 21 24 30 29 31 34 36 32
22 9 12 16 16 22 19 3 7 7 8 8 5 12 16 18 15 9 9 10 13 9 6 7 12 19 19 19 21 25 22 16 13 27 30 31 34 30 26 24 22 21 28 29 29 29 35 36 31
13 8 16 15 20 20 18 10 13 8 11 11 17 8 19 17 10 6 8 14 15 10 8 7 8 13 17 18 18 18 18 18 22 26 32 43 38 32 29 24 23 25 29 29 29 32 37 37 33
16 18 14 20 34 28 21 16 9 5 5 6 4 25 18 13 10 10 13 13 13 12 7 9 12 12 14 15 16 16 15 13 23 26 24 40 38 34 31 29 28 28 29 30 31 35 36 36 33
12 23 25 27 39 31 18 23 9 7 6 11 7 15 20 14 13 12 8 14 12 8 6 10 10 12 15 16 15 14 14 19 16 30 38 42 41 37 34 32 32 31 29 31 33 34 36 36 30
18 19 29 33 35 35 34 15 12 12 14 7 9 16 17 14 14 10 15 11 10 9 9 8 10 13 13 12 11 10 11 18 20 28 41 46 42 38 34 35 35 34 34 32 33 34 38 32 24
21 21 23 29 29 29 19 12 12 21 17 20 16 18 16 14 14 14 18 17 15 11 6 13 12 13 13 10 8 6 12 14 23 39 44 44 40 37 37 38 36 35 33 32 33 34 37 23 25
24 17 16 18 21 18 25 11 8 24 21 24 28 24 17 14 13 14 13 15 13 10 9 16 16 16 11 8 6 10 13 21 24 36 40 42 39 39 37 38 37 34 32 32 30 31 29 19 18
7 8 12 10 12 17 14 16 13 29 28 30 31 24 20 22 20 18 14 13 12 12 11 18 19 16 14 10 8 13 13 12 31 31 35 38 37 36 36 39 38 35 33 32 29 27 22 20 19
5 5 9 12 12 14 10 16 16 29 30 22 31 26 26 26 24 22 21 19 16 12 13 16 16 18 14 12 13 16 19 20 26 36 41 42 38 33 32 38 38 34 35 31 26 31 26 25 20
6 5 8 11 17 13 20 20 17 26 20 12 21 20 25 33 30 26 25 21 16 13 13 14 16 16 13 11 17 20 19 19 22 42 45 45 40 37 33 37 37 34 34 32 24 32 26 26 22
16 15 13 11 12 13 20 23 14 17 14 13 23 25 21 37 32 29 28 21 15 15 16 16 19 19 18 15 19 21 21 22 32 38 40 40 40 37 35 38 37 37 33 33 29 32 27 27 25
18 18 17 16 16 12 19 17 10 7 8 17 26 29 29 34 35 35 30 24 19 19 20 19 20 21 21 16 17 17 20 24 31 34 42 43 42 40 39 42 40 37 35 34 32 32 29 27 27
18 15 16 15 19 21 18 15 4 6 9 19 18 37 35 34 40 38 33 28 22 22 24 20 21 21 21 19 18 16 15 18 27 29 42 46 48 40 36 41 44 31 30 32 30 34 30 28 29
13 17 13 15 12 11 17 10 7 9 16 15 18 21 38 32 42 40 36 32 26 24 24 22 20 22 20 23 22 21 25 32 32 31 43 44 48 41 40 35 40 36 30 33 35 33 32 30 30
9 16 9 9 10 12 19 5 6 9 8 16 15 24 32 34 45 44 40 34 27 23 24 23 17 21 24 23 24 24 25 31 34 35 42 45 48 42 41 40 39 35 34 33 34 34 33 33 28
14 13 10 8 3 5 12 7 6 8 11 7 7 26 35 33 45 43 39 33 26 23 23 24 22 17 27 27 29 27 27 31 38 40 45 49 49 45 43 40 38 32 28 31 33 35 33 30 29
10 3 2 2 4 3 8 12 13 11 13 12 4 17 24 35 39 42 39 35 31 27 25 26 24 22 23 31 32 30 28 32 39 42 44 47 44 44 49 43 40 43 35 36 35 33 34 34 33
12 10 3 6 3 2 8 6 9 15 19 17 10 10 13 28 38 41 39 37 34 29 24 24 25 23 22 30 35 34 31 32 38 40 43 44 45 47 48 46 46 46 43 36 39 35 36 36 37
5 7 16 6 6 1 5 7 22 15 16 7 8 10 17 30 36 39 39 38 35 31 28 25 25 25 24 25 33 36 36 37 37 38 40 45 46 46 46 46 47 46 46 42 36 37 37 37 38
7 3 4 4 3 4 5 11 2 10 7 5 6 7 11 23 28 37 40 39 36 31 27 26 23 25 24 24 29 35 36 36 36 36 36 39 48 48 48 49 50 50 44 45 45 42 43 43 43
7 5 5 3 7 2 2 4 3 10 15 13 14 23 25 29 24 29 38 39 36 32 28 25 23 24 26 26 27 32 36 36 38 39 39 39 39 48 53 53 53 56 55 53 53 51 50 50 50
4 11 12 2 1 4 2 5 6 6 11 13 12 20 32 36 40 7 30 36 34 32 28 26 24 23 24 23 26 26 33 38 40 42 42 39 40 42 46 54 58 56 57 60 61 59 61 54 55

GFSSGP_850_spd_072.txt.gz
Wind_Speed
5 5 4 2 3 4 4 7 5 8 2 5 8 9 9 4 2 4 17 8 8 3 1 1 9 18 23 24 25 25 24 22 20 19 21 21 21 22 21 20 20 20 20 22 25 25 25 21 19
5 7 4 2 3 1 5 5 7 9 7 12 12 14 5 2 9 10 14 11 3 3 3 4 8 16 22 24 25 26 26 24 21 21 22 23 23 23 22 22 21 21 22 22 25 27 25 22 21
7 9 2 4 4 6 5 4 9 9 15 10 6 2 9 14 12 10 7 6 3 5 9 8 8 12 21 25 26 27 26 24 23 21 22 23 22 23 24 24 23 22 21 25 26 27 27 26 26
7 5 3 3 10 9 7 5 10 4 8 8 12 6 7 13 15 11 9 5 3 4 9 10 9 11 18 26 27 27 28 28 26 24 25 24 25 25 24 24 25 24 23 25 28 29 30 30 28
9 3 1 3 9 12 7 12 18 11 10 10 13 7 12 17 11 12 9 6 6 4 9 12 11 11 13 21 27 29 29 29 27 27 27 27 26 25 27 27 28 26 24 26 30 31 30 32 30
5 2 2 7 9 14 8 22 23 22 14 13 8 10 8 16 15 12 10 9 6 8 10 13 14 14 14 16 23 29 32 33 31 30 28 29 27 26 28 29 28 27 23 27 32 33 36 32 28
6 4 5 5 5 11 13 17 20 14 13 8 12 6 8 20 16 13 12 11 6 8 9 13 15 18 20 20 20 27 31 33 26 20 21 20 27 25 29 28 27 26 23 35 36 38 36 32 27
7 4 4 4 5 12 8 16 24 9 6 10 14 6 7 22 19 17 14 10 7 6 6 11 15 19 22 24 24 25 29 26 25 18 23 24 22 25 28 27 26 25 24 37 39 38 33 28 25
11 2 5 6 12 15 16 7 26 14 10 11 14 13 13 22 24 19 16 13 10 9 9 8 10 15 20 22 22 25 25 26 26 28 29 21 26 31 30 28 27 25 30 38 39 38 33 27 24
7 7 10 9 8 15 16 12 24 18 9 11 9 7 10 24 26 21 18 13 11 13 13 11 11 13 17 21 20 21 19 15 31 36 25 34 26 37 35 30 27 27 34 37 39 39 32 25 25
7 13 6 12 23 26 15 18 28 17 9 15 13 15 22 28 24 19 16 11 11 12 15 12 12 12 14 19 20 20 21 22 29 33 32 37 34 39 36 32 28 30 37 37 40 40 33 27 26
8 9 17 20 25 24 17 32 16 20 21 15 19 18 28 27 25 20 17 15 18 16 13 13 15 15 15 15 16 17 20 22 26 29 35 32 39 41 38 35 32 35 36 37 39 43 36 32 27
11 14 24 26 27 29 31 24 25 28 36 17 8 21 28 26 22 18 19 17 16 14 11 13 13 13 12 15 16 18 19 20 22 27 35 32 39 46 42 37 35 37 37 38 42 44 40 35 22
8 17 24 26 27 28 19 21 14 32 31 21 11 24 26 23 23 24 22 19 16 12 9 10 11 10 11 12 13 14 18 19 23 25 35 32 51 52 44 41 38 38 38 38 42 44 41 37 23
9 12 15 16 12 10 17 17 11 30 29 21 19 21 29 26 26 23 20 20 16 12 10 12 13 15 14 14 13 13 12 15 22 28 30 39 49 46 44 41 40 39 38 40 42 42 40 34 24
4 4 8 7 10 14 9 19 13 26 25 24 26 24 28 28 27 25 21 21 18 15 11 16 16 16 16 13 12 11 11 14 15 26 44 45 47 44 42 40 40 39 37 39 41 43 38 35 27
4 7 7 5 6 7 8 13 9 25 23 25 29 32 27 30 30 27 25 23 20 16 12 18 19 18 17 14 11 14 11 11 22 36 40 40 39 39 39 38 39 38 37 39 40 45 32 34 28
5 4 4 4 4 4 9 11 11 24 20 26 30 32 31 37 38 34 28 23 20 17 13 17 22 20 20 16 16 18 15 15 23 28 30 35 36 36 38 40 40 38 39 38 39 43 32 28 25
5 8 9 11 12 5 8 14 18 18 25 19 24 26 32 44 41 35 29 25 22 19 17 19 21 21 21 18 18 22 24 23 27 27 33 39 40 38 38 39 40 39 40 39 37 36 31 29 26
4 9 13 13 15 7 8 15 17 19 13 21 26 29 36 36 35 37 32 30 27 22 19 19 20 22 20 17 17 26 25 26 26 28 33 40 41 41 38 39 41 39 41 40 34 36 37 34 30
5 7 9 16 19 11 8 10 8 14 8 14 23 34 32 37 41 40 37 35 32 26 23 21 18 18 21 20 16 20 24 24 27 30 41 45 44 39 38 39 44 42 42 42 35 37 38 36 34
14 6 8 16 9 6 5 5 7 10 11 8 11 20 29 36 41 45 43 40 35 29 24 21 19 18 21 21 21 22 23 28 31 35 38 32 39 40 38 38 41 43 40 40 39 36 39 36 37
8 8 13 13 3 3 4 4 6 7 13 11 9 18 25 37 44 48 48 45 37 31 27 24 20 16 21 22 21 23 21 20 22 27 33 38 43 42 40 38 40 44 44 41 37 36 36 37 35
8 4 10 6 3 4 6 4 6 5 6 8 6 19 19 37 47 49 47 43 38 31 27 25 23 18 18 23 22 23 21 20 21 27 29 31 40 42 38 37 40 41 44 36 35 39 39 34 35
7 0 2 5 4 5 7 7 13 8 13 11 11 24 24 39 45 44 46 44 39 34 30 28 25 22 18 24 23 24 24 22 23 26 28 31 40 46 44 37 35 38 42 30 27 30 38 38 35
10 6 2 4 3 1 5 5 5 6 13 21 24 28 18 38 45 50 49 45 40 36 32 29 27 25 21 22 27 28 27 26 24 26 30 36 44 46 48 42 39 36 35 32 36 35 34 39 39
4 7 5 2 0 1 4 5 6 10 15 18 14 15 26 39 43 48 47 42 40 37 32 29 26 25 22 20 26 30 31 30 28 30 33 37 42 48 52 49 48 45 43 41 36 36 37 38 37
6 1 3 3 2 4 4 2 3 10 17 8 13 10 15 10 30 42 43 43 40 36 31 27 23 21 21 20 23 29 33 32 30 32 38 39 40 45 49 50 48 51 46 44 44 42 39 42 40
4 3 3 2 3 1 2 2 10 14 12 10 12 20 22 15 21 31 40 40 38 34 30 26 24 22 21 22 20 26 31 36 34 33 37 39 40 42 44 45 45 47 50 49 49 48 47 46 46
10 7 5 3 5 5 1 3 10 14 17 15 13 23 32 34 12 19 16 19 27 31 31 26 24 22 18 18 19 22 25 33 38 39 36 37 38 38 40 44 49 50 51 51 51 52 52 53 51

GFSSGP_850_spd_075.txt.gz
Wind_Speed
6 5 4 1 3 4 4 7 4 7 6 4 4 5 7 4 4 4 18 11 10 8 6 6 11 18 23 24 24 24 24 22 19 19 20 24 25 26 28 26 24 22 22 22 22 23 23 23 21
9 8 5 3 4 1 5 5 6 6 9 4 8 15 3 2 7 10 19 13 8 5 4 5 10 17 24 26 26 26 26 24 21 20 21 23 25 27 27 26 24 23 22 22 24 23 23 21 21
11 10 5 4 4 6 6 6 4 11 14 5 3 4 8 4 11 11 12 13 10 7 5 5 8 15 24 27 27 27 26 24 23 21 23 24 27 26 26 24 24 23 22 24 24 24 23 21 20
10 6 3 4 8 7 7 5 2 11 23 11 10 2 6 12 10 13 12 9 7 3 4 4 7 12 19 26 28 28 27 25 24 23 24 25 25 25 25 24 23 22 22 24 27 27 25 23 23
13 4 2 3 7 7 4 10 17 11 5 16 15 6 4 11 14 14 13 10 8 4 7 8 9 11 14 21 26 28 27 26 25 25 26 26 26 26 25 24 22 21 23 25 28 28 28 27 27
5 3 2 5 6 6 7 14 12 11 23 28 9 7 7 13 15 16 15 13 9 5 7 9 11 12 12 14 21 25 27 27 27 29 28 26 26 25 26 26 26 26 26 27 29 31 31 30 28
6 4 6 6 4 7 6 6 5 8 17 15 11 7 4 15 17 19 16 13 9 6 7 10 13 16 17 18 17 21 24 25 24 28 26 21 22 19 24 26 27 27 26 28 33 32 30 29 27
5 4 4 6 6 11 7 4 6 5 16 9 18 6 5 22 22 20 16 12 9 8 7 8 13 16 18 21 21 22 24 30 26 21 12 22 18 18 23 23 26 25 24 33 33 31 31 29 26
7 1 5 8 10 8 3 4 4 11 11 22 9 11 10 23 25 22 20 18 16 12 10 10 10 14 17 21 23 23 25 31 31 19 30 23 20 28 23 27 25 25 24 35 35 35 31 26 23
6 5 10 6 11 7 2 5 20 10 18 22 23 14 11 23 28 28 27 23 18 14 13 12 13 13 15 17 23 23 26 29 32 33 30 35 29 31 26 25 25 26 26 36 39 35 30 25 25
6 12 4 7 18 15 6 12 11 8 13 22 20 26 17 26 31 29 27 21 15 13 15 14 14 15 15 16 20 21 21 20 25 30 33 30 32 29 35 30 28 29 33 40 40 35 30 27 26
8 9 18 9 17 12 7 21 10 13 26 35 34 31 27 31 31 29 28 22 18 17 15 14 15 17 16 16 20 21 20 19 17 30 32 31 32 24 34 37 36 33 40 42 41 37 31 26 24
10 8 18 20 20 21 23 16 17 21 38 40 35 29 31 29 30 29 26 20 19 20 16 15 15 17 15 14 16 19 20 21 22 29 36 33 37 37 33 44 39 36 46 45 41 36 32 29 27
10 13 19 20 23 20 12 16 12 29 38 33 29 24 31 31 32 30 28 25 22 20 16 13 14 12 12 13 15 17 19 21 26 32 38 39 38 37 46 45 41 37 47 46 43 35 33 31 25
14 12 9 7 6 7 14 15 10 30 34 33 29 26 34 34 34 33 32 23 23 20 17 12 12 12 12 14 13 17 19 22 26 30 35 39 45 39 49 48 44 39 47 47 45 38 35 32 26
5 5 7 3 8 9 11 25 12 21 26 27 31 27 32 37 35 34 33 25 24 23 18 13 12 14 15 15 15 15 16 15 17 26 31 36 43 41 45 48 42 40 45 45 47 44 38 31 24
3 11 9 6 8 6 9 13 8 15 18 18 24 20 28 37 37 36 34 28 26 24 18 14 14 16 16 16 16 15 13 13 16 20 27 30 39 54 55 49 43 43 44 44 48 45 41 31 25
5 6 4 5 3 3 6 9 9 18 16 20 23 25 22 35 40 41 37 31 27 25 18 15 16 18 18 17 18 14 13 12 11 20 27 31 36 40 45 43 43 43 44 45 48 47 40 34 28
6 5 5 5 8 6 8 13 13 9 14 14 24 28 31 29 36 44 38 33 29 27 22 19 19 21 20 20 18 15 16 9 16 14 26 35 31 36 36 38 40 41 43 44 47 46 38 31 27
8 9 9 6 7 10 8 12 14 14 9 20 23 29 32 27 29 38 38 36 33 30 24 21 21 21 20 21 18 16 18 13 17 23 23 21 27 32 33 36 39 42 41 44 45 46 39 32 28
9 7 4 7 9 16 4 13 15 13 9 18 26 31 28 29 33 37 40 40 36 33 27 22 22 21 20 21 17 18 20 19 22 24 22 29 33 37 37 36 39 41 41 43 43 46 40 37 31
10 6 9 5 6 9 2 7 9 8 8 5 14 15 22 27 34 40 43 43 40 35 28 22 21 19 19 19 19 18 25 27 27 28 26 28 34 37 39 40 39 39 38 40 40 44 42 36 37
5 4 4 6 8 7 8 6 7 5 9 10 8 8 15 29 38 44 47 47 43 37 31 26 22 20 18 18 19 17 24 25 24 25 28 31 36 39 39 40 43 39 38 41 39 37 37 37 38
1 3 4 6 7 7 10 8 4 5 9 5 5 7 12 24 37 45 44 45 43 37 32 28 25 21 18 18 21 20 22 23 27 28 31 29 27 40 42 38 39 39 40 39 41 38 36 38 39
8 2 2 4 6 6 6 9 11 8 8 12 13 19 23 16 24 37 43 45 43 41 35 30 28 25 20 19 20 22 20 18 19 22 25 30 31 28 33 36 40 41 42 41 39 42 40 41 41
11 5 3 4 3 3 5 5 5 10 13 7 20 27 30 24 26 41 49 48 45 41 36 33 30 27 23 20 20 21 21 20 18 19 26 27 32 34 32 39 37 36 38 42 41 39 42 34 38
3 8 0 3 3 1 4 5 5 11 13 14 18 21 16 18 25 42 46 48 43 41 38 34 29 28 24 20 20 22 22 22 21 18 20 27 31 33 32 37 37 37 39 41 42 42 37 34 41
4 1 2 3 3 2 4 5 3 11 14 15 16 18 26 10 23 31 39 44 40 41 36 32 27 25 22 20 20 21 22 24 22 20 20 21 24 26 30 42 40 37 34 36 38 39 35 36 34
4 3 3 2 2 2 3 0 5 9 12 13 15 22 24 3 16 17 19 25 32 32 33 29 25 23 22 18 18 19 22 24 24 23 22 23 23 25 29 34 41 42 39 37 34 35 35 37 39
5 5 4 2 3 3 0 3 5 8 13 17 16 19 23 26 25 19 14 12 15 21 27 25 22 19 17 14 17 16 18 20 25 25 24 24 27 29 30 32 36 43 45 44 44 44 45 47 47

GFSSGP_850_spd_078.txt.gz
Wind_Speed
10 8 6 4 3 5 4 6 3 5 5 2 4 5 8 4 5 4 19 16 14 11 8 8 13 17 19 21 21 21 22 22 23 22 24 26 26 27 27 27 27 25 24 23 22 21 19 18 21
11 11 8 4 4 1 5 4 6 6 8 10 2 5 2 3 6 9 19 16 13 9 8 8 12 17 21 22 22 23 23 22 22 22 23 27 28 28 27 26 26 24 22 21 22 23 22 23 24
12 13 6 4 4 6 6 7 7 3 11 3 3 2 3 3 8 12 13 13 11 9 8 8 11 17 22 23 23 23 22 21 21 22 23 26 28 29 28 27 26 23 20 20 21 22 24 24 22
12 6 3 4 8 7 7 4 3 8 10 4 0 3 6 7 5 9 14 15 11 9 8 8 9 16 21 24 23 23 22 21 21 21 21 28 27 31 29 28 26 22 21 21 22 23 25 25 23
14 4 2 2 6 7 5 13 4 7 4 14 4 5 5 10 8 14 14 13 11 9 7 6 9 13 17 22 23 23 23 23 22 23 24 29 30 31 30 28 26 23 21 24 25 25 26 24 23
5 3 2 5 5 7 7 14 4 6 8 18 6 9 8 13 13 14 15 13 11 9 8 8 10 12 15 18 21 23 23 24 24 24 27 29 30 26 23 26 23 22 23 25 26 27 26 25 24
6 4 5 5 3 5 17 9 6 5 7 8 11 7 8 16 18 16 17 16 13 11 10 10 12 13 14 16 16 20 22 23 22 22 22 20 19 22 23 22 20 21 26 27 27 28 27 26 25
4 4 3 5 5 9 6 3 3 4 5 9 1 3 5 16 23 20 20 17 15 14 12 10 11 12 14 17 18 20 22 23 27 28 25 32 26 22 24 18 23 27 28 28 29 29 27 27 26
5 1 3 6 7 7 3 1 3 3 9 13 4 14 10 8 27 25 24 22 20 19 14 12 11 12 15 17 18 20 23 26 29 27 27 28 24 21 26 24 23 26 28 28 30 29 29 27 24
5 5 7 7 6 6 3 1 10 6 8 16 19 11 12 15 29 29 28 26 24 22 17 13 12 13 15 17 18 21 23 26 28 31 32 25 14 22 29 27 28 28 27 29 31 30 29 27 24
5 6 3 4 11 12 5 8 16 5 7 21 18 14 25 14 28 31 29 26 24 20 17 15 14 16 16 17 18 21 27 27 27 32 31 26 22 29 26 37 31 28 27 32 32 31 30 27 24
4 8 10 8 20 17 8 8 10 19 19 33 32 27 31 21 26 37 33 27 26 23 19 18 16 16 16 17 17 19 22 23 30 34 36 33 30 33 36 32 29 30 30 35 35 34 31 26 24
6 6 13 18 17 18 22 15 19 22 28 36 33 29 28 26 27 37 37 29 25 25 21 20 18 16 16 17 18 20 21 23 22 24 27 30 30 30 36 34 34 33 30 38 37 35 31 27 25
5 8 10 15 20 24 16 23 13 12 25 33 31 29 28 29 26 35 39 32 28 26 22 21 19 15 15 15 16 21 22 22 23 21 27 32 29 35 39 37 37 34 32 38 38 35 31 27 25
10 8 7 5 7 8 18 16 14 23 26 29 30 28 27 27 27 35 38 33 29 27 22 23 19 14 12 14 14 19 21 23 24 23 24 31 34 37 34 34 37 36 34 38 40 35 31 27 27
4 2 3 3 2 8 13 26 9 15 18 26 29 27 26 28 29 35 39 36 29 27 24 24 19 14 12 15 15 15 20 21 24 27 29 34 39 41 39 32 35 41 37 41 42 37 32 32 30
2 5 8 7 7 7 10 20 6 15 15 16 19 19 20 22 29 36 40 37 33 28 25 25 19 14 15 16 15 16 18 20 22 26 30 34 40 44 41 39 42 44 39 44 45 40 36 34 29
4 4 4 4 5 2 8 16 8 18 15 15 21 23 23 23 23 29 42 40 35 30 26 23 19 16 18 17 16 15 15 15 17 18 22 31 34 36 34 44 42 43 38 48 46 41 38 35 29
3 4 9 2 7 6 14 13 11 10 11 13 25 28 27 26 29 25 38 40 36 31 29 26 20 19 20 20 19 18 15 13 11 16 19 28 32 34 47 39 37 41 38 48 47 43 38 34 29
5 8 10 8 10 8 8 16 16 13 8 17 23 29 31 28 31 28 36 40 37 34 33 27 22 20 21 20 18 18 14 12 12 11 10 33 28 34 47 43 41 40 40 47 48 46 41 35 31
6 7 9 11 5 10 8 21 11 7 8 16 28 29 28 28 32 30 34 39 40 38 35 30 23 21 22 20 18 15 13 13 14 15 10 15 20 32 32 31 34 36 38 43 46 48 45 38 35
5 7 10 10 5 7 3 10 4 7 13 8 18 20 23 23 24 27 36 34 42 40 37 29 23 21 22 20 18 17 17 18 19 19 19 17 21 21 30 28 26 29 35 41 44 48 46 42 38
6 2 3 3 5 5 4 5 4 4 6 9 9 18 18 18 23 30 38 31 42 41 37 30 25 21 20 18 16 14 17 20 21 21 19 21 23 25 30 39 33 30 35 39 41 47 46 42 38
0 1 5 3 2 6 12 7 3 4 9 6 6 8 17 13 19 25 29 31 40 41 36 31 27 23 20 18 14 15 14 19 21 20 20 20 20 23 29 38 40 36 33 35 38 41 42 43 39
3 2 3 2 3 4 2 6 11 10 11 6 5 12 16 14 12 19 25 32 40 42 38 35 30 25 20 17 14 15 15 17 20 20 19 21 23 23 34 35 40 41 42 41 35 35 36 44 41
5 5 3 3 2 3 4 5 3 7 11 13 10 14 16 14 14 25 26 31 40 43 40 36 32 25 20 17 14 14 16 14 14 15 17 21 24 24 27 41 38 43 44 43 41 43 43 41 41
3 6 1 3 3 2 3 6 2 17 19 18 18 22 21 21 12 26 30 33 39 42 42 37 31 23 19 16 14 14 15 16 16 12 12 15 17 21 20 19 23 25 33 40 44 44 46 43 41
3 4 2 2 3 2 4 1 4 13 17 16 16 17 26 15 3 11 23 28 31 32 33 31 28 21 18 16 13 13 15 14 14 13 11 13 17 19 22 22 23 27 30 33 37 42 49 43 45
3 2 3 2 2 1 3 1 4 10 12 14 15 20 24 21 10 10 14 18 23 25 24 25 24 19 17 14 11 10 11 13 14 13 12 12 12 18 21 24 26 27 30 30 31 34 39 43 44
6 3 5 3 2 2 1 4 3 5 11 14 17 22 23 24 22 17 15 17 22 23 21 21 19 15 12 10 8 9 7 10 13 14 15 14 14 13 15 16 21 25 33 32 32 32 33 38 38

GFSSGP_850_spd_081.txt.gz
Wind_Speed
11 10 9 5 3 0 3 5 3 4 3 3 4 5 8 2 5 2 9 19 18 15 12 11 11 13 16 18 18 20 20 21 24 25 24 25 27 25 25 24 25 24 23 22 21 20 19 18 19
12 12 9 3 3 5 5 3 7 6 3 10 6 5 4 4 6 5 20 20 18 14 11 10 10 13 18 20 20 20 21 22 23 24 25 26 28 28 26 26 26 26 24 22 21 19 18 18 20
13 14 5 3 3 11 6 6 8 3 11 3 1 4 3 3 7 13 15 21 17 14 11 10 11 14 19 20 20 20 21 22 23 25 26 28 26 26 28 29 27 26 23 21 21 20 19 21 24
13 7 2 4 11 6 7 1 3 3 3 2 3 6 6 6 2 12 17 20 15 13 11 9 11 14 17 20 21 20 21 23 24 25 25 25 27 30 28 28 27 25 22 20 21 21 21 24 23
16 4 3 4 7 5 5 8 5 9 7 5 5 7 6 13 11 11 17 19 16 12 11 9 10 13 16 19 21 21 22 23 23 23 24 25 28 28 27 26 27 24 21 21 22 22 24 25 22
6 3 4 11 10 6 10 11 7 11 5 10 2 7 9 15 14 14 18 19 16 12 11 10 10 12 15 18 21 22 22 22 23 24 26 28 24 25 24 22 21 20 20 23 23 24 26 25 23
5 3 8 7 5 4 14 5 9 13 13 6 6 4 6 15 15 18 19 20 17 15 14 13 12 12 15 17 19 21 21 21 24 24 24 24 24 27 23 19 17 18 19 23 25 25 25 25 23
6 2 4 6 9 11 7 5 6 10 8 3 3 3 5 9 17 20 21 22 19 17 16 14 14 14 16 18 19 21 22 22 24 26 29 28 27 25 27 26 17 19 20 25 26 25 25 25 23
9 5 10 8 8 6 5 4 7 7 7 4 5 6 14 15 12 22 25 26 23 22 19 16 15 15 15 18 19 21 22 25 25 26 28 28 31 31 34 29 27 22 26 29 27 26 25 26 24
6 6 9 7 7 10 10 8 12 4 10 16 16 14 11 18 9 24 28 30 28 25 23 18 16 15 14 17 19 23 23 25 27 28 27 27 28 30 20 20 27 29 31 28 27 26 27 27 26
6 9 5 6 9 9 8 15 14 13 13 22 21 17 20 22 14 18 30 31 30 26 23 19 16 16 14 17 20 22 24 24 27 27 28 27 30 24 20 25 26 32 31 29 27 28 30 30 27
6 9 11 6 16 18 18 27 24 21 17 28 28 30 27 30 26 22 26 34 33 27 24 21 17 17 15 18 20 22 23 24 25 24 25 33 36 29 20 28 25 33 33 31 31 32 32 29 25
6 6 10 17 18 22 22 22 21 17 19 33 31 31 28 29 29 26 26 33 37 30 28 24 18 18 18 19 20 21 21 25 26 25 26 37 36 31 23 29 32 33 26 29 34 36 32 29 24
3 8 9 9 17 18 20 25 15 20 19 27 29 29 30 28 28 27 25 30 36 34 29 27 21 19 18 18 18 20 21 21 21 22 29 33 35 33 29 31 36 35 32 31 37 35 33 28 23
5 7 10 12 13 9 14 12 15 25 25 23 27 26 28 29 28 26 22 26 33 35 31 30 22 20 17 17 16 21 22 22 23 23 25 29 35 31 31 34 37 35 34 31 35 34 32 29 27
4 4 7 2 1 7 6 9 9 13 16 19 21 23 28 27 26 25 23 25 30 33 33 30 24 21 17 16 17 20 23 23 23 23 25 24 27 31 31 35 40 37 35 32 34 36 33 29 28
2 6 6 5 6 10 8 9 6 15 12 16 19 20 19 21 21 20 20 25 29 31 31 31 25 22 17 17 17 17 21 23 24 25 26 25 27 35 35 41 38 39 37 35 39 37 35 32 30
5 5 4 4 6 13 19 21 12 17 13 15 18 19 18 20 23 19 18 23 28 32 29 29 25 23 19 19 19 20 19 21 23 25 29 30 31 33 38 40 39 38 39 37 41 39 35 31 30
9 11 13 10 8 14 17 22 20 18 17 18 20 21 21 24 25 23 21 24 26 31 32 31 29 25 21 21 22 23 22 21 20 21 22 24 32 39 41 40 44 36 35 40 42 41 38 33 33
10 12 13 10 8 9 14 23 20 18 21 25 26 23 24 28 30 29 25 25 27 31 35 33 30 26 22 22 21 21 19 17 15 16 15 22 25 31 40 41 41 40 37 41 44 45 40 35 35
9 10 9 10 13 12 17 20 18 16 22 25 23 23 24 26 31 29 29 29 28 32 38 35 33 27 23 21 19 19 16 15 14 16 14 15 18 31 34 35 41 41 39 44 42 47 45 40 36
7 6 9 7 6 4 6 10 11 16 17 16 21 22 23 26 27 30 32 32 33 34 37 36 33 27 23 22 21 20 18 16 17 14 11 6 7 12 30 38 38 32 33 41 40 47 44 43 40
5 2 4 6 8 7 9 7 5 6 12 15 16 22 23 23 22 28 32 31 29 32 37 38 33 28 23 23 19 19 17 16 17 17 14 9 12 15 14 34 39 30 30 36 37 45 43 42 40
3 2 6 5 4 4 11 12 7 6 5 9 10 12 11 15 15 15 20 23 26 29 37 38 33 28 23 21 17 16 16 17 20 19 18 17 18 19 18 23 27 28 26 26 31 37 41 42 41
3 1 2 1 3 4 1 9 12 15 12 11 10 16 18 16 11 11 18 23 27 31 36 36 34 30 24 19 15 15 16 15 19 19 20 19 17 20 24 24 31 35 36 28 31 37 38 42 43
6 5 3 3 2 2 1 6 1 8 11 15 15 17 18 19 14 13 17 22 27 30 36 37 35 31 24 19 15 14 16 14 16 16 16 16 17 19 19 17 33 36 37 37 35 34 34 39 43
3 5 1 2 3 4 4 4 10 13 17 19 21 23 26 27 19 13 16 20 22 25 30 35 36 29 22 19 15 16 17 17 15 14 14 13 15 18 16 20 22 41 41 39 43 47 44 38 40
3 4 3 3 3 4 3 3 4 14 18 19 19 21 24 25 19 8 10 18 19 22 27 33 31 27 21 17 13 15 17 16 14 11 8 9 10 11 13 14 23 32 38 42 42 45 47 48 43
4 2 3 1 3 2 3 1 4 9 11 13 15 20 21 21 18 7 5 12 15 22 26 29 27 26 21 17 12 11 15 16 14 12 9 7 8 12 14 14 15 17 21 26 39 44 42 47 46
5 6 5 2 2 3 1 4 3 6 10 12 13 17 19 18 17 13 9 14 18 21 24 26 27 23 20 16 12 11 10 14 14 13 13 12 10 10 15 16 16 17 17 24 25 31 35 39 46

GFSSGP_850_spd_087.txt.gz
Wind_Speed
15 11 5 9 8 8 17 17 5 5 6 4 4 7 8 17 3 1 5 8 11 14 10 9 7 6 8 11 14 16 15 15 16 15 17 18 19 18 17 17 16 17 17 15 16 16 16 16 15
11 10 11 12 10 15 15 17 9 9 5 2 6 8 12 11 4 4 7 9 13 14 13 10 6 7 9 10 13 15 16 16 16 16 18 21 21 21 19 18 18 19 17 16 16 17 16 16 15
16 15 14 7 16 19 17 14 6 8 2 9 8 7 11 7 3 4 6 14 15 15 13 9 7 7 7 10 11 13 14 15 16 16 18 21 22 23 21 19 21 20 18 17 17 17 16 16 16
15 13 14 14 22 19 21 17 1 7 7 9 8 5 4 6 1 6 11 16 17 15 12 9 9 7 7 10 12 13 14 15 16 17 18 20 21 20 20 20 22 20 19 18 18 16 15 16 16
18 14 12 18 25 25 19 13 7 10 11 6 6 12 10 7 10 7 12 16 17 16 14 11 10 8 8 10 12 13 14 15 16 16 16 17 20 21 22 22 22 21 19 17 15 16 15 15 16
17 21 16 18 24 24 19 14 16 14 16 15 15 14 12 7 6 8 12 16 16 15 16 13 11 9 9 11 12 14 15 16 15 15 15 17 20 22 21 20 19 17 17 15 14 14 11 15 18
20 15 20 25 23 21 14 12 19 21 19 22 23 16 15 6 3 5 12 17 16 15 16 15 14 12 11 12 14 16 17 17 16 14 17 18 20 21 21 23 23 22 15 12 12 13 12 16 19
24 16 28 23 20 25 17 13 22 17 19 20 10 9 15 3 2 7 13 18 17 16 17 18 17 15 13 14 15 17 18 18 18 17 19 20 21 22 25 27 24 18 14 15 13 12 13 16 20
20 16 21 25 23 22 10 14 21 17 20 19 16 19 7 1 2 3 14 18 18 16 17 20 19 17 15 13 15 18 20 20 21 21 21 21 22 24 25 27 25 20 23 22 17 15 15 19 20
20 16 26 22 21 15 8 17 16 15 18 20 21 18 18 10 9 7 15 20 20 19 18 16 21 19 17 14 14 17 19 21 22 23 22 22 24 26 28 28 27 21 27 26 28 24 17 20 23
26 24 21 24 17 15 18 19 22 21 21 23 20 21 21 22 16 12 13 22 23 22 19 18 18 21 19 18 13 12 15 18 21 21 22 20 23 24 26 30 34 26 25 26 25 24 21 26 26
23 26 25 21 24 18 18 24 25 27 25 24 24 24 25 24 22 19 19 19 25 25 24 22 19 22 18 14 15 14 20 21 19 22 22 22 24 24 25 27 26 29 30 27 28 33 27 28 27
22 22 25 27 23 22 26 25 27 31 30 29 29 30 30 27 27 26 24 22 22 28 26 25 23 22 20 22 20 19 20 23 24 24 22 23 23 26 22 24 26 28 29 27 29 31 32 30 25
20 20 19 23 25 22 21 24 28 30 30 30 31 32 29 29 27 28 28 27 24 25 28 25 24 24 24 22 21 22 21 21 24 24 22 24 25 24 24 23 24 29 27 29 28 30 29 30 26
19 22 20 21 25 24 25 25 25 31 31 33 32 30 29 31 31 32 31 29 27 26 26 27 25 24 24 22 20 22 22 21 22 22 21 22 25 22 27 25 27 27 23 27 25 34 28 28 23
15 19 18 18 18 13 18 20 17 11 16 19 24 27 29 31 32 30 32 32 28 26 27 28 25 26 25 20 18 15 17 19 21 20 22 22 22 22 25 28 29 23 21 24 33 35 33 28 26
16 17 19 16 11 11 15 17 14 18 14 16 18 22 23 24 27 29 32 33 31 27 27 30 28 26 25 21 19 17 17 18 22 22 22 23 23 26 26 28 28 23 21 22 22 36 31 27 26
15 18 17 17 12 6 16 20 19 25 26 29 31 28 26 26 23 25 27 31 30 27 26 29 28 25 25 21 20 19 19 16 22 24 21 20 22 24 27 31 31 26 26 29 30 29 28 24 24
18 22 21 20 16 17 22 22 21 21 27 26 30 30 29 26 24 22 27 30 24 23 27 30 29 27 26 30 26 22 21 17 21 23 22 23 24 24 26 27 31 29 36 32 36 36 32 28 28
19 22 23 21 19 15 19 22 20 22 23 30 29 28 28 25 26 26 26 29 22 24 27 29 28 27 33 30 21 20 17 15 15 21 22 25 26 26 26 26 24 32 33 31 39 41 37 32 32
18 19 21 20 18 19 22 24 24 17 19 19 21 27 28 27 27 25 26 30 23 24 26 29 28 27 28 22 20 16 14 14 16 17 18 18 20 22 24 27 29 32 39 32 41 41 41 38 33
18 17 17 15 15 11 12 14 19 17 9 8 8 13 16 24 28 25 26 30 28 25 25 27 28 28 27 24 22 20 18 16 15 15 15 16 22 20 23 25 28 32 35 40 39 43 45 39 36
17 13 10 14 15 16 18 11 16 12 8 4 9 12 14 16 20 23 28 28 31 28 26 27 28 28 28 26 23 20 17 13 14 14 17 16 20 19 22 25 32 35 36 47 46 48 49 41 39
13 10 13 15 13 13 19 15 12 4 8 6 7 7 13 13 11 11 14 19 27 30 27 27 28 29 30 28 23 20 18 15 14 15 18 18 15 15 16 16 16 31 34 45 47 46 51 41 37
14 12 7 8 7 10 5 6 12 9 6 7 9 12 9 12 14 13 11 18 23 25 26 27 30 33 30 28 23 20 17 16 15 15 19 18 14 9 6 5 12 27 28 37 40 46 39 46 36
17 16 8 9 8 9 0 8 5 12 12 7 8 8 11 10 10 12 15 12 18 20 25 30 33 36 33 27 23 20 17 14 14 17 18 17 14 10 9 7 5 21 30 26 37 43 36 41 37
19 15 17 17 20 13 9 13 15 12 8 5 7 14 15 15 17 16 20 7 12 19 28 30 32 35 31 26 23 20 18 16 16 16 15 14 13 12 10 11 8 12 24 28 34 40 40 37 34
18 4 8 8 6 10 14 17 9 8 5 6 13 13 16 17 18 17 18 9 8 17 18 21 34 28 29 24 22 19 18 16 15 16 16 14 11 11 12 12 14 14 16 22 26 30 29 29 25
12 11 9 6 9 5 7 2 12 8 7 10 13 14 16 16 17 18 16 11 3 11 11 22 28 26 28 23 21 19 20 16 16 17 16 15 14 14 14 15 15 16 17 22 24 25 25 27 33
10 13 15 8 12 6 4 2 5 8 5 6 7 11 13 14 14 15 14 12 8 6 11 21 26 26 26 19 19 20 21 19 18 18 15 12 11 10 10 15 14 15 18 21 28 29 31 30 31

GFSSGP_850_spd_090.txt.gz
Wind_Speed
14 11 6 10 6 8 15 19 21 23 0 6 6 8 11 16 11 4 15 11 13 10 11 11 9 8 7 7 8 10 12 12 12 13 12 11 11 11 11 11 10 11 13 12 13 15 15 14 13
13 10 9 10 9 13 14 21 21 19 4 10 4 6 11 11 4 12 12 12 12 11 13 12 10 6 5 6 7 9 11 12 13 14 14 13 13 14 13 12 12 13 14 12 13 14 14 13 13
13 14 13 5 13 17 16 20 21 3 10 3 2 9 8 6 4 8 15 14 13 11 15 12 7 4 4 5 7 9 11 11 12 14 14 15 14 14 15 14 14 16 15 13 12 13 13 14 13
14 13 14 12 21 19 25 20 23 10 6 2 8 11 5 4 6 2 11 15 15 11 13 10 7 5 4 5 7 9 11 12 13 13 13 15 14 16 16 16 15 15 14 12 13 14 12 13 12
18 14 11 16 22 23 21 28 26 9 14 4 7 10 8 8 8 5 10 14 17 16 13 11 9 7 6 6 7 9 11 12 13 13 13 13 14 16 17 18 16 17 12 10 10 10 12 11 11
16 23 14 17 22 23 20 27 27 16 12 12 11 10 11 6 7 12 11 14 16 18 15 14 13 10 8 8 8 9 11 12 13 12 12 12 14 16 17 18 17 16 18 17 11 8 9 10 11
19 14 19 23 21 22 21 20 16 13 14 17 21 14 16 9 6 8 11 17 17 17 17 16 15 12 10 9 9 10 12 13 12 12 13 12 13 16 16 17 19 22 18 19 17 5 8 8 11
26 14 25 22 19 24 21 26 13 13 17 20 11 16 8 6 9 12 11 19 20 18 18 18 18 15 12 10 10 11 13 14 14 14 15 14 15 16 18 20 22 21 18 16 21 23 12 12 13
25 16 18 24 24 22 26 21 18 14 22 17 18 10 12 8 7 7 14 18 20 20 20 21 19 17 15 13 11 13 15 16 16 17 17 17 17 19 20 20 21 20 17 16 17 18 15 15 16
20 17 24 23 21 21 23 18 14 16 19 14 18 21 18 11 10 10 14 22 24 23 23 25 21 19 18 15 14 14 16 18 18 19 19 19 20 22 22 22 22 23 17 15 14 14 13 15 18
27 23 22 26 30 31 25 17 21 19 17 20 17 19 23 22 17 19 16 20 27 26 22 23 24 24 20 16 16 15 16 17 19 20 21 20 23 23 25 25 26 26 23 18 22 23 19 17 21
23 29 31 28 31 30 22 26 22 28 24 24 24 21 24 23 23 26 21 19 23 30 29 24 23 22 23 20 17 12 12 13 15 16 20 20 24 24 26 27 28 31 31 20 24 24 22 26 24
24 23 30 29 32 30 29 23 24 30 30 29 28 28 26 27 26 25 24 24 24 27 33 29 26 25 21 19 14 17 20 18 16 18 21 23 24 24 25 25 26 31 32 30 27 25 23 24 26
24 26 25 28 27 26 23 26 27 30 31 35 34 33 32 31 31 31 25 30 30 27 29 36 33 31 24 24 28 24 23 18 20 21 21 21 23 23 25 24 26 26 28 30 29 26 29 30 27
22 19 19 22 26 24 28 27 26 31 34 38 36 34 32 32 31 31 32 33 33 31 27 38 34 31 26 32 29 26 22 20 19 18 20 21 23 23 23 23 21 25 27 28 29 26 26 30 30
19 17 17 17 22 26 26 29 24 31 31 27 26 31 32 30 30 32 35 34 34 34 31 34 34 32 27 32 26 22 20 20 20 17 18 21 20 22 23 22 24 28 26 27 22 23 25 26 34
15 19 22 24 22 20 18 22 18 22 21 19 18 17 17 22 29 32 34 35 38 34 30 35 36 34 29 24 21 20 18 16 16 15 16 19 20 21 21 23 25 25 25 23 18 25 30 30 25
17 18 20 19 16 16 22 24 18 25 25 22 29 25 25 24 25 23 29 35 34 36 31 35 36 34 30 27 25 20 20 17 15 18 18 19 22 23 23 24 27 25 24 19 18 19 35 33 29
20 22 23 21 23 21 21 21 21 22 28 23 31 31 32 31 27 25 26 29 35 38 36 35 35 34 31 30 33 32 26 20 18 20 20 22 21 23 23 23 24 24 24 21 18 21 26 37 27
19 18 20 21 21 18 23 26 23 21 23 28 28 27 28 31 26 26 28 23 27 28 32 33 32 35 32 33 36 29 26 20 18 17 19 22 24 23 22 24 26 27 26 25 24 30 29 32 26
19 17 17 19 18 22 21 24 26 26 32 31 32 32 31 33 22 23 26 27 26 28 25 29 31 34 31 34 31 24 19 17 17 15 16 22 22 22 22 23 25 24 26 28 30 35 34 40 36
20 16 18 17 16 13 17 17 20 19 19 14 8 8 9 13 19 23 27 25 29 28 26 26 30 32 31 38 28 27 26 28 21 20 17 15 16 18 19 21 24 26 26 31 32 33 39 41 39
20 15 15 16 14 17 19 13 14 18 20 14 9 9 17 18 8 18 21 19 23 29 33 34 31 30 34 35 29 28 23 20 15 13 13 15 20 20 18 19 21 24 29 33 36 35 42 47 42
15 14 16 14 13 15 19 17 15 16 5 8 12 14 14 15 21 16 8 16 25 23 37 38 33 33 34 30 29 29 26 18 18 17 19 22 22 20 21 23 25 26 30 36 39 32 38 48 48
13 11 9 7 9 12 10 13 16 9 8 8 8 10 13 13 16 20 22 17 8 18 38 40 38 35 33 30 31 27 22 21 21 19 19 22 20 18 16 13 15 22 24 37 38 33 39 45 50
18 16 9 9 9 10 2 7 7 13 11 9 11 12 14 11 15 17 17 17 14 15 32 36 39 35 35 33 32 24 23 25 18 16 18 20 20 14 11 9 7 12 15 17 31 40 43 49 50
17 7 15 14 17 11 10 6 10 9 10 8 13 15 13 10 11 14 16 14 9 12 31 32 30 30 32 29 28 25 23 20 19 20 18 16 17 14 11 9 8 5 10 19 24 33 42 51 47
21 13 10 9 4 7 12 14 5 9 4 12 12 14 13 13 12 12 14 14 9 4 18 23 26 27 30 29 25 27 23 20 19 17 15 16 13 11 11 11 10 6 8 14 18 27 30 41 41
11 15 6 3 8 4 4 3 11 9 9 9 10 14 14 14 14 15 13 12 11 7 1 9 17 19 28 28 24 27 21 18 17 17 14 13 13 12 8 9 10 7 7 12 17 23 28 38 37
27 14 17 4 5 7 8 7 11 15 11 7 14 16 15 15 15 16 13 10 9 6 6 7 14 24 28 20 25 21 16 17 17 19 18 15 13 10 8 8 11 9 10 11 16 21 28 20 23

GFSSGP_850_spd_093.txt.gz
Wind_Speed
9 9 6 4 2 3 4 8 13 18 7 5 11 10 5 3 4 4 15 18 12 13 18 17 13 10 9 8 9 11 12 14 15 15 14 11 9 9 9 9 10 12 12 13 15 15 14 13 11
8 9 4 4 4 1 6 14 20 14 4 8 9 8 8 1 12 19 18 15 11 13 16 15 13 11 9 7 8 9 11 13 14 15 14 12 11 10 10 9 9 11 12 12 14 14 13 12 12
9 12 3 4 4 8 6 11 15 12 4 7 3 2 3 3 12 21 14 17 14 15 15 15 12 9 8 8 7 8 10 12 13 14 14 13 11 10 11 10 10 11 11 11 11 11 11 12 12
9 6 7 2 10 10 17 15 17 12 3 5 4 2 4 6 9 17 17 14 15 16 16 14 11 8 7 7 7 9 10 11 12 13 14 13 12 12 12 12 12 10 11 10 10 9 10 12 12
14 5 3 4 13 8 16 25 29 16 9 8 10 2 3 9 12 21 19 15 15 17 16 14 11 9 8 8 8 9 10 11 11 13 13 13 13 14 13 14 13 13 13 12 14 13 11 9 8
6 5 2 12 13 17 15 30 25 19 17 9 10 7 2 6 13 18 23 20 15 13 16 15 14 12 10 9 9 10 11 11 12 12 12 12 14 15 15 15 15 17 16 16 17 17 17 14 8
6 2 6 7 10 17 18 28 6 9 15 9 6 6 16 9 17 20 23 20 20 19 18 17 16 14 13 12 10 10 11 12 13 13 12 13 14 15 16 16 18 19 18 17 16 14 12 12 13
16 3 9 8 13 20 20 24 25 17 5 5 3 4 3 17 21 18 19 22 22 22 21 19 20 17 15 13 11 11 11 12 13 14 14 14 15 16 17 19 21 20 19 19 18 14 12 9 13
25 8 13 14 16 18 27 15 27 28 12 11 9 3 3 14 15 19 19 26 25 22 23 23 22 22 18 15 13 12 11 12 14 15 15 16 16 17 19 20 20 20 20 20 19 19 18 11 18
7 9 16 10 15 16 20 14 22 21 13 8 4 12 6 11 14 15 18 26 27 26 27 26 25 24 22 19 16 14 13 12 13 15 16 17 18 18 19 20 19 21 21 20 17 17 16 16 20
9 13 10 16 25 27 21 22 23 15 8 13 7 12 17 14 17 16 16 21 28 27 30 27 27 25 25 22 19 16 15 14 14 15 17 18 19 20 21 22 22 24 24 23 20 20 21 17 21
14 21 26 26 34 32 19 27 19 20 16 24 25 25 20 19 19 23 23 25 22 32 33 31 27 28 26 23 22 18 17 15 15 17 18 19 22 22 23 25 25 27 29 27 24 16 22 23 21
15 15 25 28 31 33 32 22 19 21 29 31 32 31 30 28 25 25 17 27 24 28 35 36 29 27 28 27 23 20 19 16 14 15 16 18 21 22 23 24 27 29 31 32 28 18 21 24 23
20 19 17 17 19 19 11 9 16 20 24 31 33 37 36 37 34 30 29 24 30 29 30 40 34 28 26 28 25 22 20 16 14 15 15 18 22 22 21 23 25 28 31 34 32 22 23 23 24
17 13 11 8 13 12 22 18 17 28 31 35 37 39 40 39 39 39 33 35 30 33 31 38 39 33 30 25 28 26 24 21 19 18 16 18 21 22 21 22 24 25 28 31 29 23 23 23 26
6 7 8 4 9 16 16 25 20 33 34 33 40 39 45 44 43 39 38 38 36 33 34 33 42 39 35 30 29 30 29 26 23 19 17 19 21 21 22 23 23 24 26 26 25 26 26 24 27
5 9 11 15 13 15 11 22 12 18 24 18 20 24 21 25 36 38 38 38 39 39 34 31 41 42 40 34 31 33 31 30 26 18 18 19 21 22 22 24 24 25 25 23 25 26 26 25 22
6 8 9 9 7 5 9 10 14 24 29 16 20 29 34 35 29 19 20 34 37 37 43 35 39 43 43 38 32 30 30 25 21 19 18 20 20 21 21 21 23 25 26 25 22 23 24 23 16
14 16 17 11 8 12 16 14 15 14 23 20 24 28 32 38 38 34 30 28 31 38 39 39 38 49 45 39 33 30 32 26 23 21 19 20 17 21 23 22 22 25 25 23 22 21 23 25 25
16 17 12 9 8 8 15 20 13 13 13 25 28 31 38 36 37 31 34 35 31 35 41 36 38 51 45 39 34 31 30 27 21 22 20 21 20 23 25 24 21 22 22 25 25 21 25 27 31
15 10 9 12 7 9 12 20 16 17 24 32 38 40 45 33 34 33 34 35 30 27 42 35 36 49 44 40 35 31 28 25 23 25 22 24 22 24 23 22 23 25 26 27 27 25 27 29 32
14 7 11 12 8 8 3 15 11 14 21 20 24 16 9 10 7 18 37 28 29 25 27 31 42 50 45 38 35 35 37 36 34 27 20 22 24 25 23 23 26 27 30 30 29 29 28 31 39
15 8 13 5 9 8 8 10 14 14 17 17 7 10 17 16 11 13 13 5 12 30 27 32 40 45 38 36 33 29 35 33 29 21 19 16 18 19 21 26 29 31 30 30 29 31 31 37 43
5 7 6 5 5 12 16 11 17 11 12 2 5 15 21 21 17 11 12 9 4 7 31 36 43 41 35 34 30 28 31 31 28 21 22 18 18 19 22 23 25 24 26 29 32 31 34 47 44
2 2 3 3 4 12 6 7 13 11 1 5 4 15 17 21 21 18 15 14 10 0 16 39 41 39 36 33 25 28 27 27 25 22 23 21 22 24 25 24 25 24 26 28 29 36 39 38 44
7 7 5 7 6 8 5 6 4 4 10 32 17 20 19 23 23 20 17 17 18 12 12 32 37 35 34 30 27 28 29 25 24 23 24 21 24 24 21 18 17 18 22 31 32 35 40 39 42
6 10 6 9 13 7 8 10 6 6 10 19 16 25 24 24 23 20 20 18 16 9 9 34 40 36 31 29 28 31 27 26 25 25 22 20 22 19 16 15 15 12 14 21 25 33 39 36 37
3 5 1 2 4 5 6 10 3 12 4 10 14 18 20 23 24 23 21 20 17 9 7 18 31 29 25 23 27 26 25 27 27 21 19 16 18 21 17 14 13 9 11 14 18 22 28 36 40
7 5 4 4 4 3 3 1 5 8 10 11 13 22 21 23 25 24 21 20 17 9 3 8 10 14 20 24 23 26 28 27 23 19 15 15 16 14 10 9 9 9 7 12 14 14 24 36 45
8 10 4 4 5 2 4 3 5 3 15 8 16 20 17 21 23 23 21 19 17 14 5 3 8 12 17 22 26 24 30 25 21 17 15 14 12 11 9 10 10 10 7 8 10 11 16 28 33

GFSSGP_850_spd_096.txt.gz
Wind_Speed
5 6 5 2 2 4 4 9 4 10 8 6 9 5 6 5 3 4 26 17 18 15 20 20 18 16 14 13 13 15 17 18 19 18 17 15 13 12 11 11 11 12 12 13 14 14 16 14 12
4 7 6 3 4 2 6 6 15 6 14 24 8 4 1 1 13 18 24 21 16 15 19 19 17 15 14 12 12 14 16 18 19 18 17 15 13 12 11 11 11 12 12 12 14 16 14 13 11
5 11 6 4 4 7 5 6 12 4 18 24 4 3 2 4 11 28 23 23 18 18 19 18 17 15 13 12 12 13 15 17 18 19 18 16 14 13 12 12 11 12 13 12 13 12 12 12 11
9 7 2 3 10 8 7 12 7 16 29 24 12 3 1 7 26 23 24 22 20 21 20 19 17 15 13 13 13 13 14 16 17 18 18 17 15 14 14 13 12 13 14 13 13 14 13 13 13
13 4 1 4 10 7 7 24 13 12 11 22 21 6 5 16 18 22 22 22 23 23 22 20 17 15 13 13 13 14 14 15 17 18 18 17 16 15 15 13 13 15 16 14 15 16 15 15 15
7 3 2 8 9 6 9 17 16 14 25 25 12 8 7 15 20 26 26 23 21 23 23 20 17 15 13 14 14 14 14 16 18 18 19 18 18 17 16 16 16 17 17 16 17 17 17 17 16
5 4 5 4 4 5 12 5 5 13 12 17 6 6 4 31 21 26 27 25 21 21 22 21 18 16 15 14 14 14 14 15 17 18 18 18 19 19 18 18 19 18 19 18 18 19 17 19 17
7 3 3 5 6 10 14 10 11 10 16 20 6 4 2 29 31 31 31 28 24 22 22 22 20 18 17 15 14 14 14 15 17 18 18 18 19 20 19 20 20 19 20 19 18 17 20 18 17
6 3 4 5 8 8 25 9 9 21 17 25 12 2 6 17 31 31 32 31 27 22 22 23 23 22 19 17 16 16 15 15 16 17 18 18 20 20 20 21 20 20 20 20 21 19 20 20 18
7 6 8 7 8 10 22 12 22 15 17 18 21 9 12 19 28 29 30 30 29 24 23 24 26 25 23 21 20 18 17 17 17 17 18 18 18 18 20 20 20 22 22 23 24 21 19 20 21
5 9 4 8 19 22 15 22 26 11 9 16 16 21 9 15 22 26 29 31 31 27 25 25 24 25 26 25 24 22 20 18 18 18 18 18 18 19 20 20 21 23 21 26 27 23 22 23 24
9 12 14 17 30 26 18 32 23 20 24 27 28 23 25 15 18 22 25 29 32 33 30 27 27 24 28 30 27 25 23 20 19 20 19 19 19 20 21 20 22 23 23 28 27 25 24 25 25
7 14 22 27 30 32 34 25 28 33 28 23 26 27 28 31 29 20 24 27 27 31 33 32 31 29 27 32 30 28 25 23 19 20 20 19 20 21 21 21 23 25 27 28 29 28 25 27 23
13 16 16 15 13 13 8 10 14 16 28 26 26 32 33 30 31 33 31 27 29 34 34 33 33 33 32 29 32 30 28 24 22 20 21 19 19 20 20 21 23 24 28 29 32 31 26 27 26
7 6 7 3 6 5 13 23 10 23 26 31 37 38 40 42 38 38 39 39 33 30 36 35 31 34 35 31 29 32 31 27 24 22 21 20 19 19 20 20 22 23 26 32 35 35 26 24 24
4 4 3 1 4 7 4 29 10 26 29 32 39 41 40 40 39 40 46 44 40 37 34 34 33 34 36 34 31 30 33 31 26 23 21 20 19 20 21 22 23 23 24 28 32 36 29 26 28
2 7 9 7 8 7 5 23 5 22 20 22 29 33 29 28 32 28 27 38 44 40 43 38 34 36 37 36 35 34 33 33 29 25 23 23 22 22 23 24 23 24 24 26 29 31 31 29 28
5 5 6 6 6 3 7 14 11 14 23 22 28 27 29 35 35 35 31 24 29 45 42 45 38 35 39 39 39 39 33 33 32 28 25 26 25 24 24 24 25 27 26 25 24 23 26 28 28
5 11 14 14 10 6 12 13 17 11 17 18 26 29 34 34 37 39 36 33 29 23 39 46 41 35 38 44 41 40 39 38 36 31 29 28 26 26 25 26 27 28 27 26 23 22 28 30 29
10 15 17 19 17 9 11 18 18 15 10 23 26 30 34 37 41 44 44 36 35 33 29 40 47 41 40 44 45 45 45 41 36 32 30 28 26 26 25 25 27 26 27 26 25 25 28 29 29
15 13 15 16 6 4 7 19 15 15 18 23 28 30 33 33 37 43 38 37 36 40 35 35 41 45 43 41 48 44 44 37 31 32 30 28 28 24 25 24 24 24 24 25 26 27 29 28 29
16 11 15 12 5 12 6 13 26 19 15 14 20 22 9 12 9 3 14 27 30 27 32 37 36 44 45 46 49 47 48 40 38 36 32 28 26 26 25 26 24 24 25 24 24 26 28 28 29
14 9 11 6 5 5 18 2 26 10 20 20 13 6 12 14 16 17 11 1 8 20 32 30 31 43 47 47 48 49 45 38 35 33 29 25 25 27 25 26 26 25 25 26 28 30 32 32 31
7 4 3 1 2 9 25 5 21 6 4 7 9 8 11 17 21 20 16 10 8 3 12 21 33 42 47 48 51 46 43 38 35 31 28 26 22 25 27 24 27 28 29 31 32 35 35 33 32
5 4 4 3 2 13 7 7 16 9 3 7 14 16 17 16 25 23 24 18 15 7 5 25 33 41 45 48 45 44 40 36 33 30 29 25 23 24 23 21 25 30 31 33 35 33 34 34 33
8 8 6 4 3 4 6 6 4 6 7 7 18 28 26 25 20 24 22 21 17 14 1 22 30 33 36 41 42 37 34 34 30 27 26 23 21 19 17 21 26 26 27 28 28 28 33 36 37
7 4 4 6 6 6 5 9 1 11 12 13 18 13 17 27 19 19 22 20 19 21 8 15 29 31 34 38 34 31 28 27 26 23 20 19 16 17 18 21 26 30 26 27 29 28 30 35 34
5 6 3 3 4 7 5 7 1 12 11 14 7 9 16 20 24 25 23 23 20 20 19 12 18 26 31 34 31 31 26 24 23 20 21 18 16 22 23 21 21 19 19 21 25 29 33 36 39
8 4 5 4 5 5 6 3 3 3 4 2 5 13 17 20 26 24 24 24 22 19 18 12 12 17 20 20 28 24 25 23 20 20 21 18 18 20 20 19 17 17 18 15 16 21 23 23 39
12 4 0 5 2 3 2 3 6 11 13 13 11 13 16 22 26 28 26 25 23 21 18 12 12 8 14 13 20 15 21 19 20 21 19 15 14 15 14 12 11 13 15 13 15 18 17 17 28

GFSSGP_850_spd_099.txt.gz
Wind_Speed
7 5 6 5 3 5 5 7 4 5 8 3 21 9 6 3 4 5 22 23 27 27 28 27 25 23 21 20 19 17 18 19 18 18 17 15 14 14 14 14 14 13 13 13 14 13 12 10 11
7 7 7 4 5 2 6 5 12 4 12 25 25 14 6 3 4 10 22 23 22 25 26 25 23 21 20 19 20 19 19 20 20 19 18 16 15 14 13 13 13 14 14 14 14 13 12 12 11
7 11 6 4 4 8 6 7 2 3 17 24 10 14 7 4 12 25 24 24 25 26 26 25 23 22 20 20 21 20 20 20 21 21 19 17 16 15 13 13 13 14 13 14 13 14 13 12 11
8 6 3 4 9 7 7 3 5 9 21 6 11 11 12 9 10 25 25 26 25 25 24 23 22 21 20 20 20 20 20 21 22 22 21 19 17 16 15 14 13 13 13 14 14 15 14 13 12
10 2 2 3 7 6 7 9 2 6 7 20 30 12 13 10 17 24 27 28 26 27 25 23 22 21 19 19 19 20 20 21 22 22 22 20 18 17 16 16 16 15 14 15 15 15 15 15 14
5 2 1 6 6 4 7 9 3 4 13 24 13 11 8 15 18 26 29 26 26 27 26 25 24 21 19 18 18 19 20 21 22 22 22 21 19 18 18 17 17 16 16 16 17 17 16 17 16
5 4 5 4 4 4 6 6 4 3 6 9 28 6 4 11 22 25 26 24 27 27 27 27 24 20 18 18 18 18 20 21 21 21 21 21 20 20 19 19 17 17 18 17 17 17 17 19 17
4 4 3 5 5 8 4 4 3 5 6 20 18 7 9 16 24 30 28 28 30 30 29 27 25 21 18 18 18 17 18 19 20 20 21 21 21 21 20 20 19 18 18 17 17 18 19 17 17
6 1 3 6 5 6 8 4 4 10 13 21 18 24 21 10 21 30 29 29 30 30 29 27 26 24 21 18 18 18 17 18 19 20 21 22 23 22 22 22 21 19 19 18 18 19 19 20 20
6 4 9 6 4 6 21 9 25 8 15 20 27 23 17 10 17 32 31 31 30 28 28 26 25 24 23 21 19 19 19 19 19 21 22 23 22 22 22 22 22 21 21 22 21 21 22 22 22
5 7 4 5 12 15 9 20 23 6 11 23 23 27 23 18 13 27 32 33 28 25 26 25 25 25 24 23 22 21 21 20 19 19 19 21 22 23 23 24 24 23 23 25 25 26 25 24 24
5 7 9 9 19 21 9 28 17 20 20 30 32 28 26 21 20 15 27 35 35 32 28 26 26 26 26 26 26 24 24 22 21 20 21 22 24 24 24 25 25 25 24 24 28 31 27 25 27
6 7 20 23 26 26 27 17 17 26 23 15 21 26 25 20 21 25 24 24 35 35 34 30 31 29 28 26 29 29 28 26 23 22 23 23 24 24 24 25 25 25 24 24 29 32 29 26 27
7 9 14 13 18 20 11 12 9 10 31 28 24 24 27 30 29 31 31 28 27 30 40 36 36 34 32 31 26 31 33 30 27 24 24 24 24 24 24 25 24 24 25 25 27 26 26 28 26
10 7 5 6 8 7 16 7 8 25 21 25 26 27 29 31 34 36 33 35 33 33 31 40 40 41 39 34 31 27 35 33 30 28 26 25 25 24 24 24 23 24 25 26 28 25 27 25 26
4 2 3 3 2 5 5 15 6 19 12 22 26 28 31 31 30 29 30 27 26 33 35 35 38 45 42 38 33 30 31 35 33 30 28 26 26 25 24 24 23 23 24 26 28 28 33 32 29
2 6 5 6 4 6 6 15 4 14 24 20 27 32 34 36 34 29 28 30 30 29 29 37 40 42 44 42 35 32 32 35 35 33 30 27 27 26 25 24 24 23 24 26 27 29 34 32 33
5 4 4 4 5 2 10 22 9 19 18 24 29 33 37 39 40 35 32 30 32 30 29 30 38 43 41 40 39 36 35 36 37 34 33 28 29 28 26 25 24 23 25 27 26 29 32 34 30
3 5 10 6 10 4 13 21 17 15 10 15 26 31 37 38 36 40 40 35 36 31 30 27 27 37 44 45 43 42 40 40 36 35 35 31 29 28 27 27 26 26 28 28 26 26 27 28 28
7 8 10 8 12 5 11 21 18 9 8 21 23 27 33 35 39 38 36 37 37 37 34 31 27 29 41 46 42 45 42 42 37 35 35 32 31 30 30 30 29 29 28 29 27 26 26 26 30
8 5 8 11 9 6 7 19 10 6 12 25 26 29 27 16 17 16 18 24 30 31 32 35 30 31 32 45 45 48 45 44 40 36 35 39 34 33 33 30 30 30 29 29 28 26 26 28 32
11 7 14 14 6 7 8 11 25 10 5 9 20 15 16 17 19 21 19 13 14 20 21 25 30 30 30 42 48 48 45 47 42 36 43 42 35 34 34 30 30 29 29 28 27 25 26 28 32
8 9 10 11 4 4 9 3 12 14 17 8 8 13 14 20 20 23 28 24 19 14 17 23 30 30 31 38 50 50 49 49 43 45 44 38 36 34 32 28 29 28 27 27 25 23 27 30 32
8 4 4 3 2 4 19 6 16 10 5 4 8 15 18 20 22 20 21 27 21 15 14 14 21 26 32 37 46 54 49 50 47 44 40 40 38 34 30 30 29 30 28 28 25 25 27 29 31
7 2 2 3 1 8 5 2 7 5 3 1 7 15 20 28 25 26 21 27 23 21 18 10 20 27 32 31 43 53 49 50 48 43 38 38 37 33 30 31 30 29 29 28 24 25 28 30 32
6 4 4 4 3 4 3 6 4 3 6 10 7 13 24 32 30 28 19 25 22 21 20 11 15 22 31 33 40 46 46 43 43 37 33 35 35 31 27 27 28 25 26 26 25 26 28 31 35
4 2 2 4 1 3 4 5 1 3 4 2 6 14 21 28 32 29 24 21 18 19 16 9 10 22 27 28 34 36 38 36 36 33 29 29 30 28 23 22 20 21 22 25 28 30 32 30 31
5 5 4 2 3 6 5 5 5 4 6 5 7 14 19 22 27 30 26 22 19 18 16 10 6 12 19 25 27 26 27 31 29 27 25 26 26 23 21 21 22 23 24 28 28 27 29 31 31
5 2 3 2 4 4 5 4 2 5 8 7 9 17 16 19 22 28 25 23 19 18 17 15 6 11 16 16 25 25 24 26 24 24 22 24 22 21 20 22 21 21 22 24 22 21 25 29 36
5 3 2 2 3 3 3 4 4 7 9 11 15 15 15 18 22 26 26 25 23 20 18 17 12 2 5 8 13 19 29 17 25 21 19 22 22 18 18 20 20 18 18 18 17 15 16 19 24

GFSSGP_850_spd_102.txt.gz
Wind_Speed
6 4 5 4 3 4 4 8 1 5 3 3 17 9 10 7 5 5 7 21 26 31 32 32 30 29 28 26 22 20 20 19 19 19 18 17 17 17 16 14 13 12 13 12 14 13 12 11 11
6 7 7 3 4 1 6 4 7 7 7 17 17 9 3 7 11 5 13 23 26 29 30 30 30 29 27 24 22 21 21 20 19 19 19 18 17 17 16 14 13 13 12 13 14 13 12 12 13
7 10 4 4 4 6 6 5 4 2 14 11 8 17 10 4 9 8 19 23 28 29 30 30 30 29 26 23 21 21 21 20 19 19 19 19 18 18 16 15 14 13 13 14 14 13 13 13 13
9 6 3 3 7 7 7 1 3 7 6 7 10 9 12 15 10 11 21 25 26 28 28 28 27 25 24 22 21 21 21 21 21 20 20 19 19 18 18 16 15 14 15 15 14 14 13 13 13
10 4 3 2 5 6 5 5 6 6 9 14 12 10 14 13 11 16 22 25 26 28 28 27 24 23 22 22 22 22 21 21 21 21 20 19 19 19 18 17 16 14 15 15 15 15 14 15 14
4 4 2 5 6 5 6 4 10 3 8 12 10 10 7 16 10 18 23 26 25 27 28 26 24 23 23 22 22 22 22 22 21 21 21 20 19 19 18 18 17 15 15 15 15 16 16 16 15
6 4 5 4 4 4 3 4 4 4 5 5 13 5 11 29 14 14 24 26 26 27 28 27 27 25 23 22 21 22 22 22 22 22 21 21 20 19 19 19 18 17 16 16 16 17 17 17 17
4 4 4 6 5 8 5 4 2 4 5 19 14 5 14 30 17 16 24 27 28 31 31 30 28 26 25 23 22 20 21 21 22 22 22 22 21 21 20 20 20 19 18 18 18 17 18 19 16
5 2 4 6 7 5 2 4 3 6 17 13 15 22 23 22 22 13 24 27 30 32 31 30 29 28 26 24 22 21 20 20 21 22 23 23 23 22 22 22 21 20 19 19 18 19 19 19 17
5 4 10 7 5 3 8 1 15 5 11 18 30 26 24 25 24 14 21 23 28 30 31 30 29 28 25 24 22 22 22 21 21 22 23 24 24 24 23 22 22 21 20 20 19 20 21 21 21
5 5 4 4 10 7 7 12 10 6 5 17 23 32 27 23 19 18 17 25 25 27 28 29 28 27 25 24 23 23 23 21 21 21 23 24 25 25 24 24 24 23 22 22 22 23 23 22 23
4 8 9 7 19 19 6 23 8 13 16 24 23 23 24 23 20 17 12 20 26 26 28 29 29 28 27 26 26 24 23 23 21 21 22 24 26 26 26 26 25 25 24 24 24 26 25 25 25
5 5 15 22 22 23 23 12 15 12 23 18 15 25 25 21 18 15 17 17 19 26 27 30 31 30 30 29 29 28 27 25 24 22 23 23 25 26 26 26 26 26 25 26 25 27 27 26 26
2 6 10 10 13 13 9 10 7 11 26 22 24 20 19 19 21 23 23 24 25 25 28 32 36 33 33 33 32 30 29 29 28 26 24 23 24 25 26 26 27 27 26 26 25 26 29 28 27
7 4 6 7 9 7 12 1 7 20 16 15 13 17 19 19 21 22 22 23 25 26 29 31 31 38 42 38 34 32 30 31 33 30 28 26 25 25 26 26 26 26 26 26 26 24 29 30 29
3 1 2 4 3 4 5 5 4 12 10 14 27 24 25 23 24 25 24 24 21 23 26 31 34 36 40 46 42 39 34 34 32 32 31 30 27 27 26 26 26 26 26 27 27 26 27 28 28
3 4 3 6 5 4 5 1 4 28 25 20 22 26 27 30 29 29 26 25 25 24 26 27 28 35 42 43 49 43 37 34 32 32 34 33 30 29 28 27 26 25 27 28 28 28 27 28 32
5 3 3 4 6 5 11 14 10 19 17 22 23 26 28 30 31 30 27 27 25 28 28 29 29 31 35 46 48 44 40 38 35 33 34 34 34 31 29 28 26 26 27 28 28 28 27 28 34
2 3 5 5 11 3 13 15 9 13 9 15 25 25 27 31 30 28 29 30 30 26 30 29 29 30 29 43 46 46 46 41 40 38 34 35 35 33 32 30 27 27 28 28 27 27 26 27 32
5 5 6 6 10 6 11 19 13 8 8 13 17 24 24 17 19 21 24 26 26 25 25 30 28 29 31 35 45 43 44 47 43 42 37 33 37 35 34 32 31 29 29 27 28 29 27 28 28
6 4 5 8 5 4 7 11 5 5 4 10 11 9 11 15 18 18 17 18 20 23 20 21 26 29 31 33 37 43 45 46 41 42 40 36 36 36 36 33 31 29 30 30 29 30 29 28 30
6 9 11 7 1 3 3 9 6 4 3 2 9 12 15 20 22 23 22 23 23 21 22 21 24 28 30 33 36 43 46 47 44 44 42 39 34 37 38 34 32 31 30 31 30 29 28 28 30
7 6 7 5 4 2 5 2 6 10 4 3 4 10 15 20 24 25 27 24 24 25 26 22 22 26 33 34 37 35 40 48 46 47 45 40 39 36 41 35 33 33 31 30 30 28 29 30 32
5 2 3 3 3 5 9 7 12 3 2 3 2 10 16 22 26 26 25 25 24 22 25 26 22 24 33 36 39 41 37 42 48 46 47 43 42 40 39 34 35 33 31 30 29 28 27 28 32
8 3 2 2 0 6 5 4 11 2 2 3 2 10 16 23 27 31 30 28 26 24 25 26 24 23 26 33 39 42 44 42 47 48 47 47 42 41 38 35 35 32 29 29 26 29 29 29 29
1 1 3 4 3 4 2 5 5 2 3 7 7 9 17 24 25 29 29 28 26 26 24 25 27 24 21 25 35 36 40 41 42 44 44 45 42 40 37 36 33 30 29 29 30 30 30 27 27
3 2 3 3 2 3 4 5 2 4 4 1 9 15 18 23 27 28 29 28 28 25 22 20 20 14 11 19 26 32 33 35 37 35 36 37 35 38 32 31 29 29 27 29 29 29 28 26 27
6 3 3 2 3 5 5 4 3 5 9 11 11 14 18 22 29 29 30 30 28 26 21 17 13 8 5 16 24 26 25 27 29 32 32 33 33 31 29 30 27 25 24 23 23 25 25 26 28
4 1 1 1 2 3 3 3 4 7 6 7 8 11 15 19 27 30 29 28 28 26 23 19 15 10 5 14 15 20 21 21 23 25 25 24 23 28 28 25 24 23 22 23 24 26 27 27 32
3 2 2 4 4 3 2 5 3 3 7 12 13 15 16 17 23 28 28 28 28 28 26 23 19 15 6 4 10 12 11 9 14 15 14 19 20 25 22 22 21 22 22 23 24 25 26 27 28

GFSSGP_850_spd_105.txt.gz
Wind_Speed
6 4 4 3 2 1 3 4 1 3 2 1 10 6 10 10 6 6 16 11 17 32 31 29 27 25 24 23 22 19 18 18 19 20 21 21 19 19 18 17 17 16 14 14 13 13 12 10 11
6 6 7 2 2 3 5 2 7 7 3 12 7 7 4 4 6 14 19 9 18 30 30 29 27 26 25 24 22 19 18 19 20 19 19 20 20 19 18 17 16 15 14 14 13 13 13 12 12
8 11 5 2 3 7 4 3 2 2 10 4 5 6 5 7 16 11 14 14 24 30 31 30 27 26 25 24 22 20 18 18 19 19 19 19 19 19 18 17 15 14 13 13 14 14 13 13 14
8 5 4 3 12 6 5 3 0 7 3 5 9 4 11 11 14 11 9 15 27 29 31 30 27 25 25 24 22 20 20 19 19 19 18 18 18 18 18 17 15 14 13 14 14 13 13 13 14
11 4 2 4 8 6 4 6 6 3 8 5 7 7 10 20 28 17 13 18 26 29 31 29 27 25 25 24 23 21 20 19 19 19 18 18 18 17 17 17 16 14 13 14 14 13 13 14 14
3 3 3 9 12 6 4 6 4 4 7 5 4 11 6 25 31 16 13 18 25 28 30 29 28 27 26 24 22 22 21 21 20 20 19 18 18 18 18 17 17 15 15 15 14 14 14 14 14
4 3 4 6 5 6 4 3 4 5 4 2 3 8 7 25 30 27 12 18 25 28 29 30 29 29 26 24 23 22 21 21 21 21 20 20 19 18 18 18 17 16 16 15 14 15 15 16 16
5 3 5 6 8 10 6 4 3 2 3 8 3 3 7 24 24 25 17 16 22 27 30 31 31 30 28 26 24 24 23 22 21 21 21 21 20 19 19 18 18 17 16 15 16 16 16 17 16
7 4 7 8 8 5 2 1 2 2 8 7 7 11 19 19 21 19 18 14 22 27 31 33 32 30 28 27 26 24 24 23 22 21 21 22 22 21 21 21 19 18 17 17 16 17 17 18 17
6 5 10 6 7 8 5 5 7 6 11 14 18 18 20 16 15 15 15 12 20 24 29 30 30 29 29 27 26 26 26 25 25 24 25 24 24 23 23 22 21 20 18 17 17 17 18 18 19
6 8 6 5 13 9 8 9 7 11 12 15 20 22 17 12 13 13 13 13 16 22 26 29 29 29 28 27 26 27 27 26 25 25 25 25 24 24 25 25 23 23 21 20 19 19 20 21 22
6 9 10 5 15 10 10 20 15 16 21 21 20 21 16 19 16 12 11 11 10 16 21 25 27 29 27 28 28 28 28 26 26 26 26 27 26 26 26 26 26 25 24 23 22 22 23 24 23
7 6 9 14 14 16 16 17 18 13 24 22 17 18 21 23 18 13 14 13 14 14 16 19 24 29 30 30 30 31 29 27 27 28 26 27 28 26 26 26 27 26 25 25 23 23 24 25 25
2 6 9 7 12 9 9 11 7 15 22 19 18 17 14 12 13 13 14 18 19 20 21 20 23 27 26 33 33 33 31 30 29 29 29 27 27 28 27 26 26 27 26 25 24 24 25 27 27
6 7 6 10 11 8 6 9 10 22 20 12 10 13 16 14 13 14 16 16 19 22 23 27 25 31 35 36 37 35 34 33 32 32 30 29 28 27 27 26 24 25 25 25 25 26 26 27 28
3 2 5 1 3 3 8 9 8 3 5 17 19 17 16 16 16 16 17 19 17 19 20 19 28 32 35 39 39 40 38 36 35 33 32 32 31 29 27 28 25 24 25 26 27 27 28 26 28
0 8 5 6 3 1 4 4 4 11 20 14 18 20 18 20 18 17 17 17 15 17 21 22 20 25 31 37 39 42 40 40 38 37 34 34 34 32 29 28 27 26 25 27 27 28 28 27 27
4 5 4 5 3 9 15 16 16 21 15 19 19 18 20 18 16 15 15 17 18 19 20 23 25 23 25 31 34 40 43 44 44 40 39 36 36 35 32 31 30 28 27 28 28 28 28 28 27
6 7 13 11 12 5 12 14 14 18 13 18 18 14 10 10 13 14 15 15 18 20 22 21 24 26 26 30 36 39 44 46 50 47 42 39 36 37 35 34 32 30 29 30 28 27 27 27 26
8 10 11 9 12 5 12 18 17 16 11 13 6 4 5 10 11 13 15 15 15 15 16 16 20 25 28 30 33 38 39 45 48 49 48 42 38 37 38 37 34 33 30 30 29 28 28 28 27
10 10 8 10 9 7 8 11 4 3 5 10 7 5 7 11 15 18 20 21 21 20 17 15 16 22 25 30 31 32 32 33 35 46 51 47 41 38 39 39 36 35 32 31 30 28 27 28 28
11 11 14 13 4 5 5 8 7 4 6 4 5 6 8 13 16 20 22 23 24 24 24 23 18 19 23 25 31 31 37 38 44 45 51 50 45 42 40 39 38 36 34 33 31 28 27 28 29
8 7 11 10 7 3 6 6 2 3 3 3 2 5 9 12 15 18 22 26 28 28 27 26 26 23 20 25 31 34 39 41 41 43 48 48 44 44 42 40 41 37 35 32 32 31 31 30 30
1 3 3 1 3 6 12 9 5 4 3 0 1 7 11 15 19 21 22 24 25 27 28 27 26 27 24 22 30 38 40 41 37 40 46 49 48 43 44 41 37 37 35 32 34 30 29 29 29
1 4 3 3 4 4 2 8 10 2 3 1 5 8 12 16 21 25 27 27 27 26 26 24 23 27 23 23 29 36 41 41 40 37 44 49 51 46 46 40 35 37 38 36 33 30 28 29 29
2 3 4 5 4 1 4 7 1 8 8 10 8 8 14 20 23 25 25 25 27 27 25 22 22 25 20 19 23 31 37 40 41 40 38 48 48 48 48 46 45 43 41 36 31 28 26 28 27
2 2 2 1 1 4 6 4 3 4 7 9 11 15 19 19 21 23 24 24 27 28 26 25 22 19 18 15 12 18 28 35 39 40 39 41 41 41 43 43 41 41 34 30 28 27 26 25 28
2 2 2 1 4 6 5 6 4 2 8 10 11 13 16 19 25 25 25 25 27 27 26 24 21 19 14 11 6 14 20 29 34 35 34 36 33 36 37 38 38 33 30 28 29 29 27 27 30
2 1 1 1 3 4 5 4 4 6 6 8 9 13 16 19 23 27 26 27 28 26 26 25 22 18 13 5 3 16 18 23 30 28 26 31 30 31 33 29 28 30 28 28 28 27 24 28 22
4 4 3 3 3 3 4 6 8 5 7 8 8 11 13 16 21 26 28 29 28 28 27 25 24 19 13 7 7 8 12 19 17 20 23 24 25 25 26 28 30 28 25 24 23 22 22 22 25

GFSSGP_850_spd_108.txt.gz
Wind_Speed
5 3 3 3 6 5 10 2 1 5 4 2 8 6 8 11 6 8 10 17 15 21 26 26 26 25 22 20 18 16 16 17 19 21 21 19 17 15 15 15 15 15 13 13 13 12 12 10 10
7 5 3 4 7 10 7 2 9 2 2 5 4 4 9 2 3 12 13 17 10 19 28 28 28 26 24 22 20 18 17 17 18 20 20 19 17 16 16 15 15 14 12 13 11 12 11 10 10
9 9 7 4 8 12 8 1 2 5 2 1 3 4 3 5 9 13 12 13 10 19 28 29 28 26 24 22 21 19 18 18 18 19 20 19 18 18 17 16 15 14 12 12 12 12 12 11 11
6 6 5 8 17 12 6 4 5 2 3 3 5 5 2 4 11 17 17 13 11 19 25 29 28 25 24 23 21 20 20 19 19 18 19 20 20 19 18 16 15 13 13 13 13 13 13 12 12
7 4 8 12 20 13 6 8 8 9 6 7 7 6 6 3 14 17 10 9 9 17 23 27 27 25 24 23 22 21 20 20 20 19 19 20 20 20 19 17 16 14 13 13 13 13 13 13 13
8 4 7 14 19 10 8 9 9 11 14 10 9 8 7 3 15 16 10 8 12 18 21 26 27 25 25 24 23 21 20 20 20 19 19 19 19 19 19 17 16 14 14 14 14 14 14 14 13
13 8 13 17 20 15 12 4 7 8 8 5 4 7 4 5 16 16 12 6 14 20 23 23 29 28 26 25 23 21 20 20 19 19 19 19 19 19 18 18 17 16 15 14 13 15 14 15 14
11 5 12 11 16 18 6 9 5 6 8 3 4 4 5 15 16 14 11 7 11 21 26 27 29 30 29 26 24 21 20 20 20 19 20 20 20 20 19 18 18 17 16 15 15 15 15 15 15
8 8 12 19 13 11 6 9 4 4 10 10 9 11 15 17 15 12 10 7 7 19 27 29 31 31 30 29 27 23 22 21 20 21 21 21 21 22 22 21 21 19 17 17 15 16 16 16 16
13 11 15 11 12 13 14 12 12 10 15 16 16 16 13 14 13 12 10 8 8 13 26 30 31 32 31 30 26 25 24 24 24 24 24 24 23 19 19 21 22 20 19 17 16 18 17 17 15
10 18 15 10 16 15 17 18 16 16 17 18 19 17 14 12 10 10 10 9 7 11 16 26 30 30 30 30 25 25 27 24 22 26 24 22 20 20 21 18 22 22 22 20 20 20 19 18 18
12 16 17 16 16 18 16 19 21 23 22 21 19 17 14 12 12 11 9 7 6 7 11 15 24 28 29 28 28 23 22 28 29 28 25 22 21 21 20 20 18 20 18 19 18 17 18 19 20
16 16 16 17 18 20 20 22 24 23 23 20 19 18 16 14 15 12 10 9 9 8 8 11 15 21 28 29 27 26 24 28 29 29 25 26 27 27 21 20 20 19 19 19 18 19 19 20 19
4 9 12 12 14 17 17 20 20 18 15 16 15 16 15 10 9 10 10 11 9 9 10 12 15 18 21 26 30 30 29 26 29 30 25 28 24 29 30 25 24 20 20 19 19 19 18 19 19
13 16 16 18 20 16 16 19 22 22 21 14 13 11 10 10 9 8 9 10 10 11 9 10 13 18 21 23 28 30 30 31 27 28 29 29 29 26 31 32 32 26 21 21 22 20 22 20 20
10 13 13 3 5 8 11 15 4 6 8 11 10 11 11 10 9 8 7 8 11 13 15 16 17 17 21 24 27 28 29 32 30 30 30 32 32 30 31 33 32 31 28 23 25 24 25 22 23
13 14 14 10 10 11 12 11 3 6 13 15 17 14 11 10 8 5 6 7 10 14 18 18 20 21 22 25 27 28 30 30 30 31 35 34 34 34 36 33 33 32 31 29 28 27 26 25 26
15 17 14 13 5 11 14 18 16 21 22 23 18 15 12 8 4 4 7 9 10 11 15 19 21 24 24 22 23 25 27 29 33 35 38 39 38 34 35 37 35 33 32 31 31 29 27 25 25
15 15 17 15 14 14 16 18 16 15 19 19 17 15 7 3 3 5 8 9 10 11 12 17 21 20 22 26 22 25 34 38 34 36 42 41 41 38 35 38 38 37 34 33 32 29 29 27 25
17 18 18 14 12 9 15 18 17 17 17 16 13 5 3 2 4 7 10 12 13 14 15 15 15 18 19 19 20 25 28 30 33 31 35 45 45 43 38 37 40 40 37 35 34 32 31 30 26
19 19 16 14 14 16 18 21 17 2 3 7 6 6 4 5 9 12 14 14 15 16 18 19 20 19 19 21 24 27 27 30 29 31 34 48 50 49 45 41 41 44 41 39 37 34 31 31 28
18 17 15 16 12 10 2 6 6 7 8 9 7 5 6 8 10 13 17 19 20 19 19 20 23 25 25 22 20 21 27 35 35 33 36 43 52 53 49 45 43 46 44 42 38 34 31 28 29
13 10 14 14 13 13 15 8 7 9 12 9 7 7 8 10 13 16 18 20 21 22 23 24 26 28 29 28 25 24 27 33 35 33 33 38 45 50 51 49 45 46 45 44 40 35 33 27 24
8 10 11 10 10 12 17 12 10 13 7 9 7 6 8 11 13 15 18 20 21 22 24 26 29 29 30 31 29 30 31 31 34 37 34 38 41 47 50 50 47 47 45 44 40 36 33 31 27
11 11 8 9 8 10 1 9 10 8 3 6 4 6 10 13 15 17 19 21 21 23 25 27 28 31 31 31 31 31 33 31 38 39 36 35 37 44 49 50 48 48 44 42 41 37 34 31 31
14 15 10 11 11 5 4 7 4 10 12 11 7 7 10 13 16 18 20 21 22 23 24 28 29 30 30 29 28 30 32 36 34 44 43 34 34 41 45 47 48 47 45 41 42 39 33 31 31
7 10 4 6 8 9 11 7 9 10 12 8 7 8 9 12 14 18 21 22 23 25 27 30 30 30 28 25 25 27 30 34 34 39 44 38 31 33 38 40 43 44 44 41 38 37 33 30 31
4 3 3 4 5 12 9 12 5 11 6 6 6 9 11 13 17 19 21 21 21 23 26 27 26 27 25 21 20 22 19 22 30 33 38 41 33 33 33 36 39 41 43 38 34 33 35 30 29
5 6 5 5 6 7 10 6 6 9 3 4 7 10 12 14 16 19 21 21 20 21 25 27 25 25 22 17 13 12 14 20 26 28 31 35 35 35 36 31 33 43 44 42 36 33 32 28 30
7 9 10 8 10 8 9 11 5 6 5 6 9 9 11 13 16 17 21 21 21 23 26 27 25 22 21 12 10 6 10 16 16 20 24 28 33 35 32 31 36 38 41 39 36 37 33 33 30

GFSSGP_850_spd_111.txt.gz
Wind_Speed
6 3 3 7 7 7 14 10 3 5 7 2 2 6 10 11 8 4 10 13 7 9 19 27 25 22 21 20 17 15 15 16 17 18 19 19 16 13 12 12 12 11 11 11 11 10 9 9 9
3 6 6 10 8 12 11 3 5 2 8 1 5 5 9 4 3 7 11 16 8 10 15 28 26 23 22 20 17 16 16 16 17 18 20 19 16 14 13 12 12 11 9 9 10 10 10 9 9
6 7 13 5 13 14 12 8 5 4 2 5 4 5 4 1 4 8 11 14 5 9 14 24 25 23 22 20 18 16 16 15 16 18 19 18 16 14 14 13 13 12 9 9 10 10 10 9 9
5 6 11 10 19 17 12 3 3 4 7 5 6 8 2 2 5 9 12 8 3 9 13 21 25 24 21 20 18 17 16 15 16 17 18 18 17 15 15 14 13 12 10 10 10 11 10 9 10
8 11 11 15 19 19 11 4 8 11 10 8 10 13 7 6 5 10 10 7 4 10 14 20 24 24 23 21 20 18 16 15 16 17 18 18 18 17 16 15 14 13 11 11 11 12 12 10 11
13 8 12 14 18 14 4 4 12 14 13 14 13 14 13 5 6 10 10 4 4 11 16 18 26 26 24 23 21 19 17 16 16 16 17 18 19 18 18 17 15 14 12 12 12 13 12 11 12
16 12 15 18 20 18 15 1 9 13 12 13 8 8 8 7 6 10 9 6 4 10 14 14 25 27 25 23 22 20 18 17 17 17 17 17 18 18 19 18 16 15 14 13 13 13 13 13 13
19 13 22 19 18 18 9 3 10 11 12 2 6 7 10 2 10 12 8 5 4 9 13 14 21 29 27 25 23 21 19 19 18 18 17 18 18 19 19 19 17 17 15 14 14 15 14 15 14
11 10 14 20 20 17 6 8 11 7 12 12 12 15 14 16 15 13 10 8 5 9 13 16 19 23 25 26 26 23 21 20 19 19 20 20 20 20 21 21 20 18 18 16 16 16 16 17 16
16 13 20 18 15 15 14 15 15 13 14 16 15 17 15 15 15 14 12 11 8 10 14 20 25 27 26 20 21 25 24 23 22 22 22 22 21 17 17 17 21 20 19 18 18 19 18 18 15
18 20 21 22 17 15 21 22 21 19 18 18 19 18 16 16 16 15 13 13 11 10 14 17 21 24 27 27 19 18 18 19 21 21 21 21 18 17 17 17 22 24 23 22 22 22 21 19 15
23 26 24 23 24 20 19 23 23 24 23 21 20 20 19 17 16 15 15 13 9 8 11 13 17 19 24 21 22 18 19 23 18 19 22 20 20 19 20 18 19 19 20 21 19 18 18 19 18
21 21 24 25 21 24 24 24 24 26 24 22 20 18 18 18 17 16 16 14 12 9 7 11 15 17 18 21 19 20 19 20 23 27 22 23 21 22 20 20 20 18 21 20 20 22 23 21 21
20 18 21 23 22 22 21 23 24 22 16 16 17 17 18 18 17 16 14 14 10 8 6 9 11 14 16 19 23 21 22 21 21 20 24 26 23 26 22 22 20 20 18 25 20 20 20 22 21
23 24 22 25 27 26 24 24 23 29 27 23 22 17 18 15 13 13 13 9 7 9 8 6 11 13 16 17 17 21 22 23 22 22 24 26 27 27 26 28 24 22 20 22 25 23 20 21 22
15 19 21 18 18 14 19 21 15 6 10 15 14 16 13 15 13 12 6 6 7 7 7 7 6 10 15 17 18 19 22 24 23 24 23 28 28 28 28 28 32 27 23 21 22 22 24 23 20
16 19 24 20 12 11 13 15 7 6 8 14 15 16 15 14 12 8 3 6 7 6 6 7 8 9 13 17 21 22 23 24 25 25 26 29 29 29 31 30 30 34 32 24 26 26 25 22 20
19 20 21 19 17 15 17 23 17 16 17 19 21 20 16 14 11 1 4 5 5 6 8 8 8 10 10 15 21 22 26 28 29 30 29 30 29 30 31 30 27 30 33 33 26 28 29 21 20
24 25 26 21 15 13 18 22 21 23 24 20 22 19 17 16 4 4 4 5 6 8 9 10 10 10 11 11 13 18 25 29 31 33 32 33 31 30 34 34 33 33 35 35 36 32 32 29 21
24 24 26 22 20 18 20 24 21 21 18 21 20 17 12 6 7 3 2 5 8 9 10 12 13 13 13 12 13 16 23 24 32 34 33 36 34 35 39 41 40 36 37 38 37 37 35 32 29
25 25 23 23 19 15 18 25 25 23 29 25 18 5 10 5 2 1 4 7 10 11 12 13 14 16 15 17 16 17 21 31 26 31 34 35 39 43 43 44 41 36 38 40 40 39 38 34 32
23 21 22 20 18 16 20 16 11 9 10 7 12 11 10 4 0 4 8 10 12 13 14 15 16 18 18 18 19 19 20 24 29 32 34 35 38 41 45 43 44 40 40 40 42 40 38 32 35
21 19 16 18 17 20 22 14 16 21 16 16 13 12 5 2 5 9 11 14 15 15 17 17 18 18 20 21 20 22 24 24 25 36 29 37 37 39 42 43 43 43 44 42 41 43 40 37 35
20 15 16 18 16 16 22 19 16 13 14 19 16 8 2 5 9 12 13 15 16 17 18 19 20 20 22 24 27 28 31 30 29 29 36 32 38 38 47 43 45 46 44 45 41 42 42 40 34
15 15 13 11 12 15 19 17 15 11 19 14 15 9 4 8 10 12 15 18 19 21 21 22 22 25 25 26 28 30 34 36 37 35 36 38 34 38 49 43 46 47 46 44 43 43 39 31 34
14 15 9 7 12 11 7 8 3 16 16 14 11 5 6 10 12 14 16 18 20 21 22 23 25 29 28 30 31 32 34 37 39 42 40 40 38 38 41 41 43 46 47 45 41 40 40 44 43
9 18 13 11 18 11 9 4 8 10 11 10 9 9 12 14 15 16 18 18 20 22 23 23 26 29 29 31 33 33 35 35 38 42 42 40 44 38 38 38 38 43 44 42 42 39 36 38 39
8 7 6 6 9 17 14 16 8 15 11 8 5 6 8 11 14 17 20 22 22 22 24 24 26 28 30 31 32 33 33 29 32 36 43 43 41 43 37 36 34 39 45 44 42 38 36 34 32
7 9 6 6 7 6 11 5 10 13 7 5 5 4 8 12 13 15 17 19 20 22 24 25 28 29 30 29 30 31 26 24 23 24 29 33 41 42 39 40 34 33 43 44 44 40 39 37 33
8 11 13 9 13 13 13 14 11 7 5 3 4 4 9 12 13 15 17 19 21 22 23 24 28 28 25 26 27 23 21 17 16 17 22 29 37 37 38 34 31 29 37 45 45 43 41 35 27

GFSSGP_850_spd_114.txt.gz
Wind_Speed
5 2 6 11 6 7 15 17 6 5 4 11 8 5 11 9 8 5 11 12 6 9 9 15 23 21 19 17 15 13 13 12 12 11 12 13 12 9 8 8 7 7 8 8 8 8 7 7 7
6 5 10 10 8 10 13 6 6 15 15 8 1 6 7 5 5 6 9 15 7 7 10 14 25 22 19 17 16 14 14 13 12 12 12 14 12 10 9 8 7 7 7 8 8 7 7 7 7
3 2 11 5 10 13 14 4 7 13 6 2 1 4 8 3 9 6 12 12 6 7 13 15 26 23 19 18 16 15 15 14 13 13 14 15 13 11 9 9 8 8 6 7 7 7 7 7 7
4 6 10 8 16 18 20 14 10 8 7 4 5 7 2 2 2 4 8 8 3 7 11 11 26 23 20 19 18 16 15 14 14 14 15 15 13 12 10 10 9 9 7 8 8 8 8 8 7
8 11 11 14 19 19 17 21 10 5 5 10 6 11 11 8 5 3 7 6 1 6 14 12 19 23 22 20 18 16 15 15 15 15 15 15 14 12 11 11 10 9 8 8 8 9 9 8 8
11 14 11 14 18 18 14 7 2 5 9 13 11 15 11 8 4 4 7 5 1 7 15 15 16 23 23 21 19 17 16 15 15 15 16 16 15 14 13 13 12 10 10 9 9 10 10 9 10
13 10 16 19 19 20 21 15 3 6 10 12 10 4 5 4 5 5 5 11 3 9 12 12 18 22 24 22 20 19 17 16 16 16 16 16 16 15 15 15 14 12 12 11 10 11 11 11 11
15 9 18 17 17 20 23 4 7 8 10 4 4 3 8 4 6 8 4 9 10 9 15 17 15 24 27 25 23 21 20 18 16 16 17 16 16 16 16 17 16 15 14 13 12 12 13 12 12
14 6 12 20 19 19 20 12 6 7 5 15 10 14 18 16 13 10 8 9 9 8 13 17 16 22 29 27 26 24 22 20 19 19 19 18 18 18 19 20 18 17 16 15 15 14 15 14 14
16 11 18 19 19 18 17 19 20 17 15 15 12 17 14 16 14 11 11 11 10 11 11 14 18 17 26 27 27 25 24 23 22 22 21 21 20 20 21 21 21 19 19 18 17 17 16 16 16
20 18 18 22 27 27 22 20 22 22 17 19 15 19 19 13 13 12 14 13 13 13 15 17 23 21 22 20 21 25 27 26 25 24 23 22 21 19 14 15 17 20 21 21 21 20 20 19 17
21 26 25 27 27 25 20 28 25 25 24 22 21 19 17 18 17 13 15 15 14 8 12 18 17 18 26 27 22 19 22 25 26 26 25 24 24 20 20 21 23 21 20 23 23 20 20 20 18
20 21 27 29 27 25 28 23 24 28 28 26 24 19 17 16 16 16 17 16 12 10 11 12 15 14 15 22 23 21 18 23 20 19 20 25 22 23 22 25 22 24 18 17 21 18 17 17 15
27 30 29 23 24 27 25 24 24 26 26 28 21 22 22 22 19 18 16 15 13 7 3 2 6 15 15 18 22 21 20 24 22 25 23 22 25 21 26 23 23 23 23 20 18 20 22 22 21
22 20 22 25 30 26 30 27 25 28 29 29 28 23 20 17 16 16 16 13 5 2 5 4 10 7 13 13 18 23 20 24 23 25 27 28 28 30 26 28 27 25 23 23 19 21 20 19 21
24 24 21 18 22 28 28 27 18 22 20 15 19 19 22 18 14 15 14 7 2 1 4 3 11 13 15 13 15 18 22 20 28 24 28 26 31 30 32 35 31 28 27 24 24 22 28 23 23
16 20 24 28 23 21 16 22 14 16 10 7 12 15 17 14 15 15 10 5 3 4 6 5 8 12 17 21 21 21 20 22 26 27 27 30 26 32 32 33 32 36 30 28 27 27 25 26 27
19 19 23 24 21 16 19 20 17 24 22 13 15 17 17 16 16 12 9 4 5 3 4 4 5 8 13 15 21 27 27 23 26 28 30 30 31 30 34 33 33 30 40 39 28 28 27 28 28
22 25 28 26 26 27 22 20 17 17 22 19 21 24 22 20 10 13 9 6 6 3 4 5 6 7 9 9 11 11 14 20 24 27 32 31 32 34 34 37 38 38 35 38 41 29 32 34 28
27 28 28 25 26 22 25 24 22 20 20 24 26 23 21 22 16 11 9 6 8 6 7 7 7 8 9 8 13 16 20 26 24 26 28 37 37 36 40 38 38 41 41 37 35 37 37 35 31
25 25 25 29 26 27 23 24 22 20 27 31 29 22 9 18 20 13 6 7 5 7 10 10 10 10 12 13 14 15 18 22 28 30 29 26 32 37 40 41 43 42 44 43 39 39 45 42 34
22 21 26 25 20 16 22 18 22 20 22 20 30 17 22 16 13 8 7 5 6 7 10 14 16 16 14 18 19 18 21 24 24 26 27 24 28 39 42 44 43 45 48 45 41 40 40 40 35
23 22 18 21 14 20 23 16 15 23 20 16 16 28 23 16 11 8 7 6 7 10 12 15 17 18 19 21 21 24 27 29 31 33 35 39 33 24 43 46 44 45 45 46 45 42 42 42 42
15 17 20 21 13 15 25 18 17 19 16 10 21 24 19 15 11 6 5 8 11 13 15 16 17 19 22 23 24 26 28 31 34 36 39 39 44 36 31 47 47 47 43 42 43 42 43 43 44
14 13 7 4 7 15 18 16 16 15 20 20 19 19 16 15 10 7 11 13 15 18 20 20 21 24 24 25 27 28 30 32 35 37 39 41 44 46 41 37 46 51 47 45 44 45 44 42 41
9 10 6 6 7 13 10 10 4 13 17 23 22 17 15 15 9 10 12 14 17 20 22 24 28 30 29 29 30 31 32 34 37 38 39 43 45 48 45 32 42 46 42 39 45 44 47 45 42
12 14 17 6 13 11 11 6 7 13 14 15 15 15 13 11 11 12 14 15 18 20 22 24 31 33 31 32 32 33 33 34 37 39 39 42 46 49 48 39 37 46 43 40 41 50 50 45 44
8 2 3 2 4 10 13 12 6 8 9 8 10 10 10 12 14 16 17 17 18 19 21 24 27 29 31 32 31 32 32 34 36 36 38 42 45 44 48 46 36 45 47 40 38 46 48 47 43
10 11 7 4 5 4 6 4 6 9 7 7 5 7 11 16 18 18 19 19 20 23 23 25 29 30 30 29 28 29 30 32 32 32 31 32 34 40 45 46 42 46 45 39 41 46 47 44 42
6 9 12 9 11 8 9 10 8 10 8 4 4 5 10 11 13 14 16 18 21 23 24 27 29 31 30 27 25 26 26 25 24 23 23 23 16 23 26 41 43 47 46 39 38 46 45 43 40

GFSSGP_850_spd_120.txt.gz
Wind_Speed
3 1 4 3 4 5 3 6 3 6 1 2 3 6 8 2 4 4 7 2 2 5 9 13 20 20 20 20 18 17 16 15 16 17 17 14 12 11 9 9 9 8 9 10 11 10 9 9 8
1 2 5 2 4 2 5 5 6 4 6 5 5 8 5 3 15 12 6 2 2 4 8 11 20 21 21 20 19 18 16 16 16 17 17 16 14 12 10 9 9 9 9 10 10 9 9 8 7
4 3 1 3 3 4 4 3 7 8 4 3 2 4 6 9 11 10 6 2 3 4 7 9 18 22 21 20 20 19 18 17 17 17 17 17 16 13 12 11 10 9 9 10 10 9 9 8 8
5 2 0 3 6 8 2 9 14 6 1 3 3 4 7 7 13 9 7 3 7 6 6 8 9 21 22 21 21 20 18 18 17 18 18 18 17 15 13 12 11 10 10 10 9 9 9 8 7
5 1 3 2 6 5 6 12 14 4 2 1 2 2 6 10 10 8 3 1 6 6 5 8 8 18 24 22 22 20 19 19 19 18 18 18 18 16 14 12 12 11 10 9 8 8 7 6 6
3 1 2 4 5 4 6 13 13 9 11 10 2 2 1 12 6 3 3 3 4 6 8 9 10 14 25 24 23 22 20 20 19 19 19 19 19 17 15 14 13 12 11 10 9 8 8 8 8
3 3 5 4 5 7 2 15 8 7 8 6 7 4 6 7 4 3 1 4 4 3 8 10 11 11 22 23 23 22 21 21 20 20 20 20 19 18 17 16 15 14 13 12 11 10 9 10 9
3 3 3 3 3 7 2 9 16 15 5 9 8 3 4 5 1 4 1 3 5 5 6 9 13 16 18 25 25 24 22 22 21 20 21 21 21 19 18 17 17 16 15 14 13 11 10 11 11
2 2 2 4 3 6 14 8 11 16 12 14 8 8 2 3 7 6 5 5 7 7 10 11 12 14 18 23 27 27 25 24 22 22 22 23 23 23 22 21 19 19 18 16 15 14 12 12 12
4 4 7 7 5 9 22 12 17 8 12 14 18 15 12 1 6 9 9 7 7 9 10 15 17 14 16 20 28 30 28 28 27 25 24 25 25 24 24 23 22 22 21 20 19 17 16 14 14
4 6 5 15 27 30 23 24 19 4 3 13 17 20 20 19 11 6 8 10 13 12 10 17 21 18 16 16 25 31 31 29 28 27 26 26 26 26 26 25 26 26 25 24 23 21 20 17 16
4 9 12 18 23 19 10 23 18 12 19 24 23 26 26 23 20 17 11 14 18 20 18 16 20 20 17 15 14 28 28 29 29 28 27 27 28 28 29 28 28 28 28 27 26 24 21 19 18
5 5 10 16 23 24 24 14 13 24 36 30 28 26 27 27 22 20 18 13 18 23 20 11 16 20 20 17 14 18 27 28 28 27 28 29 30 31 30 31 30 30 30 29 28 27 24 22 21
10 16 17 16 21 21 17 13 13 24 36 41 41 37 32 26 26 25 23 22 17 10 10 17 19 18 17 19 17 19 21 23 28 29 31 32 33 33 33 33 32 31 29 26 27 24 22 24 23
11 10 11 6 12 8 27 11 12 30 31 35 36 38 36 34 31 27 21 19 10 10 12 17 20 21 19 18 19 20 26 23 26 28 28 26 32 35 35 34 34 34 32 27 25 25 24 21 24
7 6 2 5 3 11 3 19 11 27 28 33 34 35 32 30 30 25 20 14 15 16 15 14 12 10 8 8 11 17 21 29 31 29 26 30 37 36 31 32 35 35 33 32 29 29 28 26 24
3 7 5 5 9 5 4 22 4 30 25 25 26 28 13 9 17 19 19 19 20 19 15 12 10 9 8 8 10 14 16 22 28 29 34 32 58 40 31 32 31 35 35 35 34 33 31 30 28
7 6 4 3 6 9 11 22 17 17 22 26 30 23 13 12 18 27 26 23 20 19 17 14 11 10 11 13 14 15 17 21 24 24 19 23 29 35 54 41 32 36 36 39 40 37 35 34 31
6 9 15 11 7 10 12 19 18 20 16 17 25 26 8 23 32 30 25 20 16 12 10 8 7 7 8 10 12 15 17 18 23 28 23 19 18 27 32 34 36 36 37 41 42 42 39 37 35
13 14 15 16 12 13 12 12 7 7 12 20 23 28 14 27 28 26 22 18 12 8 6 3 4 7 10 12 12 13 17 20 22 24 26 29 26 22 25 26 34 38 38 38 46 45 37 38 34
17 12 13 16 10 3 5 13 7 19 20 26 28 12 19 23 24 24 21 18 13 9 7 7 8 9 10 13 17 16 17 18 23 25 27 27 29 30 27 25 25 33 39 45 42 48 39 40 31
17 6 11 8 7 8 6 12 12 16 12 6 11 21 30 29 28 22 20 18 13 12 9 7 8 9 11 14 18 21 23 25 24 26 28 28 28 30 34 34 31 27 30 36 39 41 42 45 38
20 11 7 3 5 3 23 2 9 7 14 6 11 21 27 27 26 23 19 15 12 9 10 10 11 12 14 15 18 21 24 27 29 30 31 30 29 30 32 33 37 37 32 29 36 37 40 40 42
17 4 7 4 1 4 16 6 6 6 8 12 17 19 20 26 25 22 17 13 13 12 13 14 16 18 19 20 21 23 25 28 31 33 34 35 33 32 31 33 36 38 38 35 32 34 38 41 43
3 5 2 3 1 6 4 2 3 7 14 15 14 23 20 19 22 21 20 19 18 18 18 18 19 21 22 24 24 25 26 28 31 32 35 37 37 36 34 35 35 38 39 40 38 36 39 40 42
6 8 5 4 3 4 2 5 3 7 13 17 10 14 21 15 19 19 16 17 20 20 23 23 24 24 26 27 27 27 27 29 30 32 34 36 38 38 37 37 39 40 40 41 39 39 35 42 42
2 3 6 1 2 2 3 2 4 8 10 12 9 3 9 8 6 10 9 17 23 28 27 24 23 25 26 27 28 27 27 28 30 31 32 34 35 37 38 39 41 42 43 40 39 40 43 37 46
5 7 3 2 3 5 3 3 4 10 11 9 9 8 7 7 5 7 7 16 22 23 22 23 24 26 26 26 26 27 27 27 28 29 32 33 34 34 36 36 37 38 37 37 36 41 43 41 43
2 2 2 5 4 3 2 4 5 9 9 11 12 17 16 15 10 8 10 14 16 17 22 25 26 25 25 25 26 26 26 27 27 28 29 31 31 32 35 35 35 35 35 37 37 39 41 45 44
3 5 6 4 4 4 2 5 4 10 12 16 18 16 12 9 8 10 12 13 17 21 24 24 24 23 24 25 24 24 25 26 25 25 26 26 28 29 31 31 32 34 35 35 38 40 42 49 41

GFSSGP_850_spd_123.txt.gz
Wind_Speed
3 1 3 2 4 5 3 5 3 8 6 4 4 3 7 4 4 4 8 5 4 9 15 22 22 22 22 21 20 18 17 16 17 17 16 14 12 10 9 9 10 10 10 11 11 11 10 10 9
2 1 3 3 4 3 5 4 4 4 10 12 3 3 4 2 3 9 8 6 5 7 10 17 21 22 21 21 20 19 17 16 17 17 17 16 14 12 10 9 10 10 10 11 11 11 11 10 9
3 1 1 4 3 4 4 2 7 22 22 8 3 4 3 2 7 8 6 2 2 3 8 12 18 22 22 20 19 18 17 17 17 18 18 17 15 13 11 10 10 11 11 12 13 12 11 10 9
2 1 4 4 4 6 4 7 9 10 6 4 1 5 4 2 6 7 5 1 2 2 7 11 14 21 22 21 20 19 18 17 17 18 18 18 17 15 13 11 11 11 12 12 12 12 11 10 9
3 2 3 0 4 4 4 10 15 6 8 9 9 2 3 5 6 5 2 2 2 2 5 9 10 13 20 21 20 20 19 19 19 19 19 19 18 17 15 14 13 12 12 12 12 11 11 11 11
2 3 3 4 4 2 6 9 10 11 10 11 9 2 1 6 7 4 2 2 3 3 5 9 11 11 17 23 22 21 21 20 20 20 20 20 20 19 17 16 15 14 13 13 13 13 12 12 11
4 4 3 4 3 2 1 9 9 8 13 9 12 2 2 5 3 2 2 4 5 4 5 7 10 11 12 22 23 22 22 22 22 22 21 22 22 21 19 18 18 17 16 15 14 13 13 12 12
2 4 0 3 3 3 2 6 8 15 10 21 11 1 3 7 4 5 7 7 8 7 5 6 8 11 12 17 23 23 23 23 23 23 24 24 24 24 22 20 19 19 19 17 16 15 14 13 13
1 3 2 4 3 3 4 8 13 17 11 19 8 9 10 5 8 11 13 13 12 10 8 7 8 10 11 14 21 24 25 25 25 25 25 25 26 26 24 23 21 21 20 19 18 17 16 14 14
3 3 8 5 3 5 10 10 15 9 15 19 16 20 12 9 10 14 14 14 12 11 9 8 9 11 14 15 18 25 27 28 28 28 26 26 26 26 25 24 23 22 22 21 20 19 18 17 16
3 5 4 7 19 24 12 11 9 5 7 14 20 21 23 18 16 15 15 15 15 12 10 8 11 14 15 16 17 21 28 29 30 29 28 27 26 27 28 27 26 26 26 26 25 23 23 20 18
3 5 5 8 11 12 10 21 6 13 24 21 22 23 22 23 25 24 20 18 21 18 15 15 14 17 16 18 17 16 24 30 30 30 28 28 28 29 30 29 28 28 28 28 28 27 25 22 21
5 4 9 14 20 19 20 16 18 22 34 27 26 30 34 33 29 25 24 20 21 22 21 22 19 17 20 20 19 19 18 26 27 28 28 28 29 29 30 30 30 30 30 30 30 29 28 26 24
5 11 12 12 25 22 13 8 3 20 31 26 28 30 36 32 26 27 25 26 26 20 19 20 18 18 19 19 19 19 18 16 24 27 29 30 29 29 30 31 30 31 31 31 31 31 30 29 27
10 5 5 8 13 6 14 6 6 17 22 29 29 35 33 27 28 27 30 28 23 17 14 13 19 21 21 19 19 20 21 22 25 32 31 29 28 29 30 31 31 31 31 31 31 31 31 30 29
6 3 2 6 6 6 4 4 8 17 33 28 33 36 36 34 29 31 23 20 16 13 12 15 18 21 20 19 18 17 18 20 25 30 27 28 28 29 32 32 30 29 32 34 33 32 30 32 33
3 3 4 6 8 5 2 9 5 27 20 26 26 29 31 30 25 14 15 19 19 18 18 18 17 16 17 16 13 12 13 14 15 17 19 21 31 33 40 44 30 28 28 37 37 36 34 34 36
5 3 3 2 7 13 17 21 14 23 24 21 18 24 29 11 4 15 19 19 20 19 17 15 14 14 13 13 13 13 14 16 18 19 16 18 21 22 25 35 53 46 47 38 35 37 35 36 36
2 3 5 5 10 8 15 20 14 14 12 20 26 20 7 12 17 18 17 16 13 12 9 8 6 6 7 9 10 12 14 16 18 21 19 17 20 17 19 22 28 39 56 48 36 36 37 36 37
7 10 10 6 11 7 12 17 10 4 8 17 22 17 14 22 20 18 15 12 13 12 10 6 3 1 3 4 6 9 10 11 15 16 17 17 19 20 22 15 22 26 49 52 50 47 41 38 37
10 8 11 11 6 5 7 13 10 8 16 13 17 3 14 19 22 18 18 16 12 14 14 12 12 10 8 7 7 8 10 12 17 19 21 20 20 21 20 21 22 22 22 32 42 43 44 40 39
9 9 11 9 4 9 4 12 17 8 14 15 22 26 26 23 21 19 18 18 16 14 12 14 14 15 14 14 13 14 17 18 18 21 22 22 23 24 25 24 25 26 28 29 28 31 42 44 44
8 8 11 13 4 5 4 3 5 8 9 10 15 23 25 21 20 20 19 19 18 17 18 16 16 18 18 17 17 17 18 21 23 25 26 26 25 26 27 28 28 29 28 30 31 29 31 34 40
6 4 0 3 2 6 11 9 4 3 1 8 14 20 20 17 17 18 17 19 21 22 22 23 22 24 23 22 21 21 22 22 24 26 28 29 29 28 27 29 30 31 31 31 31 31 33 31 33
5 3 2 2 1 5 2 1 1 5 8 8 10 14 14 11 13 15 21 23 26 28 31 29 27 27 26 24 23 24 25 25 26 26 27 30 31 30 28 28 30 31 33 34 35 35 35 35 31
6 8 5 4 3 4 4 6 4 9 13 14 12 12 7 4 9 9 8 12 24 30 33 28 28 28 28 27 26 26 27 28 27 27 28 29 30 30 30 30 29 30 33 35 37 38 38 38 37
3 3 3 1 1 1 4 1 4 9 9 12 11 7 7 6 5 3 5 10 14 19 20 25 28 24 25 27 27 26 26 26 28 28 28 29 29 30 31 30 29 29 32 34 36 40 39 39 39
6 7 3 2 3 5 4 4 4 16 14 13 8 10 6 6 4 2 8 13 13 13 16 19 20 23 26 25 25 26 25 26 26 26 27 27 27 28 30 29 28 29 29 31 32 34 34 35 38
3 3 3 4 4 4 3 5 5 15 17 14 13 14 13 12 6 3 10 11 13 15 17 19 20 22 24 24 23 23 24 24 25 25 24 25 25 25 27 28 29 31 31 31 32 31 30 30 34
3 7 7 4 5 4 2 7 4 7 13 20 19 20 17 9 2 5 9 12 14 17 19 21 23 25 25 24 24 22 23 23 23 23 22 22 23 23 25 26 29 30 31 32 35 32 31 33 33

GFSSGP_850_spd_126.txt.gz
Wind_Speed
3 1 3 2 4 5 3 3 2 7 8 2 4 3 4 2 4 4 8 5 2 5 15 22 23 23 22 21 20 19 17 15 14 14 13 12 11 10 7 8 10 10 11 12 13 12 11 10 9
2 1 2 3 4 3 4 4 3 6 11 12 5 3 3 1 1 4 6 5 4 4 7 19 22 23 21 21 20 20 18 16 15 15 15 13 12 11 8 8 9 10 11 12 13 12 11 10 9
3 2 2 4 3 3 3 3 7 14 13 1 3 6 3 2 4 7 5 4 4 4 7 15 20 21 21 20 20 19 18 17 17 17 16 15 14 13 10 9 10 11 11 12 12 11 10 9 8
4 2 5 4 3 4 3 6 6 12 10 10 4 3 3 1 3 2 1 1 2 3 6 11 16 19 20 20 20 19 18 17 17 17 17 17 16 15 13 11 11 11 11 11 11 11 10 9 9
3 3 3 2 2 5 5 7 10 7 6 17 7 2 3 2 3 4 1 2 2 2 4 10 12 15 19 20 20 20 19 18 18 18 18 18 18 16 15 13 12 12 12 12 12 11 11 10 10
2 3 4 2 2 5 6 4 5 10 16 17 8 3 1 3 2 1 3 4 4 2 2 7 10 11 13 17 20 20 20 20 20 20 20 20 19 19 17 16 15 14 14 13 13 13 12 11 11
5 3 4 3 2 5 2 8 5 8 11 9 11 4 5 1 2 3 3 3 4 4 2 5 8 10 12 15 20 22 21 21 20 21 21 21 21 20 19 18 17 17 16 15 14 14 13 12 12
2 4 4 4 3 4 1 8 7 16 6 18 14 4 5 11 6 7 7 7 8 8 7 6 7 8 9 12 17 22 21 21 21 21 22 22 23 23 22 20 20 19 18 17 16 15 14 13 13
1 4 2 4 6 4 4 9 11 15 11 17 4 7 13 14 10 13 15 15 13 11 10 9 9 9 9 10 13 19 22 22 21 23 24 25 26 25 25 24 22 21 20 18 17 16 15 14 14
4 3 7 4 2 2 10 4 11 9 17 11 20 19 17 17 16 16 16 18 17 13 11 10 11 11 10 11 12 16 21 24 24 25 25 26 27 26 26 25 24 22 22 21 20 19 18 17 16
2 5 4 5 7 7 2 9 3 4 6 8 18 28 28 25 22 23 22 21 20 18 14 14 14 13 14 14 13 14 17 22 25 25 25 26 27 27 28 28 27 26 25 25 24 23 22 20 18
2 5 5 8 7 12 7 9 3 13 19 18 22 22 25 26 31 29 29 26 23 23 20 18 17 16 18 18 18 16 17 18 24 26 25 26 26 26 27 29 29 29 28 28 27 26 24 23 21
4 3 10 14 19 19 21 11 9 13 18 16 16 17 23 27 30 21 21 27 23 23 22 21 20 21 21 21 21 20 19 19 19 22 23 24 25 24 26 29 30 29 28 27 27 27 26 26 24
3 7 13 11 24 20 6 8 3 10 12 22 22 26 26 28 32 24 20 20 22 22 22 22 22 22 22 21 23 22 21 18 14 19 22 23 24 23 26 29 29 28 27 26 26 28 29 29 28
6 5 8 8 6 4 4 3 4 11 31 24 30 25 26 28 29 27 18 14 12 17 19 19 18 16 19 18 19 19 19 18 16 18 22 26 27 28 29 29 29 26 23 25 25 27 28 30 31
4 3 3 5 5 2 8 4 7 21 31 31 29 25 26 27 26 21 11 5 11 13 12 11 10 11 15 15 15 16 16 15 18 21 25 26 35 32 40 38 29 26 26 25 22 25 26 29 30
4 3 2 6 4 4 6 3 10 25 23 24 22 20 25 24 17 10 10 11 12 11 10 11 10 10 10 7 7 10 11 10 10 12 14 17 20 27 35 42 46 52 35 30 26 22 23 30 31
4 2 4 5 6 12 10 10 6 22 18 21 22 21 15 10 14 11 10 11 10 9 8 7 7 8 8 7 6 6 7 9 11 13 14 15 17 19 23 30 36 39 39 37 36 36 28 27 29
4 1 4 6 10 5 8 9 9 18 21 18 21 15 14 15 14 14 14 12 11 8 7 7 4 3 2 7 8 7 7 8 9 12 14 14 15 19 22 21 22 24 29 34 44 48 52 61 35
4 2 6 6 7 6 9 11 9 7 9 17 15 17 18 17 17 17 16 15 15 13 11 9 11 13 10 6 5 7 9 8 10 10 12 14 16 16 19 21 21 24 26 26 30 37 43 54 41
5 3 4 7 6 4 8 6 4 8 16 19 25 23 20 19 19 18 18 19 18 19 20 20 16 11 11 12 9 7 9 9 12 14 14 15 16 18 20 20 20 22 26 26 27 30 31 46 45
2 7 6 5 4 4 1 6 4 4 10 11 16 23 21 19 17 16 18 19 21 23 21 21 21 21 19 18 16 17 17 18 17 19 21 21 19 20 21 22 21 22 24 25 25 24 30 44 48
8 7 7 5 6 0 3 3 3 6 7 6 9 14 16 15 16 17 19 21 22 24 25 24 24 24 23 22 23 24 23 22 23 23 24 24 24 22 23 27 25 23 23 25 26 28 31 36 52
1 2 1 3 2 4 11 8 3 3 5 7 7 9 11 11 10 10 14 19 21 25 28 28 24 25 26 26 25 26 27 25 26 25 27 27 26 25 23 24 30 28 25 25 26 28 31 34 37
4 3 3 2 1 5 4 3 10 4 6 9 13 9 7 2 3 5 5 11 14 15 28 33 33 33 34 32 28 28 28 28 29 28 28 28 29 27 25 24 24 29 29 26 27 29 30 33 37
5 8 4 4 3 4 3 5 5 6 9 12 13 10 5 1 3 4 5 7 11 14 16 16 20 27 31 31 31 29 28 28 28 28 29 29 29 28 27 26 26 25 29 28 27 29 32 33 35
4 4 3 3 1 1 4 4 4 8 10 12 12 9 7 3 5 5 6 10 14 15 17 20 20 22 24 25 25 23 23 25 26 26 26 25 26 27 26 26 27 26 24 26 26 29 31 33 35
5 7 3 2 2 4 4 5 6 13 15 12 12 16 10 8 8 6 8 13 14 16 17 19 20 22 23 23 24 24 25 24 23 25 25 24 24 23 24 25 25 25 23 23 26 28 27 29 32
2 2 4 3 4 4 2 6 6 13 15 14 16 19 15 10 9 5 8 11 14 15 16 19 21 23 23 23 23 23 23 25 23 23 24 22 22 22 22 22 23 23 24 24 25 27 28 29 29
4 7 9 4 5 4 2 9 4 5 8 18 16 13 15 14 7 3 7 9 11 14 16 18 19 21 22 22 23 23 21 19 19 20 21 21 22 20 19 19 19 21 23 24 25 29 30 31 31

GFSSGP_850_spd_129.txt.gz
Wind_Speed
3 1 2 0 2 1 1 3 2 7 3 4 8 3 1 2 1 2 5 3 2 3 16 20 19 19 18 18 17 15 14 13 12 12 12 12 10 9 7 10 11 11 11 12 13 12 11 9 8
3 1 1 2 1 0 3 2 8 9 11 12 4 2 2 3 3 5 5 4 4 4 11 20 21 21 20 19 18 17 16 15 13 13 13 13 12 10 7 8 11 12 12 14 14 12 11 9 9
3 1 1 3 2 1 3 1 9 13 7 2 2 4 2 2 5 5 4 5 4 4 8 17 19 20 21 20 19 18 17 16 15 14 14 13 14 13 10 8 10 12 13 13 14 12 11 10 9
3 1 5 1 1 1 2 6 9 11 7 14 3 4 3 1 2 0 2 3 4 3 5 12 16 18 19 19 19 18 17 16 16 16 16 15 15 15 13 10 10 12 13 13 13 12 12 11 10
1 2 2 3 2 2 3 4 5 12 6 17 12 5 3 4 4 3 3 4 3 2 3 9 13 16 17 18 18 18 18 18 17 17 18 17 16 16 15 13 12 12 13 13 13 12 12 11 11
1 2 1 1 2 3 4 5 4 13 10 17 9 7 5 6 2 3 3 3 3 2 1 6 10 13 15 17 18 19 19 19 19 19 20 20 19 19 18 16 14 14 14 14 14 13 13 13 13
2 1 2 4 2 3 2 3 7 7 8 13 12 3 6 14 8 7 7 5 4 4 3 4 8 11 13 14 17 19 20 21 20 20 21 22 21 20 19 18 16 15 15 15 15 14 14 14 13
4 2 3 2 3 1 4 5 6 8 2 14 8 5 6 17 14 11 13 11 9 8 8 7 8 10 12 13 16 19 20 20 20 20 21 22 22 22 21 20 19 17 17 16 16 15 15 14 14
3 1 2 2 5 1 6 8 8 13 4 11 5 9 14 14 18 16 17 17 15 12 11 11 10 10 10 10 12 15 18 20 20 21 22 23 24 25 24 23 21 20 19 18 17 16 15 15 14
2 2 4 2 1 4 9 10 11 9 15 3 15 17 17 19 16 17 20 21 18 16 13 12 13 12 12 11 12 12 14 18 21 22 23 25 26 26 26 25 24 22 21 20 20 18 16 16 16
2 3 3 2 2 5 3 8 5 9 5 13 17 24 20 17 18 20 20 21 21 19 17 16 16 14 14 14 14 15 15 16 19 22 23 25 27 27 28 28 27 25 23 23 22 21 20 20 19
1 4 2 2 3 5 6 4 8 10 11 16 16 15 18 20 20 23 21 16 17 19 18 17 17 17 17 17 18 18 18 17 18 19 22 24 26 28 28 29 29 27 26 26 25 25 24 23 22
2 2 5 8 11 11 8 10 7 9 10 12 17 17 19 20 21 20 20 12 13 14 17 17 18 19 21 22 21 21 21 20 20 19 19 22 24 23 24 26 28 28 26 26 27 28 26 26 27
0 4 10 7 16 8 5 3 6 2 20 19 19 18 18 19 21 20 17 10 8 11 14 16 18 18 19 18 20 21 22 21 20 17 18 20 22 23 24 25 23 24 23 24 27 28 28 28 28
4 6 7 5 1 2 2 2 4 3 18 16 17 16 18 19 18 18 14 8 3 5 9 14 15 15 14 11 11 16 16 16 17 17 18 19 22 23 23 25 28 28 21 20 23 26 28 29 30
2 1 3 1 4 4 2 4 7 18 18 19 17 14 14 15 15 13 10 7 4 2 3 4 7 10 10 9 7 11 13 13 14 16 18 19 22 24 26 28 28 32 36 28 21 23 27 29 31
2 3 2 5 6 6 8 5 12 19 15 17 19 12 12 12 13 13 11 10 7 5 3 1 0 2 4 7 7 7 7 8 9 9 10 11 14 17 20 26 33 33 34 34 41 36 29 35 34
1 2 2 3 4 12 11 10 9 15 15 15 11 8 10 13 16 15 14 13 12 11 9 8 5 3 3 3 5 6 6 8 9 10 11 12 13 15 16 19 23 28 31 32 38 45 42 41 29
3 3 8 8 9 5 7 12 11 17 8 12 9 9 11 13 13 14 15 15 15 14 13 13 11 9 6 2 5 7 8 9 9 10 11 13 14 15 18 22 24 24 24 23 28 37 45 49 42
9 9 11 7 6 7 8 16 12 7 5 7 8 9 10 11 12 13 15 17 18 18 18 18 18 17 15 13 9 8 9 11 12 13 13 13 14 16 17 19 22 25 24 25 24 26 32 36 38
6 8 9 8 7 6 8 6 5 6 8 8 9 9 10 10 11 12 14 16 17 19 22 21 20 19 18 16 16 14 11 11 13 14 16 16 17 17 19 19 21 23 25 27 28 27 29 32 33
6 11 11 8 7 4 5 6 8 4 5 5 6 7 7 7 8 8 9 10 13 14 17 20 20 21 20 20 19 19 19 20 19 21 21 21 20 20 20 21 22 23 25 26 29 31 31 31 35
6 5 6 7 8 5 4 6 2 6 2 4 6 7 7 6 6 7 8 8 8 10 14 19 20 23 23 22 22 22 22 21 21 23 24 24 24 23 20 21 25 27 26 26 28 30 33 34 33
2 1 2 2 3 6 9 9 3 7 6 7 10 10 8 5 2 1 6 11 15 17 18 20 25 26 28 29 27 26 24 24 25 23 23 24 25 25 25 23 23 26 29 28 28 31 33 35 37
5 3 3 3 3 5 3 6 11 8 10 10 16 15 11 5 2 4 6 7 11 15 17 18 20 22 25 28 27 26 27 25 24 26 27 26 25 25 26 26 26 26 27 30 31 30 33 34 36
6 7 4 4 3 3 3 6 3 4 9 9 13 14 11 7 3 3 4 8 12 15 17 18 20 21 23 23 23 23 23 24 25 25 26 26 26 27 27 27 28 28 28 29 31 33 32 34 35
4 6 2 4 1 5 5 7 4 9 7 11 15 16 13 6 3 4 4 8 12 15 17 20 22 21 20 21 21 22 23 23 22 22 22 23 24 25 26 27 28 28 28 28 29 31 30 30 33
6 6 3 1 4 6 6 7 9 9 13 13 16 19 14 12 8 7 5 9 13 15 17 17 18 20 21 22 22 22 22 21 21 21 22 21 22 23 24 24 24 26 27 28 29 30 28 27 30
4 4 2 2 3 4 7 7 5 11 13 17 20 20 16 14 11 7 4 8 11 13 13 15 18 20 21 21 21 21 22 22 21 20 21 21 20 20 20 21 22 24 26 27 29 30 30 30 30
3 5 8 7 7 5 5 11 1 5 7 16 13 11 13 12 9 6 4 7 10 11 13 14 16 17 20 21 22 23 24 24 23 22 20 19 19 19 20 19 19 21 21 23 26 27 28 32 34